<?xml version="1.0" encoding="UTF-8" standalone="no" ?><gpx xmlns="http://www.topografix.com/GPX/1/1" xmlns:gpxx="http://www.garmin.com/xmlschemas/GpxExtensions/v3" xmlns:gpxtrkx="http://www.garmin.com/xmlschemas/TrackStatsExtension/v1" xmlns:wptx1="http://www.garmin.com/xmlschemas/WaypointExtension/v1" xmlns:gpxtpx="http://www.garmin.com/xmlschemas/TrackPointExtension/v1" creator="GPSMAP 64" version="1.1" xmlns:xsi="http://www.w3.org/2001/XMLSchema-instance" xsi:schemaLocation="http://www.topografix.com/GPX/1/1 http://www.topografix.com/GPX/1/1/gpx.xsd http://www.garmin.com/xmlschemas/GpxExtensions/v3 http://www8.garmin.com/xmlschemas/GpxExtensionsv3.xsd http://www.garmin.com/xmlschemas/TrackStatsExtension/v1 http://www8.garmin.com/xmlschemas/TrackStatsExtension.xsd http://www.garmin.com/xmlschemas/WaypointExtension/v1 http://www8.garmin.com/xmlschemas/WaypointExtensionv1.xsd http://www.garmin.com/xmlschemas/TrackPointExtension/v1 http://www.garmin.com/xmlschemas/TrackPointExtensionv1.xsd"><metadata><link href="http://www.garmin.com"><text>Garmin International</text></link><time>2026-08-15T08:05:21Z</time></metadata><trk><name>20260813LISA16</name><extensions><gpxx:TrackExtension><gpxx:DisplayColor>Cyan</gpxx:DisplayColor></gpxx:TrackExtension><gpxtrkx:TrackStatsExtension><gpxtrkx:Distance>233413.000</gpxtrkx:Distance><gpxtrkx:TotalElapsedTime>302833</gpxtrkx:TotalElapsedTime><gpxtrkx:MovingTime>41490</gpxtrkx:MovingTime><gpxtrkx:StoppedTime>10521</gpxtrkx:StoppedTime><gpxtrkx:MovingSpeed>5.626</gpxtrkx:MovingSpeed><gpxtrkx:MaxSpeed>180.439</gpxtrkx:MaxSpeed><gpxtrkx:MaxElevation>5197.151</gpxtrkx:MaxElevation><gpxtrkx:MinElevation>-378.499</gpxtrkx:MinElevation><gpxtrkx:Ascent>85668.000</gpxtrkx:Ascent><gpxtrkx:Descent>92343.328</gpxtrkx:Descent><gpxtrkx:AvgAscentRate>0.055</gpxtrkx:AvgAscentRate><gpxtrkx:MaxAscentRate>17.600</gpxtrkx:MaxAscentRate><gpxtrkx:AvgDescentRate>0.060</gpxtrkx:AvgDescentRate><gpxtrkx:MaxDescentRate>-7.949</gpxtrkx:MaxDescentRate></gpxtrkx:TrackStatsExtension></extensions><trkseg><trkpt lat="59.6239794698" lon="31.0659952462"><ele>39.42</ele><time>2026-08-11T19:58:08Z</time></trkpt><trkpt lat="59.6239606105" lon="31.0660133511"><ele>46.44</ele><time>2026-08-11T19:58:40Z</time></trkpt><trkpt lat="59.6239709202" lon="31.0660680011"><ele>47.63</ele><time>2026-08-11T19:59:11Z</time></trkpt><trkpt lat="59.6240016818" lon="31.0660771374"><ele>47.37</ele><time>2026-08-11T19:59:39Z</time></trkpt><trkpt lat="59.6240230557" lon="31.0660729464"><ele>45.94</ele><time>2026-08-11T20:00:09Z</time></trkpt><trkpt lat="59.6240787953" lon="31.0660615470"><ele>47.49</ele><time>2026-08-11T20:00:39Z</time></trkpt><trkpt lat="59.6240302641" lon="31.0657986905"><ele>46.81</ele><time>2026-08-11T20:01:04Z</time></trkpt><trkpt lat="59.6240231395" lon="31.0657066572"><ele>45.94</ele><time>2026-08-11T20:01:08Z</time></trkpt><trkpt lat="59.6240029391" lon="31.0651969537"><ele>43.57</ele><time>2026-08-11T20:01:31Z</time></trkpt><trkpt lat="59.6239644662" lon="31.0651882365"><ele>42.51</ele><time>2026-08-11T20:01:54Z</time></trkpt><trkpt lat="59.6240352094" lon="31.0651205108"><ele>43.12</ele><time>2026-08-11T20:02:14Z</time></trkpt><trkpt lat="59.6240518056" lon="31.0651064292"><ele>43.34</ele><time>2026-08-11T20:02:32Z</time></trkpt><trkpt lat="59.6240243968" lon="31.0650303215"><ele>44.16</ele><time>2026-08-11T20:03:13Z</time></trkpt><trkpt lat="59.6240629535" lon="31.0650221072"><ele>43.85</ele><time>2026-08-11T20:03:24Z</time></trkpt><trkpt lat="59.6241446771" lon="31.0650464986"><ele>42.91</ele><time>2026-08-11T20:03:47Z</time></trkpt><trkpt lat="59.6241432521" lon="31.0651288088"><ele>43.68</ele><time>2026-08-11T20:04:18Z</time></trkpt><trkpt lat="59.6240778733" lon="31.0651003104"><ele>44.68</ele><time>2026-08-11T20:04:51Z</time></trkpt><trkpt lat="59.6241180226" lon="31.0650806967"><ele>45.43</ele><time>2026-08-11T20:05:21Z</time></trkpt><trkpt lat="59.6241952199" lon="31.0650781821"><ele>45.03</ele><time>2026-08-11T20:05:41Z</time></trkpt><trkpt lat="59.6242329385" lon="31.0651064292"><ele>44.99</ele><time>2026-08-11T20:05:47Z</time></trkpt><trkpt lat="59.6243041009" lon="31.0651490930"><ele>44.65</ele><time>2026-08-11T20:06:02Z</time></trkpt><trkpt lat="59.6243836451" lon="31.0651672818"><ele>44.97</ele><time>2026-08-11T20:06:12Z</time></trkpt><trkpt lat="59.6244561486" lon="31.0650804453"><ele>45.32</ele><time>2026-08-11T20:06:35Z</time></trkpt><trkpt lat="59.6245480143" lon="31.0650723986"><ele>45.22</ele><time>2026-08-11T20:06:52Z</time></trkpt><trkpt lat="59.6246283129" lon="31.0650549643"><ele>45.40</ele><time>2026-08-11T20:07:12Z</time></trkpt><trkpt lat="59.6246761736" lon="31.0650723986"><ele>45.01</ele><time>2026-08-11T20:07:33Z</time></trkpt><trkpt lat="59.6246718150" lon="31.0650169104"><ele>46.21</ele><time>2026-08-11T20:08:05Z</time></trkpt><trkpt lat="59.6247306559" lon="31.0649965424"><ele>45.67</ele><time>2026-08-11T20:08:40Z</time></trkpt><trkpt lat="59.6247519460" lon="31.0650158208"><ele>45.66</ele><time>2026-08-11T20:09:29Z</time></trkpt><trkpt lat="59.6248386987" lon="31.0650244541"><ele>45.52</ele><time>2026-08-11T20:09:52Z</time></trkpt><trkpt lat="59.6249009762" lon="31.0650060978"><ele>46.60</ele><time>2026-08-11T20:10:15Z</time></trkpt><trkpt lat="59.6249940153" lon="31.0650715604"><ele>47.91</ele><time>2026-08-11T20:10:35Z</time></trkpt><trkpt lat="59.6250213403" lon="31.0650801100"><ele>47.91</ele><time>2026-08-11T20:10:53Z</time></trkpt><trkpt lat="59.6250872221" lon="31.0650318302"><ele>48.99</ele><time>2026-08-11T20:11:14Z</time></trkpt><trkpt lat="59.6251277905" lon="31.0650361050"><ele>49.27</ele><time>2026-08-11T20:11:38Z</time></trkpt><trkpt lat="59.6251474880" lon="31.0649221111"><ele>49.57</ele><time>2026-08-11T20:12:03Z</time></trkpt><trkpt lat="59.6251886431" lon="31.0649237037"><ele>51.02</ele><time>2026-08-11T20:12:32Z</time></trkpt><trkpt lat="59.6252228413" lon="31.0649117175"><ele>51.20</ele><time>2026-08-11T20:12:55Z</time></trkpt><trkpt lat="59.6252682712" lon="31.0649496038"><ele>51.43</ele><time>2026-08-11T20:13:14Z</time></trkpt><trkpt lat="59.6252615657" lon="31.0650159884"><ele>51.24</ele><time>2026-08-11T20:13:44Z</time></trkpt><trkpt lat="59.6252492443" lon="31.0650052596"><ele>50.96</ele><time>2026-08-11T20:14:17Z</time></trkpt><trkpt lat="59.6252661757" lon="31.0650246218"><ele>50.42</ele><time>2026-08-11T20:14:52Z</time></trkpt><trkpt lat="59.6252826881" lon="31.0650043376"><ele>51.64</ele><time>2026-08-11T20:15:25Z</time></trkpt><trkpt lat="59.6253147069" lon="31.0650272202"><ele>50.88</ele><time>2026-08-11T20:15:57Z</time></trkpt><trkpt lat="59.6252994519" lon="31.0649966262"><ele>51.81</ele><time>2026-08-11T20:16:27Z</time></trkpt><trkpt lat="59.6253097616" lon="31.0650097020"><ele>50.47</ele><time>2026-08-11T20:17:03Z</time></trkpt><trkpt lat="59.6252629906" lon="31.0649996437"><ele>48.33</ele><time>2026-08-11T20:17:37Z</time></trkpt><trkpt lat="59.6252665948" lon="31.0650675371"><ele>47.41</ele><time>2026-08-11T20:18:08Z</time></trkpt><trkpt lat="59.6252686903" lon="31.0650619213"><ele>48.17</ele><time>2026-08-11T20:18:33Z</time></trkpt><trkpt lat="59.6252940875" lon="31.0651224386"><ele>49.09</ele><time>2026-08-11T20:18:57Z</time></trkpt><trkpt lat="59.6253477316" lon="31.0651625879"><ele>49.79</ele><time>2026-08-11T20:19:20Z</time></trkpt><trkpt lat="59.6254437882" lon="31.0652021505"><ele>50.62</ele><time>2026-08-11T20:19:45Z</time></trkpt><trkpt lat="59.6254856978" lon="31.0652443115"><ele>51.41</ele><time>2026-08-11T20:20:04Z</time></trkpt><trkpt lat="59.6255163755" lon="31.0652767494"><ele>51.93</ele><time>2026-08-11T20:20:20Z</time></trkpt><trkpt lat="59.6255478915" lon="31.0652598180"><ele>52.21</ele><time>2026-08-11T20:20:41Z</time></trkpt><trkpt lat="59.6256262623" lon="31.0652272124"><ele>53.17</ele><time>2026-08-11T20:21:08Z</time></trkpt><trkpt lat="59.6256306209" lon="31.0651574749"><ele>53.20</ele><time>2026-08-11T20:21:29Z</time></trkpt><trkpt lat="59.6256246697" lon="31.0650604125"><ele>53.24</ele><time>2026-08-11T20:21:51Z</time></trkpt><trkpt lat="59.6256175451" lon="31.0649720673"><ele>53.13</ele><time>2026-08-11T20:22:12Z</time></trkpt><trkpt lat="59.6256069839" lon="31.0649176687"><ele>52.91</ele><time>2026-08-11T20:22:38Z</time></trkpt><trkpt lat="59.6256208140" lon="31.0648441594"><ele>52.86</ele><time>2026-08-11T20:23:04Z</time></trkpt><trkpt lat="59.6256100852" lon="31.0647903476"><ele>52.89</ele><time>2026-08-11T20:23:36Z</time></trkpt><trkpt lat="59.6255977638" lon="31.0647531319"><ele>53.65</ele><time>2026-08-11T20:24:08Z</time></trkpt><trkpt lat="59.6256106719" lon="31.0647116415"><ele>54.29</ele><time>2026-08-11T20:24:30Z</time></trkpt><trkpt lat="59.6256665792" lon="31.0647527128"><ele>54.37</ele><time>2026-08-11T20:24:52Z</time></trkpt><trkpt lat="59.6256839298" lon="31.0647191852"><ele>54.08</ele><time>2026-08-11T20:25:18Z</time></trkpt><trkpt lat="59.6257122606" lon="31.0646839812"><ele>54.31</ele><time>2026-08-11T20:25:40Z</time></trkpt><trkpt lat="59.6257505659" lon="31.0646731686"><ele>53.17</ele><time>2026-08-11T20:25:59Z</time></trkpt><trkpt lat="59.6257542539" lon="31.0646544769"><ele>53.05</ele><time>2026-08-11T20:26:23Z</time></trkpt><trkpt lat="59.6257453691" lon="31.0647024214"><ele>52.80</ele><time>2026-08-11T20:26:48Z</time></trkpt><trkpt lat="59.6257216483" lon="31.0647611786"><ele>52.96</ele><time>2026-08-11T20:27:12Z</time></trkpt><trkpt lat="59.6257218160" lon="31.0648399685"><ele>52.61</ele><time>2026-08-11T20:27:38Z</time></trkpt><trkpt lat="59.6257759631" lon="31.0648533795"><ele>52.56</ele><time>2026-08-11T20:28:03Z</time></trkpt><trkpt lat="59.6257819980" lon="31.0649057664"><ele>53.47</ele><time>2026-08-11T20:28:30Z</time></trkpt><trkpt lat="59.6258097421" lon="31.0649657808"><ele>52.53</ele><time>2026-08-11T20:28:56Z</time></trkpt><trkpt lat="59.6258260868" lon="31.0649713129"><ele>52.43</ele><time>2026-08-11T20:29:18Z</time></trkpt><trkpt lat="59.6258696727" lon="31.0649655294"><ele>52.20</ele><time>2026-08-11T20:29:38Z</time></trkpt><trkpt lat="59.6258615423" lon="31.0650204308"><ele>51.55</ele><time>2026-08-11T20:30:08Z</time></trkpt><trkpt lat="59.6259080619" lon="31.0650838818"><ele>51.34</ele><time>2026-08-11T20:30:34Z</time></trkpt><trkpt lat="59.6259295195" lon="31.0650944430"><ele>50.36</ele><time>2026-08-11T20:30:56Z</time></trkpt><trkpt lat="59.6259677410" lon="31.0651422199"><ele>49.48</ele><time>2026-08-11T20:31:20Z</time></trkpt><trkpt lat="59.6260054596" lon="31.0651603248"><ele>49.77</ele><time>2026-08-11T20:31:41Z</time></trkpt><trkpt lat="59.6260595229" lon="31.0652017314"><ele>49.21</ele><time>2026-08-11T20:32:07Z</time></trkpt><trkpt lat="59.6260887757" lon="31.0652573872"><ele>48.80</ele><time>2026-08-11T20:32:30Z</time></trkpt><trkpt lat="59.6261216328" lon="31.0652744863"><ele>48.41</ele><time>2026-08-11T20:32:55Z</time></trkpt><trkpt lat="59.6260906197" lon="31.0652635898"><ele>47.47</ele><time>2026-08-11T20:33:24Z</time></trkpt><trkpt lat="59.6261484548" lon="31.0652964469"><ele>47.86</ele><time>2026-08-11T20:34:02Z</time></trkpt><trkpt lat="59.6260846686" lon="31.0653228499"><ele>48.20</ele><time>2026-08-11T20:34:31Z</time></trkpt><trkpt lat="59.6261246502" lon="31.0652273800"><ele>47.80</ele><time>2026-08-11T20:35:05Z</time></trkpt><trkpt lat="59.6260861773" lon="31.0652447306"><ele>47.59</ele><time>2026-08-11T20:35:37Z</time></trkpt><trkpt lat="59.6261047013" lon="31.0652302299"><ele>48.69</ele><time>2026-08-11T20:36:04Z</time></trkpt><trkpt lat="59.6260977443" lon="31.0653032362"><ele>48.55</ele><time>2026-08-11T20:36:35Z</time></trkpt><trkpt lat="59.6261535678" lon="31.0653350037"><ele>48.92</ele><time>2026-08-11T20:37:01Z</time></trkpt><trkpt lat="59.6261899453" lon="31.0653546173"><ele>48.98</ele><time>2026-08-11T20:37:31Z</time></trkpt><trkpt lat="59.6262175217" lon="31.0654101893"><ele>47.99</ele><time>2026-08-11T20:37:59Z</time></trkpt><trkpt lat="59.6262342855" lon="31.0654773284"><ele>46.89</ele><time>2026-08-11T20:38:26Z</time></trkpt><trkpt lat="59.6262512170" lon="31.0655521788"><ele>46.62</ele><time>2026-08-11T20:38:48Z</time></trkpt><trkpt lat="59.6262639575" lon="31.0655483231"><ele>46.72</ele><time>2026-08-11T20:39:11Z</time></trkpt><trkpt lat="59.6262685675" lon="31.0656051524"><ele>46.18</ele><time>2026-08-11T20:39:25Z</time></trkpt><trkpt lat="59.6262289211" lon="31.0657028016"><ele>45.30</ele><time>2026-08-11T20:39:49Z</time></trkpt><trkpt lat="59.6261969022" lon="31.0657547694"><ele>45.44</ele><time>2026-08-11T20:40:15Z</time></trkpt><trkpt lat="59.6262341179" lon="31.0658766422"><ele>44.86</ele><time>2026-08-11T20:40:45Z</time></trkpt><trkpt lat="59.6262738481" lon="31.0659432784"><ele>45.81</ele><time>2026-08-11T20:41:11Z</time></trkpt><trkpt lat="59.6263165120" lon="31.0659991018"><ele>46.40</ele><time>2026-08-11T20:41:36Z</time></trkpt><trkpt lat="59.6263230499" lon="31.0660953261"><ele>46.06</ele><time>2026-08-11T20:42:00Z</time></trkpt><trkpt lat="59.6263817232" lon="31.0661501437"><ele>44.92</ele><time>2026-08-11T20:42:20Z</time></trkpt><trkpt lat="59.6264447551" lon="31.0661490541"><ele>45.02</ele><time>2026-08-11T20:42:46Z</time></trkpt><trkpt lat="59.6264699847" lon="31.0661426838"><ele>46.76</ele><time>2026-08-11T20:43:19Z</time></trkpt><trkpt lat="59.6265002433" lon="31.0661239922"><ele>47.83</ele><time>2026-08-11T20:43:38Z</time></trkpt><trkpt lat="59.6265092958" lon="31.0660882015"><ele>48.41</ele><time>2026-08-11T20:44:05Z</time></trkpt><trkpt lat="59.6264760196" lon="31.0661036242"><ele>51.33</ele><time>2026-08-11T20:44:34Z</time></trkpt><trkpt lat="59.6264975611" lon="31.0660559312"><ele>53.06</ele><time>2026-08-11T20:44:59Z</time></trkpt><trkpt lat="59.6264947951" lon="31.0660156980"><ele>52.29</ele><time>2026-08-11T20:45:31Z</time></trkpt><trkpt lat="59.6264352836" lon="31.0659449548"><ele>52.86</ele><time>2026-08-11T20:46:05Z</time></trkpt><trkpt lat="59.6265113913" lon="31.0660190508"><ele>53.16</ele><time>2026-08-11T20:46:33Z</time></trkpt><trkpt lat="59.6265344415" lon="31.0659379978"><ele>52.70</ele><time>2026-08-11T20:46:55Z</time></trkpt><trkpt lat="59.6265435778" lon="31.0658886284"><ele>52.86</ele><time>2026-08-11T20:47:20Z</time></trkpt><trkpt lat="59.6265374590" lon="31.0658129398"><ele>52.67</ele><time>2026-08-11T20:47:46Z</time></trkpt><trkpt lat="59.6265594196" lon="31.0657239240"><ele>52.51</ele><time>2026-08-11T20:48:09Z</time></trkpt><trkpt lat="59.6265899297" lon="31.0656478163"><ele>51.84</ele><time>2026-08-11T20:48:35Z</time></trkpt><trkpt lat="59.6265627723" lon="31.0656344052"><ele>52.01</ele><time>2026-08-11T20:48:57Z</time></trkpt><trkpt lat="59.6265561506" lon="31.0655527655"><ele>52.68</ele><time>2026-08-11T20:49:22Z</time></trkpt><trkpt lat="59.6266144887" lon="31.0655414499"><ele>53.12</ele><time>2026-08-11T20:49:49Z</time></trkpt><trkpt lat="59.6266442444" lon="31.0655448865"><ele>53.07</ele><time>2026-08-11T20:50:16Z</time></trkpt><trkpt lat="59.6266432386" lon="31.0655324813"><ele>52.82</ele><time>2026-08-11T20:50:40Z</time></trkpt><trkpt lat="59.6266140696" lon="31.0655655898"><ele>52.94</ele><time>2026-08-11T20:51:09Z</time></trkpt><trkpt lat="59.6266515367" lon="31.0655725468"><ele>53.93</ele><time>2026-08-11T20:51:39Z</time></trkpt><trkpt lat="59.6266492736" lon="31.0655848682"><ele>53.20</ele><time>2026-08-11T20:52:09Z</time></trkpt><trkpt lat="59.6266581584" lon="31.0655358341"><ele>52.41</ele><time>2026-08-11T20:52:42Z</time></trkpt><trkpt lat="59.6266966313" lon="31.0655217525"><ele>51.14</ele><time>2026-08-11T20:53:17Z</time></trkpt><trkpt lat="59.6266896743" lon="31.0655172262"><ele>52.60</ele><time>2026-08-11T20:53:50Z</time></trkpt><trkpt lat="59.6267410554" lon="31.0655054078"><ele>51.88</ele><time>2026-08-11T20:54:25Z</time></trkpt><trkpt lat="59.6266600862" lon="31.0655411147"><ele>49.78</ele><time>2026-08-11T20:54:58Z</time></trkpt><trkpt lat="59.6266720723" lon="31.0655401088"><ele>48.89</ele><time>2026-08-11T20:55:31Z</time></trkpt><trkpt lat="59.6266627684" lon="31.0655317269"><ele>49.49</ele><time>2026-08-11T20:55:59Z</time></trkpt><trkpt lat="59.6266166680" lon="31.0655660927"><ele>47.97</ele><time>2026-08-11T20:56:27Z</time></trkpt><trkpt lat="59.6266240440" lon="31.0656053200"><ele>46.11</ele><time>2026-08-11T20:56:59Z</time></trkpt><trkpt lat="59.6266204398" lon="31.0655545257"><ele>45.76</ele><time>2026-08-11T20:57:23Z</time></trkpt><trkpt lat="59.6266053524" lon="31.0654478241"><ele>46.23</ele><time>2026-08-11T20:57:52Z</time></trkpt><trkpt lat="59.6266195178" lon="31.0653358418"><ele>46.99</ele><time>2026-08-11T20:58:16Z</time></trkpt><trkpt lat="59.6266468428" lon="31.0652406234"><ele>47.02</ele><time>2026-08-11T20:58:42Z</time></trkpt><trkpt lat="59.6266586613" lon="31.0651523620"><ele>46.92</ele><time>2026-08-11T20:59:05Z</time></trkpt><trkpt lat="59.6266598348" lon="31.0650645196"><ele>47.66</ele><time>2026-08-11T20:59:31Z</time></trkpt><trkpt lat="59.6266884170" lon="31.0650001466"><ele>47.25</ele><time>2026-08-11T20:59:55Z</time></trkpt><trkpt lat="59.6266751736" lon="31.0649565607"><ele>48.32</ele><time>2026-08-11T21:00:21Z</time></trkpt><trkpt lat="59.6266675461" lon="31.0648639407"><ele>48.73</ele><time>2026-08-11T21:00:47Z</time></trkpt><trkpt lat="59.6266995650" lon="31.0648705624"><ele>48.52</ele><time>2026-08-11T21:01:13Z</time></trkpt><trkpt lat="59.6267020795" lon="31.0647687223"><ele>48.40</ele><time>2026-08-11T21:01:37Z</time></trkpt><trkpt lat="59.6267010737" lon="31.0646249726"><ele>49.08</ele><time>2026-08-11T21:02:04Z</time></trkpt><trkpt lat="59.6267030854" lon="31.0645338614"><ele>49.05</ele><time>2026-08-11T21:02:25Z</time></trkpt><trkpt lat="59.6267420612" lon="31.0644566640"><ele>48.94</ele><time>2026-08-11T21:02:54Z</time></trkpt><trkpt lat="59.6267570648" lon="31.0643545724"><ele>47.34</ele><time>2026-08-11T21:03:21Z</time></trkpt><trkpt lat="59.6267877426" lon="31.0642697476"><ele>44.93</ele><time>2026-08-11T21:03:44Z</time></trkpt><trkpt lat="59.6267811209" lon="31.0642149299"><ele>44.54</ele><time>2026-08-11T21:04:10Z</time></trkpt><trkpt lat="59.6267558075" lon="31.0640923027"><ele>44.84</ele><time>2026-08-11T21:04:31Z</time></trkpt><trkpt lat="59.6267275605" lon="31.0640317854"><ele>45.82</ele><time>2026-08-11T21:04:58Z</time></trkpt><trkpt lat="59.6266962122" lon="31.0639852658"><ele>48.62</ele><time>2026-08-11T21:05:29Z</time></trkpt><trkpt lat="59.6266891714" lon="31.0640271753"><ele>48.67</ele><time>2026-08-11T21:05:57Z</time></trkpt><trkpt lat="59.6267304942" lon="31.0639518220"><ele>48.58</ele><time>2026-08-11T21:06:22Z</time></trkpt><trkpt lat="59.6267081145" lon="31.0639040451"><ele>48.39</ele><time>2026-08-11T21:06:48Z</time></trkpt><trkpt lat="59.6267178375" lon="31.0638521612"><ele>48.53</ele><time>2026-08-11T21:07:10Z</time></trkpt><trkpt lat="59.6267204359" lon="31.0637985170"><ele>48.29</ele><time>2026-08-11T21:07:32Z</time></trkpt><trkpt lat="59.6267303266" lon="31.0637386702"><ele>48.11</ele><time>2026-08-11T21:07:57Z</time></trkpt><trkpt lat="59.6267094556" lon="31.0636905581"><ele>50.22</ele><time>2026-08-11T21:08:25Z</time></trkpt><trkpt lat="59.6267708112" lon="31.0636981856"><ele>50.34</ele><time>2026-08-11T21:08:59Z</time></trkpt><trkpt lat="59.6268685441" lon="31.0637800768"><ele>49.62</ele><time>2026-08-11T21:09:31Z</time></trkpt><trkpt lat="59.6268423088" lon="31.0637587868"><ele>49.31</ele><time>2026-08-11T21:10:06Z</time></trkpt><trkpt lat="59.6267857309" lon="31.0636996944"><ele>47.79</ele><time>2026-08-11T21:10:37Z</time></trkpt><trkpt lat="59.6267832164" lon="31.0637335572"><ele>46.75</ele><time>2026-08-11T21:11:01Z</time></trkpt><trkpt lat="59.6268183365" lon="31.0637884587"><ele>45.40</ele><time>2026-08-11T21:11:27Z</time></trkpt><trkpt lat="59.6268458292" lon="31.0638763849"><ele>44.40</ele><time>2026-08-11T21:11:55Z</time></trkpt><trkpt lat="59.6268472541" lon="31.0639330465"><ele>44.15</ele><time>2026-08-11T21:12:19Z</time></trkpt><trkpt lat="59.6268910915" lon="31.0638931487"><ele>43.52</ele><time>2026-08-11T21:12:43Z</time></trkpt><trkpt lat="59.6269418858" lon="31.0638484731"><ele>42.66</ele><time>2026-08-11T21:13:08Z</time></trkpt><trkpt lat="59.6270144731" lon="31.0638526641"><ele>42.21</ele><time>2026-08-11T21:13:36Z</time></trkpt><trkpt lat="59.6270702127" lon="31.0637881234"><ele>41.51</ele><time>2026-08-11T21:13:59Z</time></trkpt><trkpt lat="59.6270993818" lon="31.0638006125"><ele>41.51</ele><time>2026-08-11T21:14:22Z</time></trkpt><trkpt lat="59.6271461528" lon="31.0638068989"><ele>41.61</ele><time>2026-08-11T21:14:46Z</time></trkpt><trkpt lat="59.6271688677" lon="31.0638540052"><ele>42.89</ele><time>2026-08-11T21:15:13Z</time></trkpt><trkpt lat="59.6272023115" lon="31.0637857765"><ele>43.27</ele><time>2026-08-11T21:15:40Z</time></trkpt><trkpt lat="59.6272262838" lon="31.0637818370"><ele>42.97</ele><time>2026-08-11T21:16:03Z</time></trkpt><trkpt lat="59.6272812691" lon="31.0637524165"><ele>42.04</ele><time>2026-08-11T21:16:28Z</time></trkpt><trkpt lat="59.6273268666" lon="31.0637699347"><ele>42.94</ele><time>2026-08-11T21:16:54Z</time></trkpt><trkpt lat="59.6273702011" lon="31.0637719464"><ele>43.28</ele><time>2026-08-11T21:17:12Z</time></trkpt><trkpt lat="59.6274181455" lon="31.0638091620"><ele>43.15</ele><time>2026-08-11T21:17:33Z</time></trkpt><trkpt lat="59.6274587978" lon="31.0638234951"><ele>42.95</ele><time>2026-08-11T21:17:55Z</time></trkpt><trkpt lat="59.6274904814" lon="31.0638043843"><ele>41.85</ele><time>2026-08-11T21:18:16Z</time></trkpt><trkpt lat="59.6275211591" lon="31.0637739580"><ele>41.41</ele><time>2026-08-11T21:18:38Z</time></trkpt><trkpt lat="59.6275357436" lon="31.0637630615"><ele>41.38</ele><time>2026-08-11T21:19:09Z</time></trkpt><trkpt lat="59.6275398508" lon="31.0638156999"><ele>41.36</ele><time>2026-08-11T21:19:39Z</time></trkpt><trkpt lat="59.6275401022" lon="31.0638071503"><ele>40.20</ele><time>2026-08-11T21:20:14Z</time></trkpt><trkpt lat="59.6275398508" lon="31.0637991875"><ele>43.10</ele><time>2026-08-11T21:20:53Z</time></trkpt><trkpt lat="59.6275701094" lon="31.0638165381"><ele>42.63</ele><time>2026-08-11T21:21:17Z</time></trkpt><trkpt lat="59.6275975183" lon="31.0637805797"><ele>42.36</ele><time>2026-08-11T21:21:39Z</time></trkpt><trkpt lat="59.6276182216" lon="31.0637782328"><ele>41.84</ele><time>2026-08-11T21:22:01Z</time></trkpt><trkpt lat="59.6276538447" lon="31.0637778137"><ele>41.67</ele><time>2026-08-11T21:22:22Z</time></trkpt><trkpt lat="59.6276918147" lon="31.0637770593"><ele>41.44</ele><time>2026-08-11T21:22:48Z</time></trkpt><trkpt lat="59.6277035493" lon="31.0637530033"><ele>41.36</ele><time>2026-08-11T21:23:14Z</time></trkpt><trkpt lat="59.6277075727" lon="31.0637908895"><ele>40.29</ele><time>2026-08-11T21:23:46Z</time></trkpt><trkpt lat="59.6277296171" lon="31.0637929011"><ele>41.01</ele><time>2026-08-11T21:24:12Z</time></trkpt><trkpt lat="59.6277496498" lon="31.0638072342"><ele>41.08</ele><time>2026-08-11T21:24:33Z</time></trkpt><trkpt lat="59.6277669165" lon="31.0637916438"><ele>41.46</ele><time>2026-08-11T21:24:56Z</time></trkpt><trkpt lat="59.6277604625" lon="31.0637893807"><ele>42.29</ele><time>2026-08-11T21:25:23Z</time></trkpt><trkpt lat="59.6277754661" lon="31.0638176277"><ele>42.22</ele><time>2026-08-11T21:25:51Z</time></trkpt><trkpt lat="59.6278363187" lon="31.0638192203"><ele>42.41</ele><time>2026-08-11T21:26:19Z</time></trkpt><trkpt lat="59.6278296132" lon="31.0638378281"><ele>42.45</ele><time>2026-08-11T21:26:46Z</time></trkpt><trkpt lat="59.6278384980" lon="31.0638482217"><ele>42.31</ele><time>2026-08-11T21:27:09Z</time></trkpt><trkpt lat="59.6278597880" lon="31.0638887063"><ele>42.03</ele><time>2026-08-11T21:27:33Z</time></trkpt><trkpt lat="59.6278671641" lon="31.0639457870"><ele>41.63</ele><time>2026-08-11T21:28:00Z</time></trkpt><trkpt lat="59.6278954111" lon="31.0640160274"><ele>42.04</ele><time>2026-08-11T21:28:22Z</time></trkpt><trkpt lat="59.6279230714" lon="31.0640245769"><ele>41.74</ele><time>2026-08-11T21:28:45Z</time></trkpt><trkpt lat="59.6279540006" lon="31.0639613774"><ele>41.45</ele><time>2026-08-11T21:29:09Z</time></trkpt><trkpt lat="59.6279591136" lon="31.0639326274"><ele>41.54</ele><time>2026-08-11T21:29:31Z</time></trkpt><trkpt lat="59.6279770508" lon="31.0639187135"><ele>41.12</ele><time>2026-08-11T21:29:54Z</time></trkpt><trkpt lat="59.6280328743" lon="31.0638959147"><ele>40.62</ele><time>2026-08-11T21:30:16Z</time></trkpt><trkpt lat="59.6280666534" lon="31.0638399236"><ele>40.59</ele><time>2026-08-11T21:30:41Z</time></trkpt><trkpt lat="59.6281357203" lon="31.0638662428"><ele>41.20</ele><time>2026-08-11T21:31:05Z</time></trkpt><trkpt lat="59.6281557530" lon="31.0638899636"><ele>41.91</ele><time>2026-08-11T21:31:29Z</time></trkpt><trkpt lat="59.6282039490" lon="31.0638980940"><ele>42.52</ele><time>2026-08-11T21:31:51Z</time></trkpt><trkpt lat="59.6282335371" lon="31.0639156122"><ele>43.85</ele><time>2026-08-11T21:32:19Z</time></trkpt><trkpt lat="59.6282609459" lon="31.0639038775"><ele>43.00</ele><time>2026-08-11T21:32:41Z</time></trkpt><trkpt lat="59.6283260733" lon="31.0639341362"><ele>42.61</ele><time>2026-08-11T21:33:04Z</time></trkpt><trkpt lat="59.6283745207" lon="31.0638816655"><ele>42.88</ele><time>2026-08-11T21:33:29Z</time></trkpt><trkpt lat="59.6284064557" lon="31.0638992675"><ele>42.46</ele><time>2026-08-11T21:33:56Z</time></trkpt><trkpt lat="59.6284712479" lon="31.0639575217"><ele>42.28</ele><time>2026-08-11T21:34:20Z</time></trkpt><trkpt lat="59.6285206173" lon="31.0639348906"><ele>41.86</ele><time>2026-08-11T21:34:39Z</time></trkpt><trkpt lat="59.6285768598" lon="31.0639729444"><ele>41.62</ele><time>2026-08-11T21:35:04Z</time></trkpt><trkpt lat="59.6286481060" lon="31.0639635567"><ele>41.98</ele><time>2026-08-11T21:35:30Z</time></trkpt><trkpt lat="59.6286709886" lon="31.0639956594"><ele>44.00</ele><time>2026-08-11T21:35:58Z</time></trkpt><trkpt lat="59.6286511235" lon="31.0640046280"><ele>43.07</ele><time>2026-08-11T21:36:29Z</time></trkpt><trkpt lat="59.6286771074" lon="31.0639869422"><ele>43.07</ele><time>2026-08-11T21:37:01Z</time></trkpt><trkpt lat="59.6286736708" lon="31.0639994312"><ele>43.85</ele><time>2026-08-11T21:37:25Z</time></trkpt><trkpt lat="59.6287093777" lon="31.0639918875"><ele>44.14</ele><time>2026-08-11T21:37:52Z</time></trkpt><trkpt lat="59.6287775226" lon="31.0639845114"><ele>43.67</ele><time>2026-08-11T21:38:17Z</time></trkpt><trkpt lat="59.6288005728" lon="31.0639654845"><ele>43.72</ele><time>2026-08-11T21:38:39Z</time></trkpt><trkpt lat="59.6288057696" lon="31.0640294384"><ele>43.34</ele><time>2026-08-11T21:39:06Z</time></trkpt><trkpt lat="59.6288051829" lon="31.0640399996"><ele>42.08</ele><time>2026-08-11T21:39:37Z</time></trkpt><trkpt lat="59.6288228687" lon="31.0639959108"><ele>42.50</ele><time>2026-08-11T21:40:02Z</time></trkpt><trkpt lat="59.6287971362" lon="31.0640028678"><ele>43.33</ele><time>2026-08-11T21:40:33Z</time></trkpt><trkpt lat="59.6288092900" lon="31.0640618764"><ele>43.47</ele><time>2026-08-11T21:41:00Z</time></trkpt><trkpt lat="59.6288148221" lon="31.0640449449"><ele>45.43</ele><time>2026-08-11T21:41:29Z</time></trkpt><trkpt lat="59.6288071107" lon="31.0640126746"><ele>44.62</ele><time>2026-08-11T21:41:58Z</time></trkpt><trkpt lat="59.6288070269" lon="31.0640315339"><ele>43.85</ele><time>2026-08-11T21:42:28Z</time></trkpt><trkpt lat="59.6288465057" lon="31.0640314501"><ele>44.49</ele><time>2026-08-11T21:42:57Z</time></trkpt><trkpt lat="59.6288373694" lon="31.0640488006"><ele>45.24</ele><time>2026-08-11T21:43:25Z</time></trkpt><trkpt lat="59.6288327593" lon="31.0640692525"><ele>45.15</ele><time>2026-08-11T21:43:53Z</time></trkpt><trkpt lat="59.6288474277" lon="31.0640577693"><ele>44.91</ele><time>2026-08-11T21:44:26Z</time></trkpt><trkpt lat="59.6288522892" lon="31.0640415084"><ele>43.80</ele><time>2026-08-11T21:44:56Z</time></trkpt><trkpt lat="59.6288987249" lon="31.0640282650"><ele>44.63</ele><time>2026-08-11T21:45:26Z</time></trkpt><trkpt lat="59.6288660355" lon="31.0640421789"><ele>45.46</ele><time>2026-08-11T21:45:52Z</time></trkpt><trkpt lat="59.6289066039" lon="31.0639030393"><ele>45.62</ele><time>2026-08-11T21:46:15Z</time></trkpt><trkpt lat="59.6289324202" lon="31.0639232397"><ele>45.72</ele><time>2026-08-11T21:46:39Z</time></trkpt><trkpt lat="59.6289768443" lon="31.0638945736"><ele>44.70</ele><time>2026-08-11T21:47:05Z</time></trkpt><trkpt lat="59.6290080249" lon="31.0638634767"><ele>43.61</ele><time>2026-08-11T21:47:23Z</time></trkpt><trkpt lat="59.6290623397" lon="31.0638602916"><ele>42.84</ele><time>2026-08-11T21:47:49Z</time></trkpt><trkpt lat="59.6291433927" lon="31.0639176238"><ele>42.47</ele><time>2026-08-11T21:48:12Z</time></trkpt><trkpt lat="59.6292677801" lon="31.0639113374"><ele>41.83</ele><time>2026-08-11T21:48:36Z</time></trkpt><trkpt lat="59.6293235198" lon="31.0637887940"><ele>41.63</ele><time>2026-08-11T21:48:57Z</time></trkpt><trkpt lat="59.6293491684" lon="31.0637493152"><ele>42.12</ele><time>2026-08-11T21:49:19Z</time></trkpt><trkpt lat="59.6293800138" lon="31.0638643149"><ele>42.13</ele><time>2026-08-11T21:49:42Z</time></trkpt><trkpt lat="59.6294199117" lon="31.0639881995"><ele>41.84</ele><time>2026-08-11T21:49:58Z</time></trkpt><trkpt lat="59.6294811834" lon="31.0639984254"><ele>41.77</ele><time>2026-08-11T21:50:18Z</time></trkpt><trkpt lat="59.6295544412" lon="31.0639071465"><ele>42.09</ele><time>2026-08-11T21:50:37Z</time></trkpt><trkpt lat="59.6295666788" lon="31.0638586991"><ele>42.83</ele><time>2026-08-11T21:51:04Z</time></trkpt><trkpt lat="59.6295821015" lon="31.0638956632"><ele>44.27</ele><time>2026-08-11T21:51:33Z</time></trkpt><trkpt lat="59.6296365838" lon="31.0639464576"><ele>44.23</ele><time>2026-08-11T21:51:58Z</time></trkpt><trkpt lat="59.6295714565" lon="31.0637914762"><ele>44.92</ele><time>2026-08-11T21:52:33Z</time></trkpt><trkpt lat="59.6295313071" lon="31.0638291109"><ele>46.08</ele><time>2026-08-11T21:53:08Z</time></trkpt><trkpt lat="59.6294746455" lon="31.0638120119"><ele>46.76</ele><time>2026-08-11T21:53:28Z</time></trkpt><trkpt lat="59.6295336541" lon="31.0638397560"><ele>47.60</ele><time>2026-08-11T21:53:54Z</time></trkpt><trkpt lat="59.6295272000" lon="31.0637968406"><ele>47.35</ele><time>2026-08-11T21:54:21Z</time></trkpt><trkpt lat="59.6294944268" lon="31.0638385825"><ele>46.64</ele><time>2026-08-11T21:54:53Z</time></trkpt><trkpt lat="59.6295600571" lon="31.0637678392"><ele>46.88</ele><time>2026-08-11T21:55:21Z</time></trkpt><trkpt lat="59.6295959316" lon="31.0636693519"><ele>46.44</ele><time>2026-08-11T21:55:45Z</time></trkpt><trkpt lat="59.6296002064" lon="31.0635315534"><ele>44.39</ele><time>2026-08-11T21:56:13Z</time></trkpt><trkpt lat="59.6295720432" lon="31.0634171404"><ele>44.12</ele><time>2026-08-11T21:56:40Z</time></trkpt><trkpt lat="59.6295713726" lon="31.0632966924"><ele>44.86</ele><time>2026-08-11T21:57:08Z</time></trkpt><trkpt lat="59.6296029724" lon="31.0632448923"><ele>44.32</ele><time>2026-08-11T21:57:33Z</time></trkpt><trkpt lat="59.6296406072" lon="31.0631940980"><ele>43.68</ele><time>2026-08-11T21:57:56Z</time></trkpt><trkpt lat="59.6297339816" lon="31.0631715506"><ele>42.72</ele><time>2026-08-11T21:58:14Z</time></trkpt><trkpt lat="59.6297736280" lon="31.0630622506"><ele>42.14</ele><time>2026-08-11T21:58:36Z</time></trkpt><trkpt lat="59.6298011206" lon="31.0629553813"><ele>42.24</ele><time>2026-08-11T21:58:59Z</time></trkpt><trkpt lat="59.6297837701" lon="31.0628585704"><ele>41.71</ele><time>2026-08-11T21:59:20Z</time></trkpt><trkpt lat="59.6297159605" lon="31.0627327580"><ele>42.71</ele><time>2026-08-11T21:59:49Z</time></trkpt><trkpt lat="59.6297364961" lon="31.0627006553"><ele>42.12</ele><time>2026-08-11T22:00:29Z</time></trkpt><trkpt lat="59.6297374181" lon="31.0627693869"><ele>42.67</ele><time>2026-08-11T22:01:03Z</time></trkpt><trkpt lat="59.6296885516" lon="31.0627548862"><ele>41.21</ele><time>2026-08-11T22:01:38Z</time></trkpt><trkpt lat="59.6297066566" lon="31.0627817921"><ele>41.10</ele><time>2026-08-11T22:02:07Z</time></trkpt><trkpt lat="59.6297230851" lon="31.0628640186"><ele>42.29</ele><time>2026-08-11T22:02:34Z</time></trkpt><trkpt lat="59.6297338139" lon="31.0629133042"><ele>41.48</ele><time>2026-08-11T22:02:56Z</time></trkpt><trkpt lat="59.6298830118" lon="31.0629006475"><ele>42.19</ele><time>2026-08-11T22:03:16Z</time></trkpt><trkpt lat="59.6299300343" lon="31.0628888290"><ele>43.09</ele><time>2026-08-11T22:03:34Z</time></trkpt><trkpt lat="59.6299459599" lon="31.0628874041"><ele>43.33</ele><time>2026-08-11T22:03:56Z</time></trkpt><trkpt lat="59.6299626399" lon="31.0628827941"><ele>42.35</ele><time>2026-08-11T22:04:26Z</time></trkpt><trkpt lat="59.6300094947" lon="31.0628092010"><ele>42.61</ele><time>2026-08-11T22:04:39Z</time></trkpt><trkpt lat="59.6301351395" lon="31.0627330095"><ele>42.64</ele><time>2026-08-11T22:04:58Z</time></trkpt><trkpt lat="59.6302466188" lon="31.0626819637"><ele>42.98</ele><time>2026-08-11T22:05:14Z</time></trkpt><trkpt lat="59.6303138416" lon="31.0626715701"><ele>42.86</ele><time>2026-08-11T22:05:30Z</time></trkpt><trkpt lat="59.6303533204" lon="31.0626595840"><ele>42.93</ele><time>2026-08-11T22:05:40Z</time></trkpt><trkpt lat="59.6304696612" lon="31.0626638588"><ele>42.42</ele><time>2026-08-11T22:05:59Z</time></trkpt><trkpt lat="59.6305207070" lon="31.0625711549"><ele>42.22</ele><time>2026-08-11T22:06:17Z</time></trkpt><trkpt lat="59.6305678133" lon="31.0624546465"><ele>42.09</ele><time>2026-08-11T22:06:44Z</time></trkpt><trkpt lat="59.6306408197" lon="31.0623418260"><ele>42.53</ele><time>2026-08-11T22:07:24Z</time></trkpt><trkpt lat="59.6307219565" lon="31.0623306781"><ele>41.81</ele><time>2026-08-11T22:07:56Z</time></trkpt><trkpt lat="59.6306468546" lon="31.0623651277"><ele>44.28</ele><time>2026-08-11T22:08:33Z</time></trkpt><trkpt lat="59.6307206154" lon="31.0623578355"><ele>44.41</ele><time>2026-08-11T22:08:53Z</time></trkpt><trkpt lat="59.6307659615" lon="31.0623466875"><ele>43.87</ele><time>2026-08-11T22:09:13Z</time></trkpt><trkpt lat="59.6308345255" lon="31.0623546503"><ele>43.54</ele><time>2026-08-11T22:09:28Z</time></trkpt><trkpt lat="59.6308719926" lon="31.0624813009"><ele>44.07</ele><time>2026-08-11T22:09:45Z</time></trkpt><trkpt lat="59.6308446676" lon="31.0627062712"><ele>44.95</ele><time>2026-08-11T22:10:10Z</time></trkpt><trkpt lat="59.6308928635" lon="31.0627113003"><ele>44.87</ele><time>2026-08-11T22:10:33Z</time></trkpt><trkpt lat="59.6309074480" lon="31.0625767708"><ele>45.97</ele><time>2026-08-11T22:11:05Z</time></trkpt><trkpt lat="59.6308812127" lon="31.0626395512"><ele>46.11</ele><time>2026-08-11T22:11:37Z</time></trkpt><trkpt lat="59.6308097988" lon="31.0627645254"><ele>45.35</ele><time>2026-08-11T22:12:07Z</time></trkpt><trkpt lat="59.6308195218" lon="31.0627461690"><ele>45.93</ele><time>2026-08-11T22:12:35Z</time></trkpt><trkpt lat="59.6308128163" lon="31.0627135634"><ele>45.97</ele><time>2026-08-11T22:13:16Z</time></trkpt><trkpt lat="59.6309438255" lon="31.0627708957"><ele>44.01</ele><time>2026-08-11T22:14:10Z</time></trkpt><trkpt lat="59.6308175102" lon="31.0628040042"><ele>44.61</ele><time>2026-08-11T22:15:17Z</time></trkpt><trkpt lat="59.6309313364" lon="31.0627308302"><ele>44.46</ele><time>2026-08-11T22:16:00Z</time></trkpt><trkpt lat="59.6310004033" lon="31.0627921857"><ele>45.91</ele><time>2026-08-11T22:16:31Z</time></trkpt><trkpt lat="59.6309646126" lon="31.0628366098"><ele>46.83</ele><time>2026-08-11T22:16:57Z</time></trkpt><trkpt lat="59.6309474297" lon="31.0628317483"><ele>47.40</ele><time>2026-08-11T22:17:28Z</time></trkpt><trkpt lat="59.6308465954" lon="31.0628242884"><ele>47.33</ele><time>2026-08-11T22:17:59Z</time></trkpt><trkpt lat="59.6308192704" lon="31.0627269745"><ele>46.79</ele><time>2026-08-11T22:18:29Z</time></trkpt><trkpt lat="59.6308454219" lon="31.0627194308"><ele>47.79</ele><time>2026-08-11T22:18:56Z</time></trkpt><trkpt lat="59.6308725793" lon="31.0626622662"><ele>48.16</ele><time>2026-08-11T22:19:20Z</time></trkpt><trkpt lat="59.6308902651" lon="31.0626532976"><ele>48.01</ele><time>2026-08-11T22:20:04Z</time></trkpt><trkpt lat="59.6309183445" lon="31.0626856517"><ele>48.67</ele><time>2026-08-11T22:20:51Z</time></trkpt><trkpt lat="59.6308650356" lon="31.0626455024"><ele>46.96</ele><time>2026-08-11T22:21:45Z</time></trkpt><trkpt lat="59.6308705676" lon="31.0626025870"><ele>46.31</ele><time>2026-08-11T22:22:12Z</time></trkpt><trkpt lat="59.6308630239" lon="31.0625439137"><ele>43.98</ele><time>2026-08-11T22:22:40Z</time></trkpt><trkpt lat="59.6309044305" lon="31.0625920258"><ele>41.65</ele><time>2026-08-11T22:23:07Z</time></trkpt><trkpt lat="59.6308963001" lon="31.0625574086"><ele>41.75</ele><time>2026-08-11T22:23:39Z</time></trkpt><trkpt lat="59.6308994014" lon="31.0625795368"><ele>42.98</ele><time>2026-08-11T22:24:07Z</time></trkpt><trkpt lat="59.6308957133" lon="31.0627052654"><ele>42.32</ele><time>2026-08-11T22:24:34Z</time></trkpt><trkpt lat="59.6309361141" lon="31.0627463367"><ele>41.91</ele><time>2026-08-11T22:24:55Z</time></trkpt><trkpt lat="59.6309289057" lon="31.0627982207"><ele>42.07</ele><time>2026-08-11T22:25:13Z</time></trkpt><trkpt lat="59.6309907641" lon="31.0628231149"><ele>42.48</ele><time>2026-08-11T22:25:32Z</time></trkpt><trkpt lat="59.6310667042" lon="31.0628408007"><ele>41.25</ele><time>2026-08-11T22:25:51Z</time></trkpt><trkpt lat="59.6311704721" lon="31.0627586581"><ele>41.32</ele><time>2026-08-11T22:26:11Z</time></trkpt><trkpt lat="59.6312117949" lon="31.0627302434"><ele>40.75</ele><time>2026-08-11T22:26:35Z</time></trkpt><trkpt lat="59.6312444843" lon="31.0626313370"><ele>40.61</ele><time>2026-08-11T22:26:49Z</time></trkpt><trkpt lat="59.6312953625" lon="31.0625351965"><ele>39.66</ele><time>2026-08-11T22:27:08Z</time></trkpt><trkpt lat="59.6313594840" lon="31.0624999925"><ele>38.63</ele><time>2026-08-11T22:27:23Z</time></trkpt><trkpt lat="59.6314143855" lon="31.0625645332"><ele>38.24</ele><time>2026-08-11T22:27:41Z</time></trkpt><trkpt lat="59.6314160619" lon="31.0625485238"><ele>38.97</ele><time>2026-08-11T22:27:53Z</time></trkpt><trkpt lat="59.6314160619" lon="31.0625505354"><ele>40.41</ele><time>2026-08-11T22:28:24Z</time></trkpt><trkpt lat="59.6314575523" lon="31.0625527147"><ele>39.73</ele><time>2026-08-11T22:28:52Z</time></trkpt><trkpt lat="59.6314894874" lon="31.0626457538"><ele>37.77</ele><time>2026-08-11T22:29:27Z</time></trkpt><trkpt lat="59.6315340791" lon="31.0626791138"><ele>35.58</ele><time>2026-08-11T22:30:00Z</time></trkpt><trkpt lat="59.6314352565" lon="31.0625916906"><ele>36.13</ele><time>2026-08-11T22:30:37Z</time></trkpt><trkpt lat="59.6314849611" lon="31.0625839792"><ele>35.46</ele><time>2026-08-11T22:30:59Z</time></trkpt><trkpt lat="59.6315650083" lon="31.0625786986"><ele>35.38</ele><time>2026-08-11T22:31:19Z</time></trkpt><trkpt lat="59.6316299681" lon="31.0625481047"><ele>35.73</ele><time>2026-08-11T22:31:42Z</time></trkpt><trkpt lat="59.6317137871" lon="31.0626574885"><ele>35.52</ele><time>2026-08-11T22:32:04Z</time></trkpt><trkpt lat="59.6317966841" lon="31.0626988113"><ele>35.78</ele><time>2026-08-11T22:32:28Z</time></trkpt><trkpt lat="59.6318368334" lon="31.0626668762"><ele>35.38</ele><time>2026-08-11T22:32:46Z</time></trkpt><trkpt lat="59.6318872087" lon="31.0625153314"><ele>35.80</ele><time>2026-08-11T22:33:03Z</time></trkpt><trkpt lat="59.6319281124" lon="31.0624211188"><ele>35.70</ele><time>2026-08-11T22:33:13Z</time></trkpt><trkpt lat="59.6319652442" lon="31.0624097195"><ele>35.57</ele><time>2026-08-11T22:33:32Z</time></trkpt><trkpt lat="59.6320224926" lon="31.0623792931"><ele>35.87</ele><time>2026-08-11T22:33:54Z</time></trkpt><trkpt lat="59.6320679225" lon="31.0623936262"><ele>36.69</ele><time>2026-08-11T22:34:23Z</time></trkpt><trkpt lat="59.6321334690" lon="31.0624359548"><ele>36.13</ele><time>2026-08-11T22:34:45Z</time></trkpt><trkpt lat="59.6321809106" lon="31.0623889323"><ele>35.66</ele><time>2026-08-11T22:35:04Z</time></trkpt><trkpt lat="59.6322432719" lon="31.0623814724"><ele>35.43</ele><time>2026-08-11T22:35:22Z</time></trkpt><trkpt lat="59.6322484687" lon="31.0623775329"><ele>35.36</ele><time>2026-08-11T22:35:26Z</time></trkpt><trkpt lat="59.6323419269" lon="31.0623765271"><ele>36.40</ele><time>2026-08-11T22:36:04Z</time></trkpt><trkpt lat="59.6322928090" lon="31.0624105576"><ele>37.42</ele><time>2026-08-11T22:37:00Z</time></trkpt><trkpt lat="59.6323370654" lon="31.0623946320"><ele>38.02</ele><time>2026-08-11T22:37:35Z</time></trkpt><trkpt lat="59.6323378198" lon="31.0624049418"><ele>39.95</ele><time>2026-08-11T22:38:06Z</time></trkpt><trkpt lat="59.6323892847" lon="31.0623703245"><ele>39.41</ele><time>2026-08-11T22:38:21Z</time></trkpt><trkpt lat="59.6324521489" lon="31.0623127408"><ele>38.62</ele><time>2026-08-11T22:38:45Z</time></trkpt><trkpt lat="59.6324990038" lon="31.0623191111"><ele>38.04</ele><time>2026-08-11T22:39:02Z</time></trkpt><trkpt lat="59.6325306036" lon="31.0624271538"><ele>38.07</ele><time>2026-08-11T22:39:21Z</time></trkpt><trkpt lat="59.6325412486" lon="31.0625530500"><ele>37.22</ele><time>2026-08-11T22:39:42Z</time></trkpt><trkpt lat="59.6326166857" lon="31.0626365338"><ele>38.12</ele><time>2026-08-11T22:40:01Z</time></trkpt><trkpt lat="59.6326838247" lon="31.0625842307"><ele>37.73</ele><time>2026-08-11T22:40:17Z</time></trkpt><trkpt lat="59.6327471081" lon="31.0625211988"><ele>38.22</ele><time>2026-08-11T22:40:37Z</time></trkpt><trkpt lat="59.6328310948" lon="31.0625225399"><ele>37.60</ele><time>2026-08-11T22:40:58Z</time></trkpt><trkpt lat="59.6328730881" lon="31.0624926165"><ele>37.51</ele><time>2026-08-11T22:41:17Z</time></trkpt><trkpt lat="59.6329476871" lon="31.0625262279"><ele>36.66</ele><time>2026-08-11T22:41:36Z</time></trkpt><trkpt lat="59.6329982299" lon="31.0626008268"><ele>35.93</ele><time>2026-08-11T22:41:57Z</time></trkpt><trkpt lat="59.6330135688" lon="31.0626447480"><ele>35.74</ele><time>2026-08-11T22:42:19Z</time></trkpt><trkpt lat="59.6330635250" lon="31.0626392998"><ele>35.21</ele><time>2026-08-11T22:42:40Z</time></trkpt><trkpt lat="59.6331085358" lon="31.0626392160"><ele>35.85</ele><time>2026-08-11T22:42:57Z</time></trkpt><trkpt lat="59.6331355255" lon="31.0626715701"><ele>35.63</ele><time>2026-08-11T22:43:08Z</time></trkpt><trkpt lat="59.6331841405" lon="31.0626594163"><ele>35.39</ele><time>2026-08-11T22:43:35Z</time></trkpt><trkpt lat="59.6332127228" lon="31.0626375396"><ele>35.54</ele><time>2026-08-11T22:44:06Z</time></trkpt><trkpt lat="59.6331460029" lon="31.0626339354"><ele>36.10</ele><time>2026-08-11T22:44:35Z</time></trkpt><trkpt lat="59.6331805363" lon="31.0626358632"><ele>35.36</ele><time>2026-08-11T22:45:05Z</time></trkpt><trkpt lat="59.6331803687" lon="31.0626649484"><ele>35.72</ele><time>2026-08-11T22:45:33Z</time></trkpt><trkpt lat="59.6331979707" lon="31.0627047624"><ele>36.83</ele><time>2026-08-11T22:46:03Z</time></trkpt><trkpt lat="59.6332160756" lon="31.0626284871"><ele>36.82</ele><time>2026-08-11T22:46:34Z</time></trkpt><trkpt lat="59.6332754195" lon="31.0625444166"><ele>36.95</ele><time>2026-08-11T22:46:57Z</time></trkpt><trkpt lat="59.6333143115" lon="31.0625286587"><ele>36.34</ele><time>2026-08-11T22:47:10Z</time></trkpt><trkpt lat="59.6333833784" lon="31.0625281557"><ele>35.98</ele><time>2026-08-11T22:47:32Z</time></trkpt><trkpt lat="59.6333972923" lon="31.0625296645"><ele>35.95</ele><time>2026-08-11T22:47:34Z</time></trkpt><trkpt lat="59.6334827039" lon="31.0625672992"><ele>35.42</ele><time>2026-08-11T22:47:50Z</time></trkpt><trkpt lat="59.6335359290" lon="31.0625365376"><ele>35.12</ele><time>2026-08-11T22:48:07Z</time></trkpt><trkpt lat="59.6335981227" lon="31.0624702368"><ele>35.84</ele><time>2026-08-11T22:48:26Z</time></trkpt><trkpt lat="59.6336679440" lon="31.0624841508"><ele>35.33</ele><time>2026-08-11T22:48:44Z</time></trkpt><trkpt lat="59.6337500867" lon="31.0625271499"><ele>35.16</ele><time>2026-08-11T22:49:03Z</time></trkpt><trkpt lat="59.6338009648" lon="31.0625858232"><ele>35.03</ele><time>2026-08-11T22:49:25Z</time></trkpt><trkpt lat="59.6338479873" lon="31.0625978094"><ele>35.18</ele><time>2026-08-11T22:49:47Z</time></trkpt><trkpt lat="59.6339212451" lon="31.0626135673"><ele>35.76</ele><time>2026-08-11T22:50:07Z</time></trkpt><trkpt lat="59.6339903120" lon="31.0625493620"><ele>35.85</ele><time>2026-08-11T22:50:26Z</time></trkpt><trkpt lat="59.6340483986" lon="31.0625167564"><ele>33.79</ele><time>2026-08-11T22:50:47Z</time></trkpt><trkpt lat="59.6339927427" lon="31.0624380503"><ele>33.09</ele><time>2026-08-11T22:51:22Z</time></trkpt><trkpt lat="59.6340163797" lon="31.0624619387"><ele>33.82</ele><time>2026-08-11T22:51:53Z</time></trkpt><trkpt lat="59.6340660844" lon="31.0624032654"><ele>32.62</ele><time>2026-08-11T22:52:27Z</time></trkpt><trkpt lat="59.6341469698" lon="31.0624947958"><ele>33.11</ele><time>2026-08-11T22:52:57Z</time></trkpt><trkpt lat="59.6341574471" lon="31.0624848213"><ele>33.66</ele><time>2026-08-11T22:53:27Z</time></trkpt><trkpt lat="59.6342699323" lon="31.0623951349"><ele>35.10</ele><time>2026-08-11T22:53:55Z</time></trkpt><trkpt lat="59.6343172900" lon="31.0624561552"><ele>35.06</ele><time>2026-08-11T22:54:14Z</time></trkpt><trkpt lat="59.6343853511" lon="31.0624135751"><ele>34.51</ele><time>2026-08-11T22:54:33Z</time></trkpt><trkpt lat="59.6344645601" lon="31.0623243917"><ele>34.77</ele><time>2026-08-11T22:54:48Z</time></trkpt><trkpt lat="59.6345652267" lon="31.0623488668"><ele>35.94</ele><time>2026-08-11T22:55:06Z</time></trkpt><trkpt lat="59.6345737763" lon="31.0623494536"><ele>35.93</ele><time>2026-08-11T22:55:08Z</time></trkpt><trkpt lat="59.6346394904" lon="31.0623849090"><ele>35.64</ele><time>2026-08-11T22:55:25Z</time></trkpt><trkpt lat="59.6347581781" lon="31.0623941291"><ele>34.62</ele><time>2026-08-11T22:55:45Z</time></trkpt><trkpt lat="59.6347963996" lon="31.0623782035"><ele>34.22</ele><time>2026-08-11T22:56:02Z</time></trkpt><trkpt lat="59.6348622814" lon="31.0624432471"><ele>34.23</ele><time>2026-08-11T22:56:20Z</time></trkpt><trkpt lat="59.6349360421" lon="31.0624226276"><ele>34.36</ele><time>2026-08-11T22:56:48Z</time></trkpt><trkpt lat="59.6349190269" lon="31.0624333564"><ele>34.02</ele><time>2026-08-11T22:57:18Z</time></trkpt><trkpt lat="59.6349717490" lon="31.0623764433"><ele>34.61</ele><time>2026-08-11T22:57:47Z</time></trkpt><trkpt lat="59.6349353716" lon="31.0625117272"><ele>32.67</ele><time>2026-08-11T22:58:15Z</time></trkpt><trkpt lat="59.6349518001" lon="31.0625034291"><ele>34.86</ele><time>2026-08-11T22:58:48Z</time></trkpt><trkpt lat="59.6349652950" lon="31.0623949673"><ele>33.53</ele><time>2026-08-11T22:59:20Z</time></trkpt><trkpt lat="59.6349554043" lon="31.0623916145"><ele>31.96</ele><time>2026-08-11T22:59:54Z</time></trkpt><trkpt lat="59.6349396463" lon="31.0624273214"><ele>30.33</ele><time>2026-08-11T23:00:46Z</time></trkpt><trkpt lat="59.6349834837" lon="31.0624406487"><ele>30.47</ele><time>2026-08-11T23:00:59Z</time></trkpt><trkpt lat="59.6350844856" lon="31.0624490306"><ele>29.96</ele><time>2026-08-11T23:01:14Z</time></trkpt><trkpt lat="59.6351779439" lon="31.0624520481"><ele>29.00</ele><time>2026-08-11T23:01:34Z</time></trkpt><trkpt lat="59.6352450829" lon="31.0625123139"><ele>28.47</ele><time>2026-08-11T23:01:53Z</time></trkpt><trkpt lat="59.6353941131" lon="31.0624692310"><ele>28.28</ele><time>2026-08-11T23:02:13Z</time></trkpt><trkpt lat="59.6354863141" lon="31.0623863339"><ele>28.83</ele><time>2026-08-11T23:02:37Z</time></trkpt><trkpt lat="59.6355563868" lon="31.0624502040"><ele>29.64</ele><time>2026-08-11T23:03:05Z</time></trkpt><trkpt lat="59.6355718933" lon="31.0624337755"><ele>29.22</ele><time>2026-08-11T23:03:32Z</time></trkpt><trkpt lat="59.6355064306" lon="31.0624485277"><ele>31.70</ele><time>2026-08-11T23:04:02Z</time></trkpt><trkpt lat="59.6355176624" lon="31.0624165926"><ele>31.32</ele><time>2026-08-11T23:04:18Z</time></trkpt><trkpt lat="59.6355999727" lon="31.0623984039"><ele>31.73</ele><time>2026-08-11T23:04:35Z</time></trkpt><trkpt lat="59.6356755774" lon="31.0623135790"><ele>31.26</ele><time>2026-08-11T23:04:55Z</time></trkpt><trkpt lat="59.6356906649" lon="31.0622880980"><ele>31.32</ele><time>2026-08-11T23:05:02Z</time></trkpt><trkpt lat="59.6357606538" lon="31.0623266548"><ele>30.78</ele><time>2026-08-11T23:05:20Z</time></trkpt><trkpt lat="59.6357660182" lon="31.0623081308"><ele>30.51</ele><time>2026-08-11T23:05:29Z</time></trkpt><trkpt lat="59.6358285472" lon="31.0621592682"><ele>30.59</ele><time>2026-08-11T23:05:54Z</time></trkpt><trkpt lat="59.6358866338" lon="31.0620799754"><ele>31.43</ele><time>2026-08-11T23:06:13Z</time></trkpt><trkpt lat="59.6359293815" lon="31.0621814802"><ele>32.59</ele><time>2026-08-11T23:06:30Z</time></trkpt><trkpt lat="59.6359777451" lon="31.0621953104"><ele>33.33</ele><time>2026-08-11T23:06:52Z</time></trkpt><trkpt lat="59.6361711994" lon="31.0622095596"><ele>31.06</ele><time>2026-08-11T23:07:18Z</time></trkpt><trkpt lat="59.6361826826" lon="31.0622141697"><ele>30.81</ele><time>2026-08-11T23:07:22Z</time></trkpt><trkpt lat="59.6362550184" lon="31.0622827336"><ele>31.53</ele><time>2026-08-11T23:07:45Z</time></trkpt><trkpt lat="59.6363385860" lon="31.0623286664"><ele>31.55</ele><time>2026-08-11T23:08:02Z</time></trkpt><trkpt lat="59.6363699343" lon="31.0623879265"><ele>31.26</ele><time>2026-08-11T23:08:14Z</time></trkpt><trkpt lat="59.6363784838" lon="31.0624374636"><ele>30.14</ele><time>2026-08-11T23:08:37Z</time></trkpt><trkpt lat="59.6365016140" lon="31.0624528863"><ele>29.45</ele><time>2026-08-11T23:09:07Z</time></trkpt><trkpt lat="59.6364345588" lon="31.0624885093"><ele>29.14</ele><time>2026-08-11T23:09:40Z</time></trkpt><trkpt lat="59.6364405937" lon="31.0624766909"><ele>27.99</ele><time>2026-08-11T23:10:06Z</time></trkpt><trkpt lat="59.6363934036" lon="31.0624132399"><ele>28.53</ele><time>2026-08-11T23:10:45Z</time></trkpt><trkpt lat="59.6363861952" lon="31.0623307619"><ele>28.48</ele><time>2026-08-11T23:11:01Z</time></trkpt><trkpt lat="59.6364094131" lon="31.0621717572"><ele>28.27</ele><time>2026-08-11T23:11:17Z</time></trkpt><trkpt lat="59.6364134364" lon="31.0620300192"><ele>27.83</ele><time>2026-08-11T23:11:34Z</time></trkpt><trkpt lat="59.6363991871" lon="31.0619078111"><ele>27.50</ele><time>2026-08-11T23:11:52Z</time></trkpt><trkpt lat="59.6363851056" lon="31.0617947392"><ele>27.91</ele><time>2026-08-11T23:12:22Z</time></trkpt><trkpt lat="59.6363504883" lon="31.0616175458"><ele>29.53</ele><time>2026-08-11T23:12:51Z</time></trkpt><trkpt lat="59.6364198904" lon="31.0614753887"><ele>29.25</ele><time>2026-08-11T23:13:13Z</time></trkpt><trkpt lat="59.6364377439" lon="31.0612635780"><ele>29.60</ele><time>2026-08-11T23:13:28Z</time></trkpt><trkpt lat="59.6364673320" lon="31.0610285494"><ele>29.72</ele><time>2026-08-11T23:13:47Z</time></trkpt><trkpt lat="59.6364824194" lon="31.0608574748"><ele>29.88</ele><time>2026-08-11T23:14:08Z</time></trkpt><trkpt lat="59.6364166215" lon="31.0606767610"><ele>30.24</ele><time>2026-08-11T23:14:29Z</time></trkpt><trkpt lat="59.6364220697" lon="31.0606165789"><ele>30.96</ele><time>2026-08-11T23:14:37Z</time></trkpt><trkpt lat="59.6364245843" lon="31.0605498590"><ele>30.82</ele><time>2026-08-11T23:15:11Z</time></trkpt><trkpt lat="59.6363798250" lon="31.0605634376"><ele>29.38</ele><time>2026-08-11T23:15:40Z</time></trkpt><trkpt lat="59.6363744605" lon="31.0605565645"><ele>28.01</ele><time>2026-08-11T23:16:13Z</time></trkpt><trkpt lat="59.6363435313" lon="31.0604697280"><ele>28.75</ele><time>2026-08-11T23:16:45Z</time></trkpt><trkpt lat="59.6362836007" lon="31.0604163352"><ele>28.28</ele><time>2026-08-11T23:17:07Z</time></trkpt><trkpt lat="59.6362402663" lon="31.0604229569"><ele>29.22</ele><time>2026-08-11T23:17:26Z</time></trkpt><trkpt lat="59.6361110173" lon="31.0604474321"><ele>29.90</ele><time>2026-08-11T23:17:46Z</time></trkpt><trkpt lat="59.6359925810" lon="31.0604043491"><ele>30.10</ele><time>2026-08-11T23:18:09Z</time></trkpt><trkpt lat="59.6359555330" lon="31.0603940394"><ele>30.22</ele><time>2026-08-11T23:18:18Z</time></trkpt><trkpt lat="59.6358397789" lon="31.0603795387"><ele>30.98</ele><time>2026-08-11T23:18:42Z</time></trkpt><trkpt lat="59.6358173154" lon="31.0603122320"><ele>30.94</ele><time>2026-08-11T23:19:01Z</time></trkpt><trkpt lat="59.6356938500" lon="31.0602333583"><ele>30.36</ele><time>2026-08-11T23:19:19Z</time></trkpt><trkpt lat="59.6356731467" lon="31.0602766927"><ele>30.60</ele><time>2026-08-11T23:19:37Z</time></trkpt><trkpt lat="59.6356475819" lon="31.0602428298"><ele>30.51</ele><time>2026-08-11T23:19:46Z</time></trkpt><trkpt lat="59.6356200054" lon="31.0602104757"><ele>30.41</ele><time>2026-08-11T23:19:50Z</time></trkpt><trkpt lat="59.6354867332" lon="31.0602567438"><ele>29.36</ele><time>2026-08-11T23:20:11Z</time></trkpt><trkpt lat="59.6354330052" lon="31.0603041016"><ele>28.62</ele><time>2026-08-11T23:20:32Z</time></trkpt><trkpt lat="59.6353790257" lon="31.0602834821"><ele>28.42</ele><time>2026-08-11T23:20:50Z</time></trkpt><trkpt lat="59.6353752539" lon="31.0603138246"><ele>28.45</ele><time>2026-08-11T23:20:55Z</time></trkpt><trkpt lat="59.6352574043" lon="31.0602981504"><ele>30.17</ele><time>2026-08-11T23:21:24Z</time></trkpt><trkpt lat="59.6352615114" lon="31.0603357852"><ele>30.70</ele><time>2026-08-11T23:21:44Z</time></trkpt><trkpt lat="59.6352575719" lon="31.0603459273"><ele>30.81</ele><time>2026-08-11T23:22:07Z</time></trkpt><trkpt lat="59.6351550613" lon="31.0603294149"><ele>29.75</ele><time>2026-08-11T23:22:38Z</time></trkpt><trkpt lat="59.6350795403" lon="31.0603280738"><ele>31.03</ele><time>2026-08-11T23:23:07Z</time></trkpt><trkpt lat="59.6350595076" lon="31.0603206977"><ele>29.92</ele><time>2026-08-11T23:23:38Z</time></trkpt><trkpt lat="59.6351059433" lon="31.0604341887"><ele>29.68</ele><time>2026-08-11T23:24:02Z</time></trkpt><trkpt lat="59.6351388004" lon="31.0606106278"><ele>29.67</ele><time>2026-08-11T23:24:27Z</time></trkpt><trkpt lat="59.6352231223" lon="31.0608630069"><ele>29.96</ele><time>2026-08-11T23:24:53Z</time></trkpt><trkpt lat="59.6352033410" lon="31.0609328281"><ele>29.21</ele><time>2026-08-11T23:25:08Z</time></trkpt><trkpt lat="59.6351845656" lon="31.0610912461"><ele>28.63</ele><time>2026-08-11T23:25:27Z</time></trkpt><trkpt lat="59.6351551451" lon="31.0612558667"><ele>28.42</ele><time>2026-08-11T23:25:46Z</time></trkpt><trkpt lat="59.6350942925" lon="31.0614162125"><ele>28.97</ele><time>2026-08-11T23:26:05Z</time></trkpt><trkpt lat="59.6350735053" lon="31.0615437012"><ele>28.93</ele><time>2026-08-11T23:26:28Z</time></trkpt><trkpt lat="59.6350193582" lon="31.0614287853"><ele>29.47</ele><time>2026-08-11T23:26:47Z</time></trkpt><trkpt lat="59.6349512972" lon="31.0613071639"><ele>29.71</ele><time>2026-08-11T23:27:03Z</time></trkpt><trkpt lat="59.6348750219" lon="31.0611369275"><ele>30.02</ele><time>2026-08-11T23:27:19Z</time></trkpt><trkpt lat="59.6347224712" lon="31.0609121248"><ele>30.51</ele><time>2026-08-11T23:27:39Z</time></trkpt><trkpt lat="59.6346523985" lon="31.0608353466"><ele>30.64</ele><time>2026-08-11T23:27:56Z</time></trkpt><trkpt lat="59.6346536558" lon="31.0608281381"><ele>30.61</ele><time>2026-08-11T23:27:57Z</time></trkpt><trkpt lat="59.6346947271" lon="31.0607060976"><ele>31.80</ele><time>2026-08-11T23:28:31Z</time></trkpt><trkpt lat="59.6345512290" lon="31.0606050957"><ele>31.84</ele><time>2026-08-11T23:28:51Z</time></trkpt><trkpt lat="59.6344873589" lon="31.0605642758"><ele>32.47</ele><time>2026-08-11T23:29:06Z</time></trkpt><trkpt lat="59.6345273405" lon="31.0605174210"><ele>32.34</ele><time>2026-08-11T23:29:15Z</time></trkpt><trkpt lat="59.6344476286" lon="31.0603178479"><ele>32.28</ele><time>2026-08-11T23:29:36Z</time></trkpt><trkpt lat="59.6344213933" lon="31.0601171851"><ele>31.46</ele><time>2026-08-11T23:29:55Z</time></trkpt><trkpt lat="59.6343784779" lon="31.0599382315"><ele>30.66</ele><time>2026-08-11T23:30:12Z</time></trkpt><trkpt lat="59.6343257558" lon="31.0597973317"><ele>30.17</ele><time>2026-08-11T23:30:21Z</time></trkpt><trkpt lat="59.6342710219" lon="31.0596236587"><ele>29.81</ele><time>2026-08-11T23:30:50Z</time></trkpt><trkpt lat="59.6342551801" lon="31.0594157036"><ele>30.06</ele><time>2026-08-11T23:31:10Z</time></trkpt><trkpt lat="59.6342379972" lon="31.0593462177"><ele>30.25</ele><time>2026-08-11T23:31:16Z</time></trkpt><trkpt lat="59.6342499834" lon="31.0592854489"><ele>30.35</ele><time>2026-08-11T23:31:20Z</time></trkpt><trkpt lat="59.6342763025" lon="31.0590966046"><ele>30.70</ele><time>2026-08-11T23:31:38Z</time></trkpt><trkpt lat="59.6342877019" lon="31.0590378474"><ele>30.57</ele><time>2026-08-11T23:31:45Z</time></trkpt><trkpt lat="59.6342752129" lon="31.0588610731"><ele>30.62</ele><time>2026-08-11T23:32:01Z</time></trkpt><trkpt lat="59.6342760511" lon="31.0586582310"><ele>30.73</ele><time>2026-08-11T23:32:18Z</time></trkpt><trkpt lat="59.6343164518" lon="31.0585889965"><ele>30.67</ele><time>2026-08-11T23:32:25Z</time></trkpt><trkpt lat="59.6343665756" lon="31.0584556405"><ele>30.87</ele><time>2026-08-11T23:32:42Z</time></trkpt><trkpt lat="59.6342922281" lon="31.0582149122"><ele>30.99</ele><time>2026-08-11T23:33:00Z</time></trkpt><trkpt lat="59.6342581138" lon="31.0580050293"><ele>31.20</ele><time>2026-08-11T23:33:16Z</time></trkpt><trkpt lat="59.6341949981" lon="31.0578871798"><ele>31.87</ele><time>2026-08-11T23:33:40Z</time></trkpt><trkpt lat="59.6341656614" lon="31.0577295162"><ele>33.19</ele><time>2026-08-11T23:33:58Z</time></trkpt><trkpt lat="59.6341429465" lon="31.0575329605"><ele>34.47</ele><time>2026-08-11T23:34:14Z</time></trkpt><trkpt lat="59.6341339778" lon="31.0573911387"><ele>34.87</ele><time>2026-08-11T23:34:28Z</time></trkpt><trkpt lat="59.6340759750" lon="31.0572136939"><ele>35.41</ele><time>2026-08-11T23:34:48Z</time></trkpt><trkpt lat="59.6340632346" lon="31.0569743067"><ele>36.45</ele><time>2026-08-11T23:35:07Z</time></trkpt><trkpt lat="59.6340657491" lon="31.0569670983"><ele>36.52</ele><time>2026-08-11T23:35:08Z</time></trkpt><trkpt lat="59.6339908149" lon="31.0567305610"><ele>37.02</ele><time>2026-08-11T23:35:32Z</time></trkpt><trkpt lat="59.6339406073" lon="31.0565908346"><ele>37.06</ele><time>2026-08-11T23:35:45Z</time></trkpt><trkpt lat="59.6338739712" lon="31.0564853903"><ele>36.54</ele><time>2026-08-11T23:36:01Z</time></trkpt><trkpt lat="59.6338243503" lon="31.0563285649"><ele>36.23</ele><time>2026-08-11T23:36:16Z</time></trkpt><trkpt lat="59.6337945946" lon="31.0562669579"><ele>36.28</ele><time>2026-08-11T23:36:20Z</time></trkpt><trkpt lat="59.6337812673" lon="31.0561673809"><ele>36.25</ele><time>2026-08-11T23:36:26Z</time></trkpt><trkpt lat="59.6337111946" lon="31.0559771955"><ele>37.41</ele><time>2026-08-11T23:36:44Z</time></trkpt><trkpt lat="59.6336370986" lon="31.0557577573"><ele>37.18</ele><time>2026-08-11T23:37:05Z</time></trkpt><trkpt lat="59.6336126234" lon="31.0556703340"><ele>36.87</ele><time>2026-08-11T23:37:10Z</time></trkpt><trkpt lat="59.6335386951" lon="31.0555939749"><ele>37.07</ele><time>2026-08-11T23:37:26Z</time></trkpt><trkpt lat="59.6335392818" lon="31.0555851739"><ele>37.04</ele><time>2026-08-11T23:37:28Z</time></trkpt><trkpt lat="59.6335102804" lon="31.0553785600"><ele>37.05</ele><time>2026-08-11T23:37:49Z</time></trkpt><trkpt lat="59.6334244497" lon="31.0551062319"><ele>37.28</ele><time>2026-08-11T23:38:14Z</time></trkpt><trkpt lat="59.6333329193" lon="31.0548586305"><ele>36.19</ele><time>2026-08-11T23:38:29Z</time></trkpt><trkpt lat="59.6333329193" lon="31.0545889847"><ele>34.78</ele><time>2026-08-11T23:38:49Z</time></trkpt><trkpt lat="59.6332651936" lon="31.0543446522"><ele>35.78</ele><time>2026-08-11T23:39:09Z</time></trkpt><trkpt lat="59.6332010720" lon="31.0542894993"><ele>35.58</ele><time>2026-08-11T23:39:27Z</time></trkpt><trkpt lat="59.6332041733" lon="31.0542779323"><ele>35.64</ele><time>2026-08-11T23:39:30Z</time></trkpt><trkpt lat="59.6330804564" lon="31.0540372878"><ele>35.12</ele><time>2026-08-11T23:39:52Z</time></trkpt><trkpt lat="59.6329987328" lon="31.0537846573"><ele>35.07</ele><time>2026-08-11T23:40:19Z</time></trkpt><trkpt lat="59.6329554822" lon="31.0537015926"><ele>35.31</ele><time>2026-08-11T23:40:29Z</time></trkpt><trkpt lat="59.6328512952" lon="31.0536115710"><ele>35.46</ele><time>2026-08-11T23:40:40Z</time></trkpt><trkpt lat="59.6328219585" lon="31.0534613673"><ele>35.43</ele><time>2026-08-11T23:41:04Z</time></trkpt><trkpt lat="59.6328314301" lon="31.0533516482"><ele>35.59</ele><time>2026-08-11T23:41:14Z</time></trkpt><trkpt lat="59.6327745169" lon="31.0532648955"><ele>35.61</ele><time>2026-08-11T23:41:28Z</time></trkpt><trkpt lat="59.6327419952" lon="31.0532193817"><ele>35.63</ele><time>2026-08-11T23:41:41Z</time></trkpt><trkpt lat="59.6326477826" lon="31.0530906357"><ele>35.18</ele><time>2026-08-11T23:41:57Z</time></trkpt><trkpt lat="59.6325826552" lon="31.0529747140"><ele>34.53</ele><time>2026-08-11T23:42:14Z</time></trkpt><trkpt lat="59.6325142588" lon="31.0528856143"><ele>34.42</ele><time>2026-08-11T23:42:24Z</time></trkpt><trkpt lat="59.6324600279" lon="31.0528108478"><ele>34.44</ele><time>2026-08-11T23:42:42Z</time></trkpt><trkpt lat="59.6323232353" lon="31.0526417848"><ele>34.41</ele><time>2026-08-11T23:43:00Z</time></trkpt><trkpt lat="59.6322284359" lon="31.0524783377"><ele>35.22</ele><time>2026-08-11T23:43:17Z</time></trkpt><trkpt lat="59.6321555134" lon="31.0523695406"><ele>35.12</ele><time>2026-08-11T23:43:31Z</time></trkpt><trkpt lat="59.6320825908" lon="31.0523467418"><ele>34.42</ele><time>2026-08-11T23:43:45Z</time></trkpt><trkpt lat="59.6319808345" lon="31.0523438919"><ele>33.41</ele><time>2026-08-11T23:44:04Z</time></trkpt><trkpt lat="59.6319241729" lon="31.0524531920"><ele>32.89</ele><time>2026-08-11T23:44:21Z</time></trkpt><trkpt lat="59.6317385137" lon="31.0524355061"><ele>31.40</ele><time>2026-08-11T23:44:45Z</time></trkpt><trkpt lat="59.6316577960" lon="31.0524518508"><ele>31.68</ele><time>2026-08-11T23:45:12Z</time></trkpt><trkpt lat="59.6316560358" lon="31.0524556227"><ele>31.10</ele><time>2026-08-11T23:45:36Z</time></trkpt><trkpt lat="59.6316691115" lon="31.0524502583"><ele>31.17</ele><time>2026-08-11T23:46:06Z</time></trkpt><trkpt lat="59.6316875517" lon="31.0524336621"><ele>32.64</ele><time>2026-08-11T23:46:39Z</time></trkpt><trkpt lat="59.6316766553" lon="31.0524858814"><ele>32.73</ele><time>2026-08-11T23:47:07Z</time></trkpt><trkpt lat="59.6316974424" lon="31.0524469893"><ele>34.51</ele><time>2026-08-11T23:47:31Z</time></trkpt><trkpt lat="59.6316790860" lon="31.0524626635"><ele>35.94</ele><time>2026-08-11T23:48:00Z</time></trkpt><trkpt lat="59.6316921618" lon="31.0524428822"><ele>36.11</ele><time>2026-08-11T23:48:23Z</time></trkpt><trkpt lat="59.6316777449" lon="31.0524192452"><ele>37.79</ele><time>2026-08-11T23:48:54Z</time></trkpt><trkpt lat="59.6316816006" lon="31.0524207540"><ele>38.24</ele><time>2026-08-11T23:49:17Z</time></trkpt><trkpt lat="59.6316567063" lon="31.0524419602"><ele>39.62</ele><time>2026-08-11T23:49:44Z</time></trkpt><trkpt lat="59.6316524316" lon="31.0524521023"><ele>43.41</ele><time>2026-08-11T23:50:14Z</time></trkpt><trkpt lat="59.6316745598" lon="31.0524785891"><ele>43.72</ele><time>2026-08-11T23:50:46Z</time></trkpt><trkpt lat="59.6317053214" lon="31.0525106918"><ele>45.88</ele><time>2026-08-11T23:51:16Z</time></trkpt><trkpt lat="59.6316469833" lon="31.0524747334"><ele>45.65</ele><time>2026-08-11T23:51:47Z</time></trkpt><trkpt lat="59.6316527668" lon="31.0525196604"><ele>46.24</ele><time>2026-08-11T23:52:15Z</time></trkpt><trkpt lat="59.6316862945" lon="31.0525043216"><ele>46.69</ele><time>2026-08-11T23:52:41Z</time></trkpt><trkpt lat="59.6316784993" lon="31.0524886474"><ele>46.11</ele><time>2026-08-11T23:53:05Z</time></trkpt><trkpt lat="59.6316841990" lon="31.0524506774"><ele>45.59</ele><time>2026-08-11T23:53:29Z</time></trkpt><trkpt lat="59.6316346619" lon="31.0524405353"><ele>43.80</ele><time>2026-08-11T23:53:57Z</time></trkpt><trkpt lat="59.6316739731" lon="31.0525216721"><ele>42.45</ele><time>2026-08-11T23:54:25Z</time></trkpt><trkpt lat="59.6316445526" lon="31.0525007173"><ele>41.56</ele><time>2026-08-11T23:54:53Z</time></trkpt><trkpt lat="59.6316396911" lon="31.0525258631"><ele>41.67</ele><time>2026-08-11T23:55:32Z</time></trkpt><trkpt lat="59.6317038964" lon="31.0525153857"><ele>41.28</ele><time>2026-08-11T23:56:03Z</time></trkpt><trkpt lat="59.6316986158" lon="31.0524324887"><ele>39.45</ele><time>2026-08-11T23:56:54Z</time></trkpt><trkpt lat="59.6316890605" lon="31.0524586402"><ele>38.80</ele><time>2026-08-11T23:57:31Z</time></trkpt><trkpt lat="59.6316765714" lon="31.0524483304"><ele>37.79</ele><time>2026-08-11T23:58:02Z</time></trkpt><trkpt lat="59.6316852048" lon="31.0524720512"><ele>37.89</ele><time>2026-08-11T23:58:31Z</time></trkpt><trkpt lat="59.6316775773" lon="31.0524616577"><ele>37.85</ele><time>2026-08-11T23:58:59Z</time></trkpt><trkpt lat="59.6317247674" lon="31.0524668545"><ele>37.95</ele><time>2026-08-11T23:59:33Z</time></trkpt><trkpt lat="59.6317406930" lon="31.0524997953"><ele>36.90</ele><time>2026-08-12T00:00:03Z</time></trkpt><trkpt lat="59.6317100991" lon="31.0524992086"><ele>36.76</ele><time>2026-08-12T00:00:31Z</time></trkpt><trkpt lat="59.6317116078" lon="31.0525314789"><ele>36.09</ele><time>2026-08-12T00:00:56Z</time></trkpt><trkpt lat="59.6316469833" lon="31.0526420362"><ele>35.20</ele><time>2026-08-12T00:01:18Z</time></trkpt><trkpt lat="59.6316316444" lon="31.0526795033"><ele>34.28</ele><time>2026-08-12T00:01:38Z</time></trkpt><trkpt lat="59.6315935906" lon="31.0528125241"><ele>33.03</ele><time>2026-08-12T00:02:02Z</time></trkpt><trkpt lat="59.6315813530" lon="31.0528585408"><ele>32.48</ele><time>2026-08-12T00:02:13Z</time></trkpt><trkpt lat="59.6315613203" lon="31.0531254206"><ele>32.94</ele><time>2026-08-12T00:02:35Z</time></trkpt><trkpt lat="59.6314916667" lon="31.0533827450"><ele>33.62</ele><time>2026-08-12T00:02:56Z</time></trkpt><trkpt lat="59.6313955262" lon="31.0535589326"><ele>32.78</ele><time>2026-08-12T00:03:17Z</time></trkpt><trkpt lat="59.6312966198" lon="31.0536383092"><ele>31.68</ele><time>2026-08-12T00:03:35Z</time></trkpt><trkpt lat="59.6311806981" lon="31.0537296720"><ele>32.14</ele><time>2026-08-12T00:03:55Z</time></trkpt><trkpt lat="59.6310906764" lon="31.0538143292"><ele>32.18</ele><time>2026-08-12T00:04:16Z</time></trkpt><trkpt lat="59.6310307458" lon="31.0538494494"><ele>32.10</ele><time>2026-08-12T00:04:29Z</time></trkpt><trkpt lat="59.6308641136" lon="31.0537809692"><ele>32.25</ele><time>2026-08-12T00:04:51Z</time></trkpt><trkpt lat="59.6308016684" lon="31.0537604336"><ele>32.22</ele><time>2026-08-12T00:05:12Z</time></trkpt><trkpt lat="59.6307364572" lon="31.0537280794"><ele>33.25</ele><time>2026-08-12T00:05:35Z</time></trkpt><trkpt lat="59.6306856629" lon="31.0537631158"><ele>35.09</ele><time>2026-08-12T00:06:02Z</time></trkpt><trkpt lat="59.6306828968" lon="31.0538759362"><ele>36.84</ele><time>2026-08-12T00:06:29Z</time></trkpt><trkpt lat="59.6306601819" lon="31.0538748465"><ele>39.08</ele><time>2026-08-12T00:07:00Z</time></trkpt><trkpt lat="59.6306554042" lon="31.0538623575"><ele>38.18</ele><time>2026-08-12T00:07:23Z</time></trkpt><trkpt lat="59.6306454297" lon="31.0539078712"><ele>38.74</ele><time>2026-08-12T00:07:47Z</time></trkpt><trkpt lat="59.6306207031" lon="31.0540097952"><ele>38.48</ele><time>2026-08-12T00:08:18Z</time></trkpt><trkpt lat="59.6306090523" lon="31.0540786106"><ele>38.01</ele><time>2026-08-12T00:08:24Z</time></trkpt><trkpt lat="59.6305594314" lon="31.0541282315"><ele>38.99</ele><time>2026-08-12T00:08:51Z</time></trkpt><trkpt lat="59.6305528935" lon="31.0541547183"><ele>38.74</ele><time>2026-08-12T00:09:00Z</time></trkpt><trkpt lat="59.6304953098" lon="31.0541833006"><ele>38.48</ele><time>2026-08-12T00:09:19Z</time></trkpt><trkpt lat="59.6304287575" lon="31.0541319195"><ele>37.95</ele><time>2026-08-12T00:09:39Z</time></trkpt><trkpt lat="59.6304010972" lon="31.0541599151"><ele>37.81</ele><time>2026-08-12T00:09:45Z</time></trkpt><trkpt lat="59.6302202996" lon="31.0541710630"><ele>35.78</ele><time>2026-08-12T00:10:07Z</time></trkpt><trkpt lat="59.6301604528" lon="31.0541487671"><ele>34.57</ele><time>2026-08-12T00:10:15Z</time></trkpt><trkpt lat="59.6300272644" lon="31.0541527905"><ele>31.58</ele><time>2026-08-12T00:10:36Z</time></trkpt><trkpt lat="59.6299680881" lon="31.0541515332"><ele>30.94</ele><time>2026-08-12T00:10:55Z</time></trkpt><trkpt lat="59.6298701875" lon="31.0541890841"><ele>30.59</ele><time>2026-08-12T00:11:14Z</time></trkpt><trkpt lat="59.6297996957" lon="31.0542880744"><ele>29.61</ele><time>2026-08-12T00:11:32Z</time></trkpt><trkpt lat="59.6297246777" lon="31.0543728154"><ele>28.56</ele><time>2026-08-12T00:11:48Z</time></trkpt><trkpt lat="59.6296942513" lon="31.0543988831"><ele>28.56</ele><time>2026-08-12T00:11:51Z</time></trkpt><trkpt lat="59.6296283696" lon="31.0544557963"><ele>28.10</ele><time>2026-08-12T00:12:01Z</time></trkpt><trkpt lat="59.6295923274" lon="31.0544947721"><ele>28.02</ele><time>2026-08-12T00:12:05Z</time></trkpt><trkpt lat="59.6295157168" lon="31.0546111129"><ele>27.93</ele><time>2026-08-12T00:12:27Z</time></trkpt><trkpt lat="59.6294205822" lon="31.0546326544"><ele>29.16</ele><time>2026-08-12T00:12:40Z</time></trkpt><trkpt lat="59.6293378528" lon="31.0546641704"><ele>30.49</ele><time>2026-08-12T00:13:02Z</time></trkpt><trkpt lat="59.6292687021" lon="31.0545800999"><ele>31.19</ele><time>2026-08-12T00:13:23Z</time></trkpt><trkpt lat="59.6292923391" lon="31.0546657629"><ele>32.32</ele><time>2026-08-12T00:13:42Z</time></trkpt><trkpt lat="59.6293386910" lon="31.0547308065"><ele>33.12</ele><time>2026-08-12T00:14:06Z</time></trkpt><trkpt lat="59.6293799300" lon="31.0546418745"><ele>33.35</ele><time>2026-08-12T00:14:25Z</time></trkpt><trkpt lat="59.6293912455" lon="31.0544814449"><ele>33.87</ele><time>2026-08-12T00:14:45Z</time></trkpt><trkpt lat="59.6294143796" lon="31.0543211829"><ele>32.94</ele><time>2026-08-12T00:15:03Z</time></trkpt><trkpt lat="59.6294364240" lon="31.0542759206"><ele>32.62</ele><time>2026-08-12T00:15:19Z</time></trkpt><trkpt lat="59.6294344962" lon="31.0542719811"><ele>32.63</ele><time>2026-08-12T00:15:20Z</time></trkpt><trkpt lat="59.6294854581" lon="31.0541681293"><ele>32.45</ele><time>2026-08-12T00:15:38Z</time></trkpt><trkpt lat="59.6294073388" lon="31.0538434144"><ele>31.50</ele><time>2026-08-12T00:15:54Z</time></trkpt><trkpt lat="59.6294146311" lon="31.0535332002"><ele>29.92</ele><time>2026-08-12T00:16:13Z</time></trkpt><trkpt lat="59.6294080094" lon="31.0533457808"><ele>32.14</ele><time>2026-08-12T00:16:32Z</time></trkpt><trkpt lat="59.6294543613" lon="31.0532942321"><ele>32.59</ele><time>2026-08-12T00:16:51Z</time></trkpt><trkpt lat="59.6295330673" lon="31.0532179568"><ele>33.05</ele><time>2026-08-12T00:17:15Z</time></trkpt><trkpt lat="59.6296318062" lon="31.0531908832"><ele>33.49</ele><time>2026-08-12T00:17:42Z</time></trkpt><trkpt lat="59.6296862047" lon="31.0531841777"><ele>34.21</ele><time>2026-08-12T00:18:05Z</time></trkpt><trkpt lat="59.6297153737" lon="31.0531964991"><ele>34.34</ele><time>2026-08-12T00:18:12Z</time></trkpt><trkpt lat="59.6297922358" lon="31.0532958247"><ele>35.17</ele><time>2026-08-12T00:18:31Z</time></trkpt><trkpt lat="59.6297994442" lon="31.0533237364"><ele>35.13</ele><time>2026-08-12T00:18:35Z</time></trkpt><trkpt lat="59.6298425272" lon="31.0534947272"><ele>34.65</ele><time>2026-08-12T00:18:55Z</time></trkpt><trkpt lat="59.6298552677" lon="31.0535161011"><ele>34.41</ele><time>2026-08-12T00:18:59Z</time></trkpt><trkpt lat="59.6299276873" lon="31.0536262393"><ele>33.84</ele><time>2026-08-12T00:19:22Z</time></trkpt><trkpt lat="59.6300153621" lon="31.0538257286"><ele>33.51</ele><time>2026-08-12T00:19:44Z</time></trkpt><trkpt lat="59.6300384961" lon="31.0539041832"><ele>32.95</ele><time>2026-08-12T00:19:52Z</time></trkpt><trkpt lat="59.6300667431" lon="31.0539388005"><ele>32.54</ele><time>2026-08-12T00:19:56Z</time></trkpt><trkpt lat="59.6301425155" lon="31.0540034249"><ele>34.81</ele><time>2026-08-12T00:20:18Z</time></trkpt><trkpt lat="59.6302184556" lon="31.0539577436"><ele>35.49</ele><time>2026-08-12T00:20:39Z</time></trkpt><trkpt lat="59.6303091478" lon="31.0538805462"><ele>35.76</ele><time>2026-08-12T00:20:58Z</time></trkpt><trkpt lat="59.6303852554" lon="31.0538448393"><ele>36.36</ele><time>2026-08-12T00:21:23Z</time></trkpt><trkpt lat="59.6304547414" lon="31.0538831446"><ele>36.30</ele><time>2026-08-12T00:21:37Z</time></trkpt><trkpt lat="59.6305679809" lon="31.0538798757"><ele>37.01</ele><time>2026-08-12T00:21:59Z</time></trkpt><trkpt lat="59.6306308452" lon="31.0538871679"><ele>37.26</ele><time>2026-08-12T00:22:07Z</time></trkpt><trkpt lat="59.6306951344" lon="31.0538608488"><ele>37.65</ele><time>2026-08-12T00:22:26Z</time></trkpt><trkpt lat="59.6307517122" lon="31.0537506267"><ele>38.13</ele><time>2026-08-12T00:22:47Z</time></trkpt><trkpt lat="59.6307869162" lon="31.0536072124"><ele>38.07</ele><time>2026-08-12T00:23:11Z</time></trkpt><trkpt lat="59.6308367047" lon="31.0533841699"><ele>37.48</ele><time>2026-08-12T00:23:51Z</time></trkpt><trkpt lat="59.6308463439" lon="31.0532857664"><ele>37.73</ele><time>2026-08-12T00:24:10Z</time></trkpt><trkpt lat="59.6308561508" lon="31.0532222316"><ele>36.59</ele><time>2026-08-12T00:24:34Z</time></trkpt><trkpt lat="59.6309323423" lon="31.0531553440"><ele>34.06</ele><time>2026-08-12T00:25:00Z</time></trkpt><trkpt lat="59.6310154069" lon="31.0530202277"><ele>33.76</ele><time>2026-08-12T00:25:17Z</time></trkpt><trkpt lat="59.6311920136" lon="31.0528142843"><ele>33.84</ele><time>2026-08-12T00:25:38Z</time></trkpt><trkpt lat="59.6312826220" lon="31.0526821855"><ele>33.17</ele><time>2026-08-12T00:25:53Z</time></trkpt><trkpt lat="59.6312998887" lon="31.0527200717"><ele>33.24</ele><time>2026-08-12T00:25:57Z</time></trkpt><trkpt lat="59.6314287186" lon="31.0526630748"><ele>34.35</ele><time>2026-08-12T00:26:17Z</time></trkpt><trkpt lat="59.6314753219" lon="31.0524951853"><ele>35.21</ele><time>2026-08-12T00:26:42Z</time></trkpt><trkpt lat="59.6314645931" lon="31.0524454806"><ele>34.00</ele><time>2026-08-12T00:27:15Z</time></trkpt><trkpt lat="59.6314443927" lon="31.0523962788"><ele>35.71</ele><time>2026-08-12T00:27:46Z</time></trkpt><trkpt lat="59.6315068379" lon="31.0525101051"><ele>34.96</ele><time>2026-08-12T00:28:07Z</time></trkpt><trkpt lat="59.6316007990" lon="31.0524608195"><ele>36.21</ele><time>2026-08-12T00:28:37Z</time></trkpt><trkpt lat="59.6316245198" lon="31.0525416210"><ele>38.65</ele><time>2026-08-12T00:29:11Z</time></trkpt><trkpt lat="59.6316291299" lon="31.0525712930"><ele>41.23</ele><time>2026-08-12T00:29:36Z</time></trkpt><trkpt lat="59.6316671837" lon="31.0526376776"><ele>43.73</ele><time>2026-08-12T00:30:10Z</time></trkpt><trkpt lat="59.6316455584" lon="31.0526206624"><ele>44.30</ele><time>2026-08-12T00:30:39Z</time></trkpt><trkpt lat="59.6316162217" lon="31.0525366757"><ele>44.33</ele><time>2026-08-12T00:31:07Z</time></trkpt><trkpt lat="59.6316282917" lon="31.0525391065"><ele>44.63</ele><time>2026-08-12T00:31:33Z</time></trkpt><trkpt lat="59.6315965243" lon="31.0524234362"><ele>44.97</ele><time>2026-08-12T00:32:00Z</time></trkpt><trkpt lat="59.6317137871" lon="31.0524091870"><ele>44.67</ele><time>2026-08-12T00:32:29Z</time></trkpt><trkpt lat="59.6317110211" lon="31.0525064170"><ele>42.78</ele><time>2026-08-12T00:32:59Z</time></trkpt><trkpt lat="59.6316435467" lon="31.0523840412"><ele>42.12</ele><time>2026-08-12T00:33:33Z</time></trkpt><trkpt lat="59.6316655073" lon="31.0524039064"><ele>40.42</ele><time>2026-08-12T00:34:01Z</time></trkpt><trkpt lat="59.6316841990" lon="31.0524317343"><ele>39.95</ele><time>2026-08-12T00:34:29Z</time></trkpt><trkpt lat="59.6316722967" lon="31.0523630027"><ele>42.11</ele><time>2026-08-12T00:35:08Z</time></trkpt><trkpt lat="59.6316256933" lon="31.0523919202"><ele>43.64</ele><time>2026-08-12T00:35:51Z</time></trkpt><trkpt lat="59.6316277888" lon="31.0524507612"><ele>43.22</ele><time>2026-08-12T00:36:17Z</time></trkpt><trkpt lat="59.6316329855" lon="31.0524839535"><ele>43.98</ele><time>2026-08-12T00:36:52Z</time></trkpt><trkpt lat="59.6316119470" lon="31.0524842050"><ele>45.45</ele><time>2026-08-12T00:37:24Z</time></trkpt><trkpt lat="59.6316451393" lon="31.0524857137"><ele>45.39</ele><time>2026-08-12T00:37:55Z</time></trkpt><trkpt lat="59.6317438781" lon="31.0526115261"><ele>44.98</ele><time>2026-08-12T00:38:24Z</time></trkpt><trkpt lat="59.6316882223" lon="31.0525340773"><ele>44.58</ele><time>2026-08-12T00:38:51Z</time></trkpt><trkpt lat="59.6316717938" lon="31.0525446385"><ele>44.17</ele><time>2026-08-12T00:39:12Z</time></trkpt><trkpt lat="59.6316411998" lon="31.0525124520"><ele>44.30</ele><time>2026-08-12T00:39:33Z</time></trkpt><trkpt lat="59.6317142062" lon="31.0525226779"><ele>44.15</ele><time>2026-08-12T00:40:04Z</time></trkpt><trkpt lat="59.6317127813" lon="31.0525396094"><ele>43.84</ele><time>2026-08-12T00:40:21Z</time></trkpt><trkpt lat="59.6316681895" lon="31.0526147950"><ele>43.30</ele><time>2026-08-12T00:40:49Z</time></trkpt><trkpt lat="59.6316387691" lon="31.0524976999"><ele>42.66</ele><time>2026-08-12T00:41:14Z</time></trkpt><trkpt lat="59.6316488273" lon="31.0525038186"><ele>43.27</ele><time>2026-08-12T00:41:41Z</time></trkpt><trkpt lat="59.6316193230" lon="31.0523946863"><ele>43.85</ele><time>2026-08-12T00:42:09Z</time></trkpt><trkpt lat="59.6316080913" lon="31.0523638409"><ele>45.98</ele><time>2026-08-12T00:42:42Z</time></trkpt><trkpt lat="59.6316089295" lon="31.0523500107"><ele>44.52</ele><time>2026-08-12T00:43:08Z</time></trkpt><trkpt lat="59.6316206641" lon="31.0523594823"><ele>44.05</ele><time>2026-08-12T00:43:37Z</time></trkpt><trkpt lat="59.6316180658" lon="31.0523596499"><ele>44.61</ele><time>2026-08-12T00:44:07Z</time></trkpt><trkpt lat="59.6316083428" lon="31.0523794312"><ele>44.70</ele><time>2026-08-12T00:44:35Z</time></trkpt><trkpt lat="59.6316252742" lon="31.0524415411"><ele>44.20</ele><time>2026-08-12T00:44:58Z</time></trkpt><trkpt lat="59.6316484921" lon="31.0524764098"><ele>44.45</ele><time>2026-08-12T00:45:19Z</time></trkpt><trkpt lat="59.6316542756" lon="31.0524570476"><ele>44.61</ele><time>2026-08-12T00:45:42Z</time></trkpt><trkpt lat="59.6316432953" lon="31.0524425469"><ele>46.35</ele><time>2026-08-12T00:46:07Z</time></trkpt><trkpt lat="59.6316057444" lon="31.0523486696"><ele>49.19</ele><time>2026-08-12T00:46:34Z</time></trkpt><trkpt lat="59.6316298842" lon="31.0523447301"><ele>48.79</ele><time>2026-08-12T00:47:00Z</time></trkpt><trkpt lat="59.6316283755" lon="31.0524005536"><ele>47.94</ele><time>2026-08-12T00:47:29Z</time></trkpt><trkpt lat="59.6316309739" lon="31.0523843765"><ele>47.45</ele><time>2026-08-12T00:47:57Z</time></trkpt><trkpt lat="59.6316270344" lon="31.0523277987"><ele>46.47</ele><time>2026-08-12T00:48:22Z</time></trkpt><trkpt lat="59.6316069178" lon="31.0523389466"><ele>45.29</ele><time>2026-08-12T00:48:50Z</time></trkpt><trkpt lat="59.6316211671" lon="31.0523474123"><ele>44.20</ele><time>2026-08-12T00:49:20Z</time></trkpt><trkpt lat="59.6316327341" lon="31.0524123721"><ele>44.06</ele><time>2026-08-12T00:49:47Z</time></trkpt><trkpt lat="59.6316204965" lon="31.0523857176"><ele>43.37</ele><time>2026-08-12T00:50:19Z</time></trkpt><trkpt lat="59.6316456422" lon="31.0524242744"><ele>42.05</ele><time>2026-08-12T00:50:50Z</time></trkpt><trkpt lat="59.6316500008" lon="31.0524462350"><ele>41.10</ele><time>2026-08-12T00:51:15Z</time></trkpt><trkpt lat="59.6316508390" lon="31.0524277948"><ele>41.75</ele><time>2026-08-12T00:51:49Z</time></trkpt><trkpt lat="59.6316337399" lon="31.0524466541"><ele>40.32</ele><time>2026-08-12T00:52:15Z</time></trkpt><trkpt lat="59.6316497494" lon="31.0523819458"><ele>39.81</ele><time>2026-08-12T00:52:44Z</time></trkpt><trkpt lat="59.6316257771" lon="31.0523547884"><ele>38.67</ele><time>2026-08-12T00:53:15Z</time></trkpt><trkpt lat="59.6316351648" lon="31.0524205863"><ele>38.67</ele><time>2026-08-12T00:53:50Z</time></trkpt><trkpt lat="59.6316349134" lon="31.0524210893"><ele>36.95</ele><time>2026-08-12T00:54:36Z</time></trkpt><trkpt lat="59.6316579636" lon="31.0524915811"><ele>36.95</ele><time>2026-08-12T00:55:16Z</time></trkpt><trkpt lat="59.6316745598" lon="31.0524416249"><ele>35.96</ele><time>2026-08-12T00:55:39Z</time></trkpt><trkpt lat="59.6316621546" lon="31.0525335744"><ele>33.46</ele><time>2026-08-12T00:56:10Z</time></trkpt><trkpt lat="59.6316554490" lon="31.0525056627"><ele>33.71</ele><time>2026-08-12T00:56:33Z</time></trkpt><trkpt lat="59.6316756494" lon="31.0525165591"><ele>35.46</ele><time>2026-08-12T00:56:56Z</time></trkpt><trkpt lat="59.6316653397" lon="31.0525126196"><ele>35.78</ele><time>2026-08-12T00:57:11Z</time></trkpt><trkpt lat="59.6316123661" lon="31.0524454806"><ele>35.35</ele><time>2026-08-12T00:57:34Z</time></trkpt><trkpt lat="59.6316017210" lon="31.0524508450"><ele>34.34</ele><time>2026-08-12T00:57:57Z</time></trkpt><trkpt lat="59.6316101030" lon="31.0524852946"><ele>34.36</ele><time>2026-08-12T00:58:19Z</time></trkpt><trkpt lat="59.6316191554" lon="31.0525419563"><ele>34.65</ele><time>2026-08-12T00:58:45Z</time></trkpt><trkpt lat="59.6316246875" lon="31.0525605641"><ele>35.87</ele><time>2026-08-12T00:59:17Z</time></trkpt><trkpt lat="59.6316368412" lon="31.0525389388"><ele>36.76</ele><time>2026-08-12T00:59:49Z</time></trkpt><trkpt lat="59.6316580474" lon="31.0524970293"><ele>38.48</ele><time>2026-08-12T01:00:15Z</time></trkpt><trkpt lat="59.6316277049" lon="31.0524974484"><ele>39.91</ele><time>2026-08-12T01:00:38Z</time></trkpt><trkpt lat="59.6316035651" lon="31.0525634140"><ele>40.35</ele><time>2026-08-12T01:01:05Z</time></trkpt><trkpt lat="59.6315788385" lon="31.0525930859"><ele>40.78</ele><time>2026-08-12T01:01:25Z</time></trkpt><trkpt lat="59.6315968595" lon="31.0525862128"><ele>43.17</ele><time>2026-08-12T01:01:45Z</time></trkpt><trkpt lat="59.6315975301" lon="31.0526069161"><ele>44.70</ele><time>2026-08-12T01:02:08Z</time></trkpt><trkpt lat="59.6315922495" lon="31.0525749810"><ele>45.68</ele><time>2026-08-12T01:02:25Z</time></trkpt><trkpt lat="59.6315830294" lon="31.0526380129"><ele>45.32</ele><time>2026-08-12T01:02:45Z</time></trkpt><trkpt lat="59.6315831970" lon="31.0527102649"><ele>45.58</ele><time>2026-08-12T01:03:05Z</time></trkpt><trkpt lat="59.6315820236" lon="31.0527063254"><ele>45.45</ele><time>2026-08-12T01:03:24Z</time></trkpt><trkpt lat="59.6315788385" lon="31.0526864603"><ele>45.02</ele><time>2026-08-12T01:03:43Z</time></trkpt><trkpt lat="59.6315810177" lon="31.0527297948"><ele>44.42</ele><time>2026-08-12T01:04:00Z</time></trkpt><trkpt lat="59.6315992065" lon="31.0527456366"><ele>43.14</ele><time>2026-08-12T01:04:19Z</time></trkpt><trkpt lat="59.6316136234" lon="31.0527460556"><ele>42.05</ele><time>2026-08-12T01:04:41Z</time></trkpt><trkpt lat="59.6316473186" lon="31.0527618974"><ele>41.79</ele><time>2026-08-12T01:05:00Z</time></trkpt><trkpt lat="59.6316763200" lon="31.0528243426"><ele>42.14</ele><time>2026-08-12T01:05:22Z</time></trkpt><trkpt lat="59.6316900663" lon="31.0528709460"><ele>41.36</ele><time>2026-08-12T01:05:42Z</time></trkpt><trkpt lat="59.6317198221" lon="31.0529665835"><ele>42.13</ele><time>2026-08-12T01:06:02Z</time></trkpt><trkpt lat="59.6317327302" lon="31.0530875344"><ele>42.11</ele><time>2026-08-12T01:06:23Z</time></trkpt><trkpt lat="59.6318018809" lon="31.0532112513"><ele>41.61</ele><time>2026-08-12T01:06:42Z</time></trkpt><trkpt lat="59.6318258531" lon="31.0532366484"><ele>40.66</ele><time>2026-08-12T01:06:51Z</time></trkpt><trkpt lat="59.6318670083" lon="31.0532936454"><ele>39.38</ele><time>2026-08-12T01:07:11Z</time></trkpt><trkpt lat="59.6318752225" lon="31.0533470381"><ele>40.15</ele><time>2026-08-12T01:07:29Z</time></trkpt><trkpt lat="59.6318395156" lon="31.0533928033"><ele>41.16</ele><time>2026-08-12T01:07:49Z</time></trkpt><trkpt lat="59.6317681018" lon="31.0534656420"><ele>42.22</ele><time>2026-08-12T01:08:06Z</time></trkpt><trkpt lat="59.6317439619" lon="31.0535599384"><ele>42.55</ele><time>2026-08-12T01:08:27Z</time></trkpt><trkpt lat="59.6316850372" lon="31.0536248144"><ele>42.51</ele><time>2026-08-12T01:08:44Z</time></trkpt><trkpt lat="59.6316907369" lon="31.0536446795"><ele>44.12</ele><time>2026-08-12T01:09:11Z</time></trkpt><trkpt lat="59.6315855440" lon="31.0537265707"><ele>44.24</ele><time>2026-08-12T01:09:30Z</time></trkpt><trkpt lat="59.6315561235" lon="31.0538160056"><ele>44.51</ele><time>2026-08-12T01:09:50Z</time></trkpt><trkpt lat="59.6315568779" lon="31.0538159218"><ele>43.25</ele><time>2026-08-12T01:10:12Z</time></trkpt><trkpt lat="59.6314956062" lon="31.0539425723"><ele>42.76</ele><time>2026-08-12T01:10:28Z</time></trkpt><trkpt lat="59.6314457338" lon="31.0540512018"><ele>41.87</ele><time>2026-08-12T01:10:44Z</time></trkpt><trkpt lat="59.6314255334" lon="31.0539963841"><ele>40.67</ele><time>2026-08-12T01:11:01Z</time></trkpt><trkpt lat="59.6313997172" lon="31.0539382137"><ele>40.05</ele><time>2026-08-12T01:11:16Z</time></trkpt><trkpt lat="59.6314195823" lon="31.0539486073"><ele>39.10</ele><time>2026-08-12T01:11:33Z</time></trkpt><trkpt lat="59.6313624177" lon="31.0540084541"><ele>38.90</ele><time>2026-08-12T01:11:53Z</time></trkpt><trkpt lat="59.6313396189" lon="31.0539900977"><ele>38.81</ele><time>2026-08-12T01:12:14Z</time></trkpt><trkpt lat="59.6313236095" lon="31.0539595038"><ele>38.61</ele><time>2026-08-12T01:12:29Z</time></trkpt><trkpt lat="59.6312547941" lon="31.0539931990"><ele>38.36</ele><time>2026-08-12T01:12:51Z</time></trkpt><trkpt lat="59.6311838832" lon="31.0540170036"><ele>37.98</ele><time>2026-08-12T01:13:14Z</time></trkpt><trkpt lat="59.6311633475" lon="31.0540147405"><ele>37.81</ele><time>2026-08-12T01:13:20Z</time></trkpt><trkpt lat="59.6310920175" lon="31.0539865773"><ele>37.51</ele><time>2026-08-12T01:13:40Z</time></trkpt><trkpt lat="59.6310337633" lon="31.0539985634"><ele>37.78</ele><time>2026-08-12T01:14:04Z</time></trkpt><trkpt lat="59.6310000680" lon="31.0539247189"><ele>37.73</ele><time>2026-08-12T01:14:28Z</time></trkpt><trkpt lat="59.6309807058" lon="31.0538985673"><ele>37.73</ele><time>2026-08-12T01:14:47Z</time></trkpt><trkpt lat="59.6309254691" lon="31.0538988188"><ele>38.11</ele><time>2026-08-12T01:15:08Z</time></trkpt><trkpt lat="59.6308931150" lon="31.0538548976"><ele>38.53</ele><time>2026-08-12T01:15:29Z</time></trkpt><trkpt lat="59.6308043506" lon="31.0538243875"><ele>39.11</ele><time>2026-08-12T01:15:50Z</time></trkpt><trkpt lat="59.6307643689" lon="31.0538533051"><ele>39.21</ele><time>2026-08-12T01:16:13Z</time></trkpt><trkpt lat="59.6307350323" lon="31.0538270697"><ele>38.78</ele><time>2026-08-12T01:16:31Z</time></trkpt><trkpt lat="59.6306541469" lon="31.0537703242"><ele>38.73</ele><time>2026-08-12T01:16:50Z</time></trkpt><trkpt lat="59.6306641214" lon="31.0537091363"><ele>38.56</ele><time>2026-08-12T01:17:08Z</time></trkpt><trkpt lat="59.6306275763" lon="31.0537290014"><ele>38.68</ele><time>2026-08-12T01:17:27Z</time></trkpt><trkpt lat="59.6306436695" lon="31.0536604375"><ele>38.62</ele><time>2026-08-12T01:17:44Z</time></trkpt><trkpt lat="59.6306283306" lon="31.0535709187"><ele>38.34</ele><time>2026-08-12T01:18:06Z</time></trkpt><trkpt lat="59.6306145005" lon="31.0536166839"><ele>38.04</ele><time>2026-08-12T01:18:28Z</time></trkpt><trkpt lat="59.6306218766" lon="31.0535609443"><ele>38.60</ele><time>2026-08-12T01:18:57Z</time></trkpt><trkpt lat="59.6305891033" lon="31.0535790492"><ele>38.55</ele><time>2026-08-12T01:19:21Z</time></trkpt><trkpt lat="59.6305753570" lon="31.0536018480"><ele>39.34</ele><time>2026-08-12T01:19:46Z</time></trkpt><trkpt lat="59.6305378899" lon="31.0535851680"><ele>39.98</ele><time>2026-08-12T01:20:12Z</time></trkpt><trkpt lat="59.6305096429" lon="31.0536182765"><ele>39.46</ele><time>2026-08-12T01:20:41Z</time></trkpt><trkpt lat="59.6305437572" lon="31.0535813961"><ele>38.93</ele><time>2026-08-12T01:21:05Z</time></trkpt><trkpt lat="59.6305808891" lon="31.0535399895"><ele>37.38</ele><time>2026-08-12T01:21:30Z</time></trkpt><trkpt lat="59.6306419093" lon="31.0534906201"><ele>37.64</ele><time>2026-08-12T01:21:55Z</time></trkpt><trkpt lat="59.6306621097" lon="31.0534958169"><ele>38.09</ele><time>2026-08-12T01:22:23Z</time></trkpt><trkpt lat="59.6306774486" lon="31.0535244830"><ele>38.83</ele><time>2026-08-12T01:22:51Z</time></trkpt><trkpt lat="59.6307067852" lon="31.0535034444"><ele>39.37</ele><time>2026-08-12T01:23:21Z</time></trkpt><trkpt lat="59.6306746826" lon="31.0534389038"><ele>41.10</ele><time>2026-08-12T01:23:48Z</time></trkpt><trkpt lat="59.6306881774" lon="31.0533581022"><ele>39.51</ele><time>2026-08-12T01:24:13Z</time></trkpt><trkpt lat="59.6306459326" lon="31.0533700045"><ele>40.02</ele><time>2026-08-12T01:24:37Z</time></trkpt><trkpt lat="59.6306417417" lon="31.0533746984"><ele>39.28</ele><time>2026-08-12T01:24:53Z</time></trkpt><trkpt lat="59.6305889357" lon="31.0533896182"><ele>38.26</ele><time>2026-08-12T01:25:18Z</time></trkpt><trkpt lat="59.6306377184" lon="31.0533972457"><ele>37.83</ele><time>2026-08-12T01:25:42Z</time></trkpt><trkpt lat="59.6306599304" lon="31.0533450264"><ele>37.95</ele><time>2026-08-12T01:26:06Z</time></trkpt><trkpt lat="59.6306346171" lon="31.0532062221"><ele>38.37</ele><time>2026-08-12T01:26:23Z</time></trkpt><trkpt lat="59.6305937134" lon="31.0531397536"><ele>38.74</ele><time>2026-08-12T01:26:39Z</time></trkpt><trkpt lat="59.6305918694" lon="31.0531486385"><ele>38.84</ele><time>2026-08-12T01:27:01Z</time></trkpt><trkpt lat="59.6305295918" lon="31.0532808211"><ele>37.96</ele><time>2026-08-12T01:27:21Z</time></trkpt><trkpt lat="59.6305258200" lon="31.0533482116"><ele>37.09</ele><time>2026-08-12T01:27:40Z</time></trkpt><trkpt lat="59.6305476129" lon="31.0533444397"><ele>37.17</ele><time>2026-08-12T01:27:57Z</time></trkpt><trkpt lat="59.6305634547" lon="31.0532833356"><ele>37.74</ele><time>2026-08-12T01:28:22Z</time></trkpt><trkpt lat="59.6305683162" lon="31.0532798991"><ele>37.76</ele><time>2026-08-12T01:28:25Z</time></trkpt><trkpt lat="59.6305481996" lon="31.0532908794"><ele>38.18</ele><time>2026-08-12T01:28:43Z</time></trkpt><trkpt lat="59.6305818111" lon="31.0532669909"><ele>38.81</ele><time>2026-08-12T01:29:08Z</time></trkpt><trkpt lat="59.6305654664" lon="31.0532354750"><ele>38.71</ele><time>2026-08-12T01:29:26Z</time></trkpt><trkpt lat="59.6305544861" lon="31.0532576870"><ele>38.68</ele><time>2026-08-12T01:29:52Z</time></trkpt><trkpt lat="59.6305930428" lon="31.0532958247"><ele>38.96</ele><time>2026-08-12T01:30:13Z</time></trkpt><trkpt lat="59.6306153387" lon="31.0532937292"><ele>39.24</ele><time>2026-08-12T01:30:27Z</time></trkpt><trkpt lat="59.6305836551" lon="31.0532485507"><ele>40.13</ele><time>2026-08-12T01:30:52Z</time></trkpt><trkpt lat="59.6305712499" lon="31.0533373989"><ele>40.57</ele><time>2026-08-12T01:31:14Z</time></trkpt><trkpt lat="59.6305805538" lon="31.0533920489"><ele>40.81</ele><time>2026-08-12T01:31:36Z</time></trkpt><trkpt lat="59.6306341141" lon="31.0535368044"><ele>40.70</ele><time>2026-08-12T01:31:55Z</time></trkpt><trkpt lat="59.6306660492" lon="31.0537508782"><ele>40.11</ele><time>2026-08-12T01:32:14Z</time></trkpt><trkpt lat="59.6306351200" lon="31.0538550653"><ele>39.73</ele><time>2026-08-12T01:32:30Z</time></trkpt><trkpt lat="59.6306393109" lon="31.0538679734"><ele>39.82</ele><time>2026-08-12T01:32:54Z</time></trkpt><trkpt lat="59.6306134947" lon="31.0538996570"><ele>40.70</ele><time>2026-08-12T01:33:11Z</time></trkpt><trkpt lat="59.6306435019" lon="31.0538944602"><ele>40.90</ele><time>2026-08-12T01:33:26Z</time></trkpt><trkpt lat="59.6306271572" lon="31.0538891796"><ele>40.97</ele><time>2026-08-12T01:33:48Z</time></trkpt><trkpt lat="59.6306723356" lon="31.0539347772"><ele>41.41</ele><time>2026-08-12T01:34:04Z</time></trkpt><trkpt lat="59.6307038516" lon="31.0538552329"><ele>41.32</ele><time>2026-08-12T01:34:23Z</time></trkpt><trkpt lat="59.6306662168" lon="31.0537565779"><ele>41.16</ele><time>2026-08-12T01:34:39Z</time></trkpt><trkpt lat="59.6306449268" lon="31.0537103098"><ele>41.11</ele><time>2026-08-12T01:35:01Z</time></trkpt><trkpt lat="59.6306378860" lon="31.0536750220"><ele>40.56</ele><time>2026-08-12T01:35:17Z</time></trkpt><trkpt lat="59.6306444239" lon="31.0535952263"><ele>40.45</ele><time>2026-08-12T01:35:38Z</time></trkpt><trkpt lat="59.6306574997" lon="31.0534292646"><ele>40.91</ele><time>2026-08-12T01:35:59Z</time></trkpt><trkpt lat="59.6306583378" lon="31.0533818230"><ele>41.38</ele><time>2026-08-12T01:36:07Z</time></trkpt><trkpt lat="59.6306369640" lon="31.0532810725"><ele>41.35</ele><time>2026-08-12T01:36:34Z</time></trkpt><trkpt lat="59.6306571644" lon="31.0532853473"><ele>42.70</ele><time>2026-08-12T01:36:54Z</time></trkpt><trkpt lat="59.6306911949" lon="31.0533600301"><ele>43.95</ele><time>2026-08-12T01:37:16Z</time></trkpt><trkpt lat="59.6306963079" lon="31.0534860101"><ele>45.43</ele><time>2026-08-12T01:37:41Z</time></trkpt><trkpt lat="59.6306921169" lon="31.0536223836"><ele>46.09</ele><time>2026-08-12T01:38:00Z</time></trkpt><trkpt lat="59.6306628641" lon="31.0536892712"><ele>46.18</ele><time>2026-08-12T01:38:22Z</time></trkpt><trkpt lat="59.6306856629" lon="31.0536500439"><ele>46.13</ele><time>2026-08-12T01:38:40Z</time></trkpt><trkpt lat="59.6306696534" lon="31.0536974017"><ele>46.00</ele><time>2026-08-12T01:39:02Z</time></trkpt><trkpt lat="59.6307475213" lon="31.0537518840"><ele>45.48</ele><time>2026-08-12T01:39:24Z</time></trkpt><trkpt lat="59.6307685599" lon="31.0537872557"><ele>46.17</ele><time>2026-08-12T01:39:48Z</time></trkpt><trkpt lat="59.6308196057" lon="31.0538927838"><ele>47.06</ele><time>2026-08-12T01:40:09Z</time></trkpt><trkpt lat="59.6308406442" lon="31.0539398901"><ele>47.49</ele><time>2026-08-12T01:40:24Z</time></trkpt><trkpt lat="59.6308619343" lon="31.0540323425"><ele>47.73</ele><time>2026-08-12T01:40:44Z</time></trkpt><trkpt lat="59.6308806259" lon="31.0540808737"><ele>47.89</ele><time>2026-08-12T01:41:06Z</time></trkpt><trkpt lat="59.6309008263" lon="31.0540957935"><ele>47.67</ele><time>2026-08-12T01:41:23Z</time></trkpt><trkpt lat="59.6309403051" lon="31.0541530419"><ele>47.55</ele><time>2026-08-12T01:41:42Z</time></trkpt><trkpt lat="59.6309318393" lon="31.0541468393"><ele>47.71</ele><time>2026-08-12T01:41:58Z</time></trkpt><trkpt lat="59.6309414785" lon="31.0542321671"><ele>48.21</ele><time>2026-08-12T01:42:13Z</time></trkpt><trkpt lat="59.6309382096" lon="31.0542437341"><ele>48.41</ele><time>2026-08-12T01:42:23Z</time></trkpt><trkpt lat="59.6309366170" lon="31.0542486794"><ele>48.32</ele><time>2026-08-12T01:42:44Z</time></trkpt><trkpt lat="59.6309378743" lon="31.0542824585"><ele>48.02</ele><time>2026-08-12T01:43:08Z</time></trkpt><trkpt lat="59.6309346892" lon="31.0543228593"><ele>48.03</ele><time>2026-08-12T01:43:36Z</time></trkpt><trkpt lat="59.6309302468" lon="31.0543801077"><ele>48.44</ele><time>2026-08-12T01:44:04Z</time></trkpt><trkpt lat="59.6309749223" lon="31.0543996375"><ele>48.96</ele><time>2026-08-12T01:44:23Z</time></trkpt><trkpt lat="59.6310522873" lon="31.0543552134"><ele>49.24</ele><time>2026-08-12T01:44:33Z</time></trkpt><trkpt lat="59.6310776006" lon="31.0544493422"><ele>49.15</ele><time>2026-08-12T01:44:38Z</time></trkpt><trkpt lat="59.6310744993" lon="31.0545532778"><ele>49.00</ele><time>2026-08-12T01:44:42Z</time></trkpt><trkpt lat="59.6309878305" lon="31.0546191595"><ele>48.23</ele><time>2026-08-12T01:44:54Z</time></trkpt><trkpt lat="59.6310418099" lon="31.0546013899"><ele>48.40</ele><time>2026-08-12T01:45:05Z</time></trkpt><trkpt lat="59.6310608368" lon="31.0545249470"><ele>48.31</ele><time>2026-08-12T01:45:09Z</time></trkpt><trkpt lat="59.6310662013" lon="31.0544881504"><ele>48.22</ele><time>2026-08-12T01:45:11Z</time></trkpt><trkpt lat="59.6310560592" lon="31.0543953627"><ele>47.99</ele><time>2026-08-12T01:45:16Z</time></trkpt><trkpt lat="59.6310322545" lon="31.0542258807"><ele>47.78</ele><time>2026-08-12T01:45:29Z</time></trkpt><trkpt lat="59.6308815479" lon="31.0539816320"><ele>45.44</ele><time>2026-08-12T01:45:44Z</time></trkpt><trkpt lat="59.6307643689" lon="31.0537958052"><ele>44.68</ele><time>2026-08-12T01:46:02Z</time></trkpt><trkpt lat="59.6307191066" lon="31.0537710786"><ele>44.86</ele><time>2026-08-12T01:46:17Z</time></trkpt><trkpt lat="59.6306989901" lon="31.0538096353"><ele>45.07</ele><time>2026-08-12T01:46:38Z</time></trkpt><trkpt lat="59.6307625249" lon="31.0538191907"><ele>45.07</ele><time>2026-08-12T01:47:00Z</time></trkpt><trkpt lat="59.6308275685" lon="31.0538990702"><ele>45.77</ele><time>2026-08-12T01:47:22Z</time></trkpt><trkpt lat="59.6308805421" lon="31.0539112240"><ele>45.74</ele><time>2026-08-12T01:47:36Z</time></trkpt><trkpt lat="59.6308921929" lon="31.0538635310"><ele>45.63</ele><time>2026-08-12T01:47:42Z</time></trkpt><trkpt lat="59.6308747586" lon="31.0538529698"><ele>45.75</ele><time>2026-08-12T01:48:09Z</time></trkpt><trkpt lat="59.6308472659" lon="31.0539048538"><ele>45.67</ele><time>2026-08-12T01:48:39Z</time></trkpt><trkpt lat="59.6308331843" lon="31.0539032612"><ele>45.87</ele><time>2026-08-12T01:49:04Z</time></trkpt><trkpt lat="59.6308519598" lon="31.0538800433"><ele>46.96</ele><time>2026-08-12T01:49:29Z</time></trkpt><trkpt lat="59.6308659576" lon="31.0539171752"><ele>48.48</ele><time>2026-08-12T01:49:56Z</time></trkpt><trkpt lat="59.6308919415" lon="31.0539201926"><ele>48.82</ele><time>2026-08-12T01:50:22Z</time></trkpt><trkpt lat="59.6308588330" lon="31.0538480245"><ele>50.54</ele><time>2026-08-12T01:50:50Z</time></trkpt><trkpt lat="59.6307848208" lon="31.0536955576"><ele>52.03</ele><time>2026-08-12T01:51:14Z</time></trkpt><trkpt lat="59.6307320986" lon="31.0536127444"><ele>51.49</ele><time>2026-08-12T01:51:33Z</time></trkpt><trkpt lat="59.6307478566" lon="31.0534920450"><ele>51.17</ele><time>2026-08-12T01:51:47Z</time></trkpt><trkpt lat="59.6307699848" lon="31.0533574317"><ele>50.33</ele><time>2026-08-12T01:52:04Z</time></trkpt><trkpt lat="59.6306413226" lon="31.0533084814"><ele>49.10</ele><time>2026-08-12T01:52:27Z</time></trkpt><trkpt lat="59.6305076312" lon="31.0534188710"><ele>48.93</ele><time>2026-08-12T01:52:49Z</time></trkpt><trkpt lat="59.6304140054" lon="31.0533547495"><ele>48.78</ele><time>2026-08-12T01:53:05Z</time></trkpt><trkpt lat="59.6305017639" lon="31.0533553362"><ele>48.30</ele><time>2026-08-12T01:53:24Z</time></trkpt><trkpt lat="59.6305993292" lon="31.0532894544"><ele>47.40</ele><time>2026-08-12T01:53:41Z</time></trkpt><trkpt lat="59.6306761913" lon="31.0532950703"><ele>46.92</ele><time>2026-08-12T01:53:56Z</time></trkpt><trkpt lat="59.6306730062" lon="31.0536145046"><ele>45.64</ele><time>2026-08-12T01:54:16Z</time></trkpt><trkpt lat="59.6307199448" lon="31.0537071247"><ele>45.31</ele><time>2026-08-12T01:54:25Z</time></trkpt><trkpt lat="59.6308345255" lon="31.0539367050"><ele>44.01</ele><time>2026-08-12T01:54:45Z</time></trkpt><trkpt lat="59.6308869962" lon="31.0539865773"><ele>43.54</ele><time>2026-08-12T01:55:07Z</time></trkpt><trkpt lat="59.6308844816" lon="31.0539447516"><ele>43.53</ele><time>2026-08-12T01:55:38Z</time></trkpt><trkpt lat="59.6308781113" lon="31.0539485235"><ele>44.52</ele><time>2026-08-12T01:56:12Z</time></trkpt><trkpt lat="59.6308164205" lon="31.0538717452"><ele>45.73</ele><time>2026-08-12T01:56:34Z</time></trkpt><trkpt lat="59.6308021713" lon="31.0538250580"><ele>47.69</ele><time>2026-08-12T01:56:55Z</time></trkpt><trkpt lat="59.6307787858" lon="31.0537886806"><ele>48.44</ele><time>2026-08-12T01:57:17Z</time></trkpt><trkpt lat="59.6307244711" lon="31.0537347011"><ele>48.09</ele><time>2026-08-12T01:57:38Z</time></trkpt><trkpt lat="59.6306937933" lon="31.0536666401"><ele>48.07</ele><time>2026-08-12T01:57:59Z</time></trkpt><trkpt lat="59.6306547336" lon="31.0536601022"><ele>47.74</ele><time>2026-08-12T01:58:14Z</time></trkpt><trkpt lat="59.6306745987" lon="31.0536426678"><ele>47.99</ele><time>2026-08-12T01:58:35Z</time></trkpt><trkpt lat="59.6306944638" lon="31.0536218807"><ele>47.73</ele><time>2026-08-12T01:58:57Z</time></trkpt><trkpt lat="59.6307032648" lon="31.0535240639"><ele>47.72</ele><time>2026-08-12T01:59:08Z</time></trkpt><trkpt lat="59.6306854952" lon="31.0533466190"><ele>46.90</ele><time>2026-08-12T01:59:28Z</time></trkpt><trkpt lat="59.6306667197" lon="31.0532552563"><ele>47.12</ele><time>2026-08-12T01:59:50Z</time></trkpt><trkpt lat="59.6306398977" lon="31.0532643087"><ele>46.96</ele><time>2026-08-12T02:00:15Z</time></trkpt><trkpt lat="59.6306346171" lon="31.0532815754"><ele>46.81</ele><time>2026-08-12T02:00:27Z</time></trkpt><trkpt lat="59.6306084655" lon="31.0533355549"><ele>46.88</ele><time>2026-08-12T02:00:48Z</time></trkpt><trkpt lat="59.6305471938" lon="31.0533611197"><ele>46.71</ele><time>2026-08-12T02:01:23Z</time></trkpt><trkpt lat="59.6332734916" lon="31.0313665029"><ele>43.91</ele><time>2026-08-12T03:30:33Z</time></trkpt></trkseg><trkseg><trkpt lat="59.6332671214" lon="31.0314233322"><ele>43.15</ele><time>2026-08-12T03:31:13Z</time></trkpt><trkpt lat="59.6332693845" lon="31.0314234998"><ele>43.06</ele><time>2026-08-12T03:31:16Z</time></trkpt></trkseg><trkseg><trkpt lat="59.3506184500" lon="34.6994408872"><ele>170.71</ele><time>2026-08-14T23:41:57Z</time></trkpt><trkpt lat="59.3505886104" lon="34.6994267218"><ele>164.04</ele><time>2026-08-14T23:42:22Z</time></trkpt><trkpt lat="59.3505786359" lon="34.6994195972"><ele>162.36</ele><time>2026-08-14T23:42:55Z</time></trkpt><trkpt lat="59.3505723495" lon="34.6994015761"><ele>162.78</ele><time>2026-08-14T23:43:35Z</time></trkpt><trkpt lat="59.3505853415" lon="34.6993776876"><ele>162.03</ele><time>2026-08-14T23:44:05Z</time></trkpt><trkpt lat="59.3505625427" lon="34.6993948705"><ele>162.85</ele><time>2026-08-14T23:44:37Z</time></trkpt><trkpt lat="59.3505560048" lon="34.6994340140"><ele>163.60</ele><time>2026-08-14T23:45:11Z</time></trkpt><trkpt lat="59.3505505566" lon="34.6994232852"><ele>163.37</ele><time>2026-08-14T23:45:45Z</time></trkpt><trkpt lat="59.3505439349" lon="34.6994366124"><ele>163.26</ele><time>2026-08-14T23:46:14Z</time></trkpt><trkpt lat="59.3505685776" lon="34.6994189266"><ele>163.12</ele><time>2026-08-14T23:46:44Z</time></trkpt><trkpt lat="59.3505703378" lon="34.6993898414"><ele>162.41</ele><time>2026-08-14T23:47:13Z</time></trkpt><trkpt lat="59.3505503051" lon="34.6993978880"><ele>161.99</ele><time>2026-08-14T23:47:46Z</time></trkpt><trkpt lat="59.3505669851" lon="34.6994182561"><ele>161.58</ele><time>2026-08-14T23:48:18Z</time></trkpt><trkpt lat="59.3505697511" lon="34.6994160768"><ele>161.42</ele><time>2026-08-14T23:48:52Z</time></trkpt><trkpt lat="59.3505722657" lon="34.6994241234"><ele>160.28</ele><time>2026-08-14T23:49:23Z</time></trkpt><trkpt lat="59.3505614530" lon="34.6994030010"><ele>159.28</ele><time>2026-08-14T23:49:50Z</time></trkpt><trkpt lat="59.3505607825" lon="34.6994064376"><ele>159.37</ele><time>2026-08-14T23:50:22Z</time></trkpt><trkpt lat="59.3505340442" lon="34.6994013246"><ele>160.01</ele><time>2026-08-14T23:50:58Z</time></trkpt><trkpt lat="59.3505506404" lon="34.6994017437"><ele>159.67</ele><time>2026-08-14T23:51:33Z</time></trkpt><trkpt lat="59.3505494669" lon="34.6993946191"><ele>158.30</ele><time>2026-08-14T23:52:13Z</time></trkpt><trkpt lat="59.3505444378" lon="34.6994100418"><ele>158.64</ele><time>2026-08-14T23:52:52Z</time></trkpt><trkpt lat="59.3505679071" lon="34.6994111314"><ele>158.62</ele><time>2026-08-14T23:53:24Z</time></trkpt><trkpt lat="59.3505756184" lon="34.6994266380"><ele>157.84</ele><time>2026-08-14T23:53:50Z</time></trkpt><trkpt lat="59.3505526520" lon="34.6994022466"><ele>159.42</ele><time>2026-08-14T23:54:18Z</time></trkpt><trkpt lat="59.3505528197" lon="34.6993900090"><ele>160.17</ele><time>2026-08-14T23:54:50Z</time></trkpt><trkpt lat="59.3505477905" lon="34.6993966307"><ele>160.67</ele><time>2026-08-14T23:55:23Z</time></trkpt><trkpt lat="59.3505549151" lon="34.6993817948"><ele>160.58</ele><time>2026-08-14T23:56:03Z</time></trkpt><trkpt lat="59.3505627941" lon="34.6993971337"><ele>160.41</ele><time>2026-08-14T23:57:08Z</time></trkpt><trkpt lat="59.3505694997" lon="34.6993671264"><ele>160.61</ele><time>2026-08-14T23:57:39Z</time></trkpt><trkpt lat="59.3505459465" lon="34.6993794478"><ele>160.19</ele><time>2026-08-14T23:58:08Z</time></trkpt><trkpt lat="59.3505496345" lon="34.6993947029"><ele>160.74</ele><time>2026-08-14T23:58:39Z</time></trkpt><trkpt lat="59.3505488802" lon="34.6994179208"><ele>162.53</ele><time>2026-08-14T23:59:17Z</time></trkpt><trkpt lat="59.3505497184" lon="34.6994265541"><ele>162.62</ele><time>2026-08-14T23:59:46Z</time></trkpt><trkpt lat="59.3505746964" lon="34.6993788611"><ele>162.46</ele><time>2026-08-15T00:00:18Z</time></trkpt><trkpt lat="59.3505516462" lon="34.6993902605"><ele>163.26</ele><time>2026-08-15T00:00:49Z</time></trkpt><trkpt lat="59.3505539093" lon="34.6994211059"><ele>163.00</ele><time>2026-08-15T00:01:19Z</time></trkpt><trkpt lat="59.3505482096" lon="34.6994178370"><ele>162.97</ele><time>2026-08-15T00:01:44Z</time></trkpt><trkpt lat="59.3505601957" lon="34.6993926074"><ele>162.75</ele><time>2026-08-15T00:02:11Z</time></trkpt><trkpt lat="59.3505316135" lon="34.6993028373"><ele>161.18</ele><time>2026-08-15T00:02:48Z</time></trkpt><trkpt lat="59.3505411688" lon="34.6993370354"><ele>161.58</ele><time>2026-08-15T00:03:27Z</time></trkpt><trkpt lat="59.3505451083" lon="34.6993587445"><ele>161.56</ele><time>2026-08-15T00:03:55Z</time></trkpt><trkpt lat="59.3505494669" lon="34.6993749216"><ele>160.89</ele><time>2026-08-15T00:04:26Z</time></trkpt><trkpt lat="59.3505560048" lon="34.6993778553"><ele>160.50</ele><time>2026-08-15T00:04:56Z</time></trkpt><trkpt lat="59.3505548313" lon="34.6993781067"><ele>160.75</ele><time>2026-08-15T00:05:27Z</time></trkpt><trkpt lat="59.3505396601" lon="34.6993719880"><ele>162.08</ele><time>2026-08-15T00:05:59Z</time></trkpt><trkpt lat="59.3505622912" lon="34.6994467545"><ele>161.94</ele><time>2026-08-15T00:06:18Z</time></trkpt><trkpt lat="59.3505598605" lon="34.6994736604"><ele>161.91</ele><time>2026-08-15T00:06:47Z</time></trkpt><trkpt lat="59.3505783845" lon="34.6994609199"><ele>161.42</ele><time>2026-08-15T00:07:17Z</time></trkpt><trkpt lat="59.3505736068" lon="34.6994758397"><ele>161.33</ele><time>2026-08-15T00:07:49Z</time></trkpt><trkpt lat="59.3505655602" lon="34.6994676255"><ele>161.30</ele><time>2026-08-15T00:08:16Z</time></trkpt><trkpt lat="59.3505614530" lon="34.6994688828"><ele>161.57</ele><time>2026-08-15T00:08:45Z</time></trkpt><trkpt lat="59.3505575135" lon="34.6994727384"><ele>162.66</ele><time>2026-08-15T00:09:31Z</time></trkpt><trkpt lat="59.3505666498" lon="34.6994798630"><ele>163.26</ele><time>2026-08-15T00:10:25Z</time></trkpt><trkpt lat="59.3505610339" lon="34.6994563099"><ele>163.67</ele><time>2026-08-15T00:10:59Z</time></trkpt><trkpt lat="59.3506110739" lon="34.6995204315"><ele>163.70</ele><time>2026-08-15T00:11:24Z</time></trkpt><trkpt lat="59.3506622873" lon="34.6997363493"><ele>163.28</ele><time>2026-08-15T00:11:46Z</time></trkpt><trkpt lat="59.3506689090" lon="34.6997482516"><ele>163.18</ele><time>2026-08-15T00:12:07Z</time></trkpt><trkpt lat="59.3506676517" lon="34.6997569688"><ele>162.73</ele><time>2026-08-15T00:12:41Z</time></trkpt><trkpt lat="59.3506686576" lon="34.6997390315"><ele>162.47</ele><time>2026-08-15T00:13:12Z</time></trkpt><trkpt lat="59.3506669812" lon="34.6997276321"><ele>162.90</ele><time>2026-08-15T00:13:47Z</time></trkpt><trkpt lat="59.3506729323" lon="34.6997382771"><ele>162.37</ele><time>2026-08-15T00:14:16Z</time></trkpt><trkpt lat="59.3506886065" lon="34.6997561306"><ele>163.06</ele><time>2026-08-15T00:14:45Z</time></trkpt><trkpt lat="59.3506774586" lon="34.6997604892"><ele>162.40</ele><time>2026-08-15T00:15:19Z</time></trkpt><trkpt lat="59.3506493792" lon="34.6996736526"><ele>160.94</ele><time>2026-08-15T00:15:55Z</time></trkpt><trkpt lat="59.3506402429" lon="34.6996491775"><ele>160.78</ele><time>2026-08-15T00:15:57Z</time></trkpt><trkpt lat="59.3505845871" lon="34.6994386241"><ele>160.35</ele><time>2026-08-15T00:16:12Z</time></trkpt><trkpt lat="59.3505660631" lon="34.6994254645"><ele>160.25</ele><time>2026-08-15T00:16:25Z</time></trkpt><trkpt lat="59.3505678233" lon="34.6995120496"><ele>160.05</ele><time>2026-08-15T00:16:41Z</time></trkpt><trkpt lat="59.3505585194" lon="34.6995185036"><ele>160.55</ele><time>2026-08-15T00:17:15Z</time></trkpt><trkpt lat="59.3505906221" lon="34.6995461639"><ele>161.24</ele><time>2026-08-15T00:17:42Z</time></trkpt><trkpt lat="59.3506120797" lon="34.6995890792"><ele>161.20</ele><time>2026-08-15T00:17:45Z</time></trkpt><trkpt lat="59.3506872654" lon="34.6997196693"><ele>161.02</ele><time>2026-08-15T00:17:59Z</time></trkpt><trkpt lat="59.3506710883" lon="34.6997025702"><ele>161.29</ele><time>2026-08-15T00:18:19Z</time></trkpt><trkpt lat="59.3505860958" lon="34.6995299030"><ele>160.94</ele><time>2026-08-15T00:18:37Z</time></trkpt><trkpt lat="59.3505795579" lon="34.6995365247"><ele>161.11</ele><time>2026-08-15T00:19:01Z</time></trkpt><trkpt lat="59.3505618721" lon="34.6995627601"><ele>162.05</ele><time>2026-08-15T00:19:29Z</time></trkpt><trkpt lat="59.3505626265" lon="34.6995755844"><ele>162.01</ele><time>2026-08-15T00:19:52Z</time></trkpt><trkpt lat="59.3505576812" lon="34.6995630953"><ele>162.07</ele><time>2026-08-15T00:20:28Z</time></trkpt><trkpt lat="59.3505593576" lon="34.6995806973"><ele>161.72</ele><time>2026-08-15T00:20:53Z</time></trkpt><trkpt lat="59.3505469523" lon="34.6995870676"><ele>161.76</ele><time>2026-08-15T00:21:15Z</time></trkpt><trkpt lat="59.3505456951" lon="34.6996140573"><ele>163.15</ele><time>2026-08-15T00:21:46Z</time></trkpt><trkpt lat="59.3505546637" lon="34.6996164043"><ele>163.29</ele><time>2026-08-15T00:22:16Z</time></trkpt><trkpt lat="59.3505140115" lon="34.6995437331"><ele>163.92</ele><time>2026-08-15T00:22:40Z</time></trkpt><trkpt lat="59.3505994231" lon="34.6996087767"><ele>163.75</ele><time>2026-08-15T00:22:56Z</time></trkpt><trkpt lat="59.3507565837" lon="34.7000490781"><ele>163.60</ele><time>2026-08-15T00:23:13Z</time></trkpt><trkpt lat="59.3509182706" lon="34.7009648010"><ele>164.78</ele><time>2026-08-15T00:23:31Z</time></trkpt><trkpt lat="59.3510321807" lon="34.7019136325"><ele>165.07</ele><time>2026-08-15T00:23:49Z</time></trkpt><trkpt lat="59.3510413170" lon="34.7028158605"><ele>164.61</ele><time>2026-08-15T00:24:06Z</time></trkpt><trkpt lat="59.3510735035" lon="34.7039622534"><ele>162.77</ele><time>2026-08-15T00:24:26Z</time></trkpt><trkpt lat="59.3511227891" lon="34.7052622028"><ele>163.16</ele><time>2026-08-15T00:24:48Z</time></trkpt><trkpt lat="59.3511652015" lon="34.7064154688"><ele>164.79</ele><time>2026-08-15T00:25:07Z</time></trkpt><trkpt lat="59.3513159920" lon="34.7074995004"><ele>165.24</ele><time>2026-08-15T00:25:24Z</time></trkpt><trkpt lat="59.3517107796" lon="34.7076859977"><ele>164.78</ele><time>2026-08-15T00:25:36Z</time></trkpt><trkpt lat="59.3519237638" lon="34.7078482714"><ele>164.09</ele><time>2026-08-15T00:25:47Z</time></trkpt><trkpt lat="59.3519514240" lon="34.7078816313"><ele>163.63</ele><time>2026-08-15T00:25:55Z</time></trkpt><trkpt lat="59.3521229178" lon="34.7079138178"><ele>163.36</ele><time>2026-08-15T00:26:08Z</time></trkpt><trkpt lat="59.3521387596" lon="34.7079170030"><ele>163.29</ele><time>2026-08-15T00:26:11Z</time></trkpt><trkpt lat="59.3521691859" lon="34.7078408115"><ele>162.96</ele><time>2026-08-15T00:26:15Z</time></trkpt><trkpt lat="59.3522861972" lon="34.7070106678"><ele>159.81</ele><time>2026-08-15T00:26:31Z</time></trkpt><trkpt lat="59.3522654101" lon="34.7066637408"><ele>158.74</ele><time>2026-08-15T00:26:43Z</time></trkpt><trkpt lat="59.3522761390" lon="34.7067413572"><ele>159.27</ele><time>2026-08-15T00:26:54Z</time></trkpt><trkpt lat="59.3522765581" lon="34.7067742143"><ele>158.61</ele><time>2026-08-15T00:26:59Z</time></trkpt><trkpt lat="59.3523334712" lon="34.7066130303"><ele>157.40</ele><time>2026-08-15T00:27:06Z</time></trkpt><trkpt lat="59.3525423482" lon="34.7059414722"><ele>155.68</ele><time>2026-08-15T00:27:28Z</time></trkpt><trkpt lat="59.3526930548" lon="34.7054779530"><ele>156.13</ele><time>2026-08-15T00:27:40Z</time></trkpt><trkpt lat="59.3529361300" lon="34.7049861867"><ele>157.19</ele><time>2026-08-15T00:27:54Z</time></trkpt><trkpt lat="59.3531351164" lon="34.7046744637"><ele>157.44</ele><time>2026-08-15T00:28:06Z</time></trkpt><trkpt lat="59.3532697298" lon="34.7042488307"><ele>158.20</ele><time>2026-08-15T00:28:18Z</time></trkpt><trkpt lat="59.3533222005" lon="34.7033551522"><ele>157.36</ele><time>2026-08-15T00:28:37Z</time></trkpt><trkpt lat="59.3533341028" lon="34.7027327120"><ele>158.66</ele><time>2026-08-15T00:28:50Z</time></trkpt><trkpt lat="59.3533771019" lon="34.7020416241"><ele>159.32</ele><time>2026-08-15T00:29:07Z</time></trkpt><trkpt lat="59.3534513656" lon="34.7011881787"><ele>159.74</ele><time>2026-08-15T00:29:30Z</time></trkpt><trkpt lat="59.3535393756" lon="34.7002107650"><ele>159.85</ele><time>2026-08-15T00:29:56Z</time></trkpt><trkpt lat="59.3536488432" lon="34.6994832996"><ele>158.52</ele><time>2026-08-15T00:30:16Z</time></trkpt><trkpt lat="59.3538190797" lon="34.6989224665"><ele>157.57</ele><time>2026-08-15T00:30:35Z</time></trkpt><trkpt lat="59.3539566267" lon="34.6985737793"><ele>155.36</ele><time>2026-08-15T00:30:49Z</time></trkpt><trkpt lat="59.3539826106" lon="34.6983882878"><ele>157.09</ele><time>2026-08-15T00:31:04Z</time></trkpt><trkpt lat="59.3539778329" lon="34.6984128468"><ele>158.00</ele><time>2026-08-15T00:31:29Z</time></trkpt><trkpt lat="59.3539809342" lon="34.6983826719"><ele>160.02</ele><time>2026-08-15T00:32:02Z</time></trkpt><trkpt lat="59.3540064991" lon="34.6981886309"><ele>160.31</ele><time>2026-08-15T00:32:39Z</time></trkpt><trkpt lat="59.3539882265" lon="34.6977916639"><ele>160.24</ele><time>2026-08-15T00:32:53Z</time></trkpt><trkpt lat="59.3538692873" lon="34.6978700347"><ele>160.10</ele><time>2026-08-15T00:33:03Z</time></trkpt><trkpt lat="59.3538156431" lon="34.6981743816"><ele>160.30</ele><time>2026-08-15T00:33:13Z</time></trkpt><trkpt lat="59.3538500927" lon="34.6982454602"><ele>160.35</ele><time>2026-08-15T00:33:17Z</time></trkpt><trkpt lat="59.3539623264" lon="34.6983833425"><ele>160.34</ele><time>2026-08-15T00:33:26Z</time></trkpt><trkpt lat="59.3539972790" lon="34.6982830111"><ele>160.24</ele><time>2026-08-15T00:33:31Z</time></trkpt><trkpt lat="59.3540840317" lon="34.6976328269"><ele>161.26</ele><time>2026-08-15T00:33:50Z</time></trkpt><trkpt lat="59.3541147094" lon="34.6970035974"><ele>162.75</ele><time>2026-08-15T00:34:08Z</time></trkpt><trkpt lat="59.3540893123" lon="34.6965058800"><ele>160.96</ele><time>2026-08-15T00:34:23Z</time></trkpt><trkpt lat="59.3540510070" lon="34.6960633993"><ele>159.49</ele><time>2026-08-15T00:34:37Z</time></trkpt><trkpt lat="59.3540230114" lon="34.6958206594"><ele>158.92</ele><time>2026-08-15T00:34:50Z</time></trkpt><trkpt lat="59.3540320639" lon="34.6959664207"><ele>162.41</ele><time>2026-08-15T00:35:11Z</time></trkpt><trkpt lat="59.3540343270" lon="34.6959720366"><ele>164.51</ele><time>2026-08-15T00:35:32Z</time></trkpt><trkpt lat="59.3540589698" lon="34.6961596236"><ele>163.55</ele><time>2026-08-15T00:35:48Z</time></trkpt><trkpt lat="59.3540595565" lon="34.6962155309"><ele>162.95</ele><time>2026-08-15T00:36:02Z</time></trkpt><trkpt lat="59.3540328182" lon="34.6961960848"><ele>162.91</ele><time>2026-08-15T00:36:05Z</time></trkpt><trkpt lat="59.3540338241" lon="34.6964035369"><ele>162.13</ele><time>2026-08-15T00:36:14Z</time></trkpt><trkpt lat="59.3541164696" lon="34.6969131567"><ele>161.10</ele><time>2026-08-15T00:36:30Z</time></trkpt><trkpt lat="59.3541252706" lon="34.6974977106"><ele>160.66</ele><time>2026-08-15T00:36:47Z</time></trkpt><trkpt lat="59.3540636636" lon="34.6980178077"><ele>161.37</ele><time>2026-08-15T00:37:02Z</time></trkpt><trkpt lat="59.3539750669" lon="34.6986452769"><ele>160.07</ele><time>2026-08-15T00:37:20Z</time></trkpt><trkpt lat="59.3538182415" lon="34.6989573352"><ele>160.93</ele><time>2026-08-15T00:37:34Z</time></trkpt><trkpt lat="59.3536926806" lon="34.6994448267"><ele>161.75</ele><time>2026-08-15T00:37:49Z</time></trkpt><trkpt lat="59.3535989709" lon="34.6999396943"><ele>163.31</ele><time>2026-08-15T00:38:06Z</time></trkpt><trkpt lat="59.3535770103" lon="34.7000756487"><ele>163.81</ele><time>2026-08-15T00:38:20Z</time></trkpt><trkpt lat="59.3535732385" lon="34.7000696976"><ele>162.68</ele><time>2026-08-15T00:38:53Z</time></trkpt><trkpt lat="59.3535297364" lon="34.7004873678"><ele>162.49</ele><time>2026-08-15T00:39:07Z</time></trkpt><trkpt lat="59.3534961250" lon="34.7009943053"><ele>162.92</ele><time>2026-08-15T00:39:21Z</time></trkpt><trkpt lat="59.3534485158" lon="34.7010673117"><ele>163.07</ele><time>2026-08-15T00:39:25Z</time></trkpt><trkpt lat="59.3532508705" lon="34.7014021687"><ele>162.65</ele><time>2026-08-15T00:39:41Z</time></trkpt><trkpt lat="59.3532342743" lon="34.7021108586"><ele>163.27</ele><time>2026-08-15T00:40:01Z</time></trkpt><trkpt lat="59.3532345258" lon="34.7026413493"><ele>162.59</ele><time>2026-08-15T00:40:17Z</time></trkpt><trkpt lat="59.3532492779" lon="34.7026979271"><ele>162.42</ele><time>2026-08-15T00:40:19Z</time></trkpt><trkpt lat="59.3532635272" lon="34.7028307803"><ele>163.25</ele><time>2026-08-15T00:40:34Z</time></trkpt><trkpt lat="59.3532694783" lon="34.7028261703"><ele>163.42</ele><time>2026-08-15T00:41:05Z</time></trkpt><trkpt lat="59.3533096276" lon="34.7029037029"><ele>162.77</ele><time>2026-08-15T00:41:18Z</time></trkpt><trkpt lat="59.3533307500" lon="34.7028274275"><ele>161.38</ele><time>2026-08-15T00:41:33Z</time></trkpt><trkpt lat="59.3533729110" lon="34.7022066638"><ele>157.68</ele><time>2026-08-15T00:41:54Z</time></trkpt><trkpt lat="59.3535594083" lon="34.7020936757"><ele>156.24</ele><time>2026-08-15T00:42:07Z</time></trkpt><trkpt lat="59.3537779246" lon="34.7021497507"><ele>152.08</ele><time>2026-08-15T00:42:21Z</time></trkpt><trkpt lat="59.3540373445" lon="34.7022044007"><ele>152.79</ele><time>2026-08-15T00:42:37Z</time></trkpt><trkpt lat="59.3540603947" lon="34.7021610662"><ele>154.41</ele><time>2026-08-15T00:42:39Z</time></trkpt><trkpt lat="59.3539111968" lon="34.7018345073"><ele>156.22</ele><time>2026-08-15T00:42:54Z</time></trkpt><trkpt lat="59.3536741566" lon="34.7014547233"><ele>158.96</ele><time>2026-08-15T00:43:11Z</time></trkpt><trkpt lat="59.3534652796" lon="34.7011696547"><ele>160.04</ele><time>2026-08-15T00:43:27Z</time></trkpt><trkpt lat="59.3534763437" lon="34.7010238096"><ele>159.39</ele><time>2026-08-15T00:43:31Z</time></trkpt><trkpt lat="59.3535348494" lon="34.7003079951"><ele>158.86</ele><time>2026-08-15T00:43:51Z</time></trkpt><trkpt lat="59.3536270503" lon="34.6996085253"><ele>159.38</ele><time>2026-08-15T00:44:11Z</time></trkpt><trkpt lat="59.3537172396" lon="34.6991197765"><ele>159.91</ele><time>2026-08-15T00:44:27Z</time></trkpt><trkpt lat="59.3537490070" lon="34.6989813074"><ele>159.45</ele><time>2026-08-15T00:44:32Z</time></trkpt><trkpt lat="59.3539375998" lon="34.6987570915"><ele>158.77</ele><time>2026-08-15T00:44:46Z</time></trkpt><trkpt lat="59.3539645895" lon="34.6985729411"><ele>156.63</ele><time>2026-08-15T00:44:53Z</time></trkpt><trkpt lat="59.3540087622" lon="34.6981706936"><ele>153.45</ele><time>2026-08-15T00:45:10Z</time></trkpt><trkpt lat="59.3541028909" lon="34.6975702140"><ele>153.46</ele><time>2026-08-15T00:45:26Z</time></trkpt><trkpt lat="59.3541163858" lon="34.6970206127"><ele>153.34</ele><time>2026-08-15T00:45:41Z</time></trkpt><trkpt lat="59.3540846184" lon="34.6964824107"><ele>154.15</ele><time>2026-08-15T00:45:56Z</time></trkpt><trkpt lat="59.3540172279" lon="34.6959045622"><ele>154.49</ele><time>2026-08-15T00:46:13Z</time></trkpt><trkpt lat="59.3540438823" lon="34.6956430469"><ele>154.07</ele><time>2026-08-15T00:46:24Z</time></trkpt><trkpt lat="59.3540008832" lon="34.6955443919"><ele>152.70</ele><time>2026-08-15T00:46:30Z</time></trkpt><trkpt lat="59.3540087622" lon="34.6952669509"><ele>151.40</ele><time>2026-08-15T00:46:40Z</time></trkpt><trkpt lat="59.3539900705" lon="34.6949538868"><ele>149.99</ele><time>2026-08-15T00:46:52Z</time></trkpt><trkpt lat="59.3540009670" lon="34.6949104685"><ele>149.79</ele><time>2026-08-15T00:46:54Z</time></trkpt><trkpt lat="59.3540079240" lon="34.6945371386"><ele>147.00</ele><time>2026-08-15T00:47:08Z</time></trkpt><trkpt lat="59.3540461455" lon="34.6942957398"><ele>145.40</ele><time>2026-08-15T00:47:16Z</time></trkpt><trkpt lat="59.3540437147" lon="34.6940959990"><ele>144.25</ele><time>2026-08-15T00:47:22Z</time></trkpt><trkpt lat="59.3540973589" lon="34.6937516704"><ele>140.72</ele><time>2026-08-15T00:47:33Z</time></trkpt><trkpt lat="59.3541505001" lon="34.6933470760"><ele>140.53</ele><time>2026-08-15T00:47:46Z</time></trkpt><trkpt lat="59.3541658390" lon="34.6929490194"><ele>138.93</ele><time>2026-08-15T00:47:59Z</time></trkpt><trkpt lat="59.3541571219" lon="34.6927096322"><ele>138.22</ele><time>2026-08-15T00:48:05Z</time></trkpt><trkpt lat="59.3542851135" lon="34.6922451071"><ele>137.54</ele><time>2026-08-15T00:48:19Z</time></trkpt><trkpt lat="59.3543233350" lon="34.6920427680"><ele>135.95</ele><time>2026-08-15T00:48:27Z</time></trkpt><trkpt lat="59.3543431163" lon="34.6919744555"><ele>136.27</ele><time>2026-08-15T00:48:29Z</time></trkpt><trkpt lat="59.3544815853" lon="34.6916613914"><ele>136.76</ele><time>2026-08-15T00:48:41Z</time></trkpt><trkpt lat="59.3545300327" lon="34.6915078349"><ele>136.98</ele><time>2026-08-15T00:48:47Z</time></trkpt><trkpt lat="59.3546552584" lon="34.6913630795"><ele>135.75</ele><time>2026-08-15T00:48:57Z</time></trkpt><trkpt lat="59.3547204696" lon="34.6913326532"><ele>134.08</ele><time>2026-08-15T00:49:02Z</time></trkpt><trkpt lat="59.3547937274" lon="34.6913819388"><ele>133.61</ele><time>2026-08-15T00:49:06Z</time></trkpt><trkpt lat="59.3550475314" lon="34.6914385166"><ele>135.18</ele><time>2026-08-15T00:49:20Z</time></trkpt><trkpt lat="59.3551740143" lon="34.6913504228"><ele>137.16</ele><time>2026-08-15T00:49:29Z</time></trkpt><trkpt lat="59.3553334381" lon="34.6912425477"><ele>134.31</ele><time>2026-08-15T00:49:39Z</time></trkpt><trkpt lat="59.3553997390" lon="34.6912207548"><ele>134.02</ele><time>2026-08-15T00:49:43Z</time></trkpt><trkpt lat="59.3554463424" lon="34.6911457367"><ele>132.82</ele><time>2026-08-15T00:49:47Z</time></trkpt><trkpt lat="59.3555890862" lon="34.6909109596"><ele>130.56</ele><time>2026-08-15T00:49:57Z</time></trkpt><trkpt lat="59.3557947781" lon="34.6906481031"><ele>130.42</ele><time>2026-08-15T00:50:09Z</time></trkpt><trkpt lat="59.3558604922" lon="34.6905749291"><ele>129.29</ele><time>2026-08-15T00:50:14Z</time></trkpt><trkpt lat="59.3558791000" lon="34.6905595064"><ele>128.57</ele><time>2026-08-15T00:50:16Z</time></trkpt><trkpt lat="59.3559687864" lon="34.6905422397"><ele>127.48</ele><time>2026-08-15T00:50:22Z</time></trkpt><trkpt lat="59.3560215086" lon="34.6904905234"><ele>126.12</ele><time>2026-08-15T00:50:26Z</time></trkpt><trkpt lat="59.3561864644" lon="34.6903927904"><ele>124.96</ele><time>2026-08-15T00:50:37Z</time></trkpt><trkpt lat="59.3564842734" lon="34.6903221309"><ele>127.62</ele><time>2026-08-15T00:50:53Z</time></trkpt><trkpt lat="59.3566654064" lon="34.6901124995"><ele>129.88</ele><time>2026-08-15T00:51:08Z</time></trkpt><trkpt lat="59.3568793964" lon="34.6898120921"><ele>131.42</ele><time>2026-08-15T00:51:22Z</time></trkpt><trkpt lat="59.3569809850" lon="34.6897840966"><ele>132.55</ele><time>2026-08-15T00:51:27Z</time></trkpt><trkpt lat="59.3572498765" lon="34.6896672528"><ele>135.01</ele><time>2026-08-15T00:51:40Z</time></trkpt><trkpt lat="59.3574621063" lon="34.6894562803"><ele>134.18</ele><time>2026-08-15T00:51:56Z</time></trkpt><trkpt lat="59.3577863183" lon="34.6890992951"><ele>130.35</ele><time>2026-08-15T00:52:16Z</time></trkpt><trkpt lat="59.3579658587" lon="34.6887990553"><ele>129.66</ele><time>2026-08-15T00:52:28Z</time></trkpt><trkpt lat="59.3580558803" lon="34.6886309981"><ele>130.72</ele><time>2026-08-15T00:52:35Z</time></trkpt><trkpt lat="59.3581220135" lon="34.6885029227"><ele>131.82</ele><time>2026-08-15T00:52:39Z</time></trkpt><trkpt lat="59.3581982888" lon="34.6883108094"><ele>132.14</ele><time>2026-08-15T00:52:44Z</time></trkpt><trkpt lat="59.3582427967" lon="34.6881794650"><ele>130.56</ele><time>2026-08-15T00:52:49Z</time></trkpt><trkpt lat="59.3582831137" lon="34.6880684048"><ele>129.89</ele><time>2026-08-15T00:52:53Z</time></trkpt><trkpt lat="59.3583434634" lon="34.6878963243"><ele>127.08</ele><time>2026-08-15T00:52:59Z</time></trkpt><trkpt lat="59.3584073335" lon="34.6877472103"><ele>124.46</ele><time>2026-08-15T00:53:05Z</time></trkpt><trkpt lat="59.3584665935" lon="34.6875286940"><ele>121.36</ele><time>2026-08-15T00:53:13Z</time></trkpt><trkpt lat="59.3586095888" lon="34.6872040629"><ele>122.13</ele><time>2026-08-15T00:53:28Z</time></trkpt><trkpt lat="59.3587812502" lon="34.6871152148"><ele>120.82</ele><time>2026-08-15T00:53:40Z</time></trkpt><trkpt lat="59.3590481300" lon="34.6871479880"><ele>125.49</ele><time>2026-08-15T00:53:53Z</time></trkpt><trkpt lat="59.3590806518" lon="34.6871510055"><ele>126.63</ele><time>2026-08-15T00:53:55Z</time></trkpt><trkpt lat="59.3592249881" lon="34.6871547773"><ele>132.24</ele><time>2026-08-15T00:54:10Z</time></trkpt><trkpt lat="59.3594229687" lon="34.6871735528"><ele>134.70</ele><time>2026-08-15T00:54:27Z</time></trkpt><trkpt lat="59.3596041016" lon="34.6872128639"><ele>135.09</ele><time>2026-08-15T00:54:39Z</time></trkpt><trkpt lat="59.3596367911" lon="34.6872015484"><ele>133.77</ele><time>2026-08-15T00:54:42Z</time></trkpt><trkpt lat="59.3598054349" lon="34.6871330682"><ele>129.75</ele><time>2026-08-15T00:54:53Z</time></trkpt><trkpt lat="59.3599513639" lon="34.6871067490"><ele>129.60</ele><time>2026-08-15T00:55:00Z</time></trkpt><trkpt lat="59.3599797785" lon="34.6870906558"><ele>129.82</ele><time>2026-08-15T00:55:02Z</time></trkpt><trkpt lat="59.3601835426" lon="34.6870365087"><ele>137.86</ele><time>2026-08-15T00:55:17Z</time></trkpt><trkpt lat="59.3602059223" lon="34.6870381013"><ele>138.77</ele><time>2026-08-15T00:55:30Z</time></trkpt><trkpt lat="59.3604722153" lon="34.6868819464"><ele>153.97</ele><time>2026-08-15T00:55:52Z</time></trkpt><trkpt lat="59.3605070841" lon="34.6868638415"><ele>153.86</ele><time>2026-08-15T00:55:57Z</time></trkpt><trkpt lat="59.3606027216" lon="34.6867677011"><ele>152.87</ele><time>2026-08-15T00:56:04Z</time></trkpt><trkpt lat="59.3606439605" lon="34.6866541263"><ele>152.59</ele><time>2026-08-15T00:56:09Z</time></trkpt><trkpt lat="59.3607426994" lon="34.6863061097"><ele>153.83</ele><time>2026-08-15T00:56:21Z</time></trkpt><trkpt lat="59.3607770652" lon="34.6860429179"><ele>154.88</ele><time>2026-08-15T00:56:29Z</time></trkpt><trkpt lat="59.3608807493" lon="34.6855596174"><ele>152.99</ele><time>2026-08-15T00:56:44Z</time></trkpt><trkpt lat="59.3610335514" lon="34.6852787398"><ele>152.06</ele><time>2026-08-15T00:56:56Z</time></trkpt><trkpt lat="59.3611191306" lon="34.6851126943"><ele>151.49</ele><time>2026-08-15T00:57:03Z</time></trkpt><trkpt lat="59.3612010218" lon="34.6849468164"><ele>150.73</ele><time>2026-08-15T00:57:10Z</time></trkpt><trkpt lat="59.3613675702" lon="34.6846393682"><ele>149.94</ele><time>2026-08-15T00:57:28Z</time></trkpt><trkpt lat="59.3615075480" lon="34.6843739972"><ele>150.82</ele><time>2026-08-15T00:57:45Z</time></trkpt><trkpt lat="59.3615715019" lon="34.6841094643"><ele>149.61</ele><time>2026-08-15T00:57:55Z</time></trkpt><trkpt lat="59.3616427481" lon="34.6836129203"><ele>150.15</ele><time>2026-08-15T00:58:08Z</time></trkpt><trkpt lat="59.3616569974" lon="34.6834158618"><ele>153.23</ele><time>2026-08-15T00:58:21Z</time></trkpt><trkpt lat="59.3616646249" lon="34.6833629720"><ele>153.81</ele><time>2026-08-15T00:58:24Z</time></trkpt><trkpt lat="59.3617160898" lon="34.6831537597"><ele>155.01</ele><time>2026-08-15T00:58:37Z</time></trkpt><trkpt lat="59.3617230467" lon="34.6830533445"><ele>155.47</ele><time>2026-08-15T00:58:41Z</time></trkpt><trkpt lat="59.3617803790" lon="34.6828030609"><ele>155.93</ele><time>2026-08-15T00:58:53Z</time></trkpt><trkpt lat="59.3618300837" lon="34.6825909987"><ele>154.79</ele><time>2026-08-15T00:59:04Z</time></trkpt><trkpt lat="59.3619387969" lon="34.6823009010"><ele>155.19</ele><time>2026-08-15T00:59:19Z</time></trkpt><trkpt lat="59.3620160781" lon="34.6821676288"><ele>157.31</ele><time>2026-08-15T00:59:41Z</time></trkpt><trkpt lat="59.3620978016" lon="34.6820273157"><ele>157.00</ele><time>2026-08-15T00:59:50Z</time></trkpt><trkpt lat="59.3621302396" lon="34.6819142438"><ele>156.80</ele><time>2026-08-15T00:59:54Z</time></trkpt><trkpt lat="59.3621527031" lon="34.6818070393"><ele>156.43</ele><time>2026-08-15T00:59:58Z</time></trkpt><trkpt lat="59.3621975463" lon="34.6813916322"><ele>155.23</ele><time>2026-08-15T01:00:10Z</time></trkpt><trkpt lat="59.3622442335" lon="34.6812743694"><ele>154.99</ele><time>2026-08-15T01:00:15Z</time></trkpt><trkpt lat="59.3623785116" lon="34.6808797494"><ele>152.97</ele><time>2026-08-15T01:00:30Z</time></trkpt><trkpt lat="59.3623984605" lon="34.6807645820"><ele>151.73</ele><time>2026-08-15T01:00:52Z</time></trkpt><trkpt lat="59.3623900786" lon="34.6807755623"><ele>151.80</ele><time>2026-08-15T01:01:24Z</time></trkpt><trkpt lat="59.3623972870" lon="34.6808055695"><ele>153.54</ele><time>2026-08-15T01:01:55Z</time></trkpt><trkpt lat="59.3624428846" lon="34.6806996223"><ele>153.89</ele><time>2026-08-15T01:02:26Z</time></trkpt><trkpt lat="59.3624236062" lon="34.6805504244"><ele>160.34</ele><time>2026-08-15T01:02:58Z</time></trkpt><trkpt lat="59.3624301441" lon="34.6806778293"><ele>161.17</ele><time>2026-08-15T01:03:21Z</time></trkpt><trkpt lat="59.3624588940" lon="34.6806500852"><ele>161.62</ele><time>2026-08-15T01:03:44Z</time></trkpt><trkpt lat="59.3624255341" lon="34.6805842873"><ele>161.48</ele><time>2026-08-15T01:04:04Z</time></trkpt><trkpt lat="59.3624573853" lon="34.6805557050"><ele>161.51</ele><time>2026-08-15T01:04:25Z</time></trkpt><trkpt lat="59.3624470755" lon="34.6805935912"><ele>162.17</ele><time>2026-08-15T01:04:49Z</time></trkpt><trkpt lat="59.3624575529" lon="34.6806099359"><ele>162.48</ele><time>2026-08-15T01:05:08Z</time></trkpt><trkpt lat="59.3624298926" lon="34.6805889811"><ele>163.34</ele><time>2026-08-15T01:05:34Z</time></trkpt><trkpt lat="59.3624371011" lon="34.6805639192"><ele>163.59</ele><time>2026-08-15T01:05:46Z</time></trkpt><trkpt lat="59.3624177389" lon="34.6805401146"><ele>165.55</ele><time>2026-08-15T01:06:12Z</time></trkpt><trkpt lat="59.3624339998" lon="34.6804967802"><ele>166.76</ele><time>2026-08-15T01:06:39Z</time></trkpt><trkpt lat="59.3624361791" lon="34.6805422939"><ele>167.34</ele><time>2026-08-15T01:07:02Z</time></trkpt><trkpt lat="59.3623951077" lon="34.6807053220"><ele>169.33</ele><time>2026-08-15T01:07:26Z</time></trkpt><trkpt lat="59.3623762485" lon="34.6807756461"><ele>171.01</ele><time>2026-08-15T01:07:49Z</time></trkpt><trkpt lat="59.3624127936" lon="34.6806805953"><ele>170.50</ele><time>2026-08-15T01:08:11Z</time></trkpt><trkpt lat="59.3624799326" lon="34.6804570500"><ele>170.19</ele><time>2026-08-15T01:08:33Z</time></trkpt><trkpt lat="59.3625239376" lon="34.6802865621"><ele>170.14</ele><time>2026-08-15T01:08:44Z</time></trkpt><trkpt lat="59.3626278732" lon="34.6800115518"><ele>169.67</ele><time>2026-08-15T01:08:56Z</time></trkpt><trkpt lat="59.3626448046" lon="34.6799110528"><ele>169.39</ele><time>2026-08-15T01:09:00Z</time></trkpt><trkpt lat="59.3626799248" lon="34.6796352882"><ele>168.91</ele><time>2026-08-15T01:09:09Z</time></trkpt><trkpt lat="59.3627003767" lon="34.6794337872"><ele>168.05</ele><time>2026-08-15T01:09:21Z</time></trkpt><trkpt lat="59.3627618160" lon="34.6790829208"><ele>167.55</ele><time>2026-08-15T01:09:41Z</time></trkpt><trkpt lat="59.3627629895" lon="34.6786078345"><ele>165.66</ele><time>2026-08-15T01:09:59Z</time></trkpt><trkpt lat="59.3627521768" lon="34.6784080099"><ele>165.75</ele><time>2026-08-15T01:10:12Z</time></trkpt><trkpt lat="59.3627568707" lon="34.6782518551"><ele>166.21</ele><time>2026-08-15T01:10:25Z</time></trkpt><trkpt lat="59.3627022207" lon="34.6778817102"><ele>166.85</ele><time>2026-08-15T01:10:36Z</time></trkpt><trkpt lat="59.3626795895" lon="34.6776258107"><ele>167.64</ele><time>2026-08-15T01:10:44Z</time></trkpt><trkpt lat="59.3626762368" lon="34.6775326878"><ele>167.76</ele><time>2026-08-15T01:10:48Z</time></trkpt><trkpt lat="59.3626530189" lon="34.6773943026"><ele>168.02</ele><time>2026-08-15T01:10:54Z</time></trkpt><trkpt lat="59.3626122829" lon="34.6771261655"><ele>168.53</ele><time>2026-08-15T01:11:03Z</time></trkpt><trkpt lat="59.3625883106" lon="34.6770417597"><ele>168.07</ele><time>2026-08-15T01:11:06Z</time></trkpt><trkpt lat="59.3625249434" lon="34.6767328866"><ele>166.69</ele><time>2026-08-15T01:11:21Z</time></trkpt><trkpt lat="59.3624873087" lon="34.6761982888"><ele>164.61</ele><time>2026-08-15T01:11:41Z</time></trkpt><trkpt lat="59.3624274619" lon="34.6756442450"><ele>161.70</ele><time>2026-08-15T01:11:57Z</time></trkpt><trkpt lat="59.3623977900" lon="34.6754453424"><ele>160.74</ele><time>2026-08-15T01:12:11Z</time></trkpt><trkpt lat="59.3623394519" lon="34.6754206158"><ele>161.55</ele><time>2026-08-15T01:12:41Z</time></trkpt><trkpt lat="59.3623329978" lon="34.6752446797"><ele>162.13</ele><time>2026-08-15T01:13:05Z</time></trkpt><trkpt lat="59.3623294774" lon="34.6750554163"><ele>162.19</ele><time>2026-08-15T01:13:13Z</time></trkpt><trkpt lat="59.3623109534" lon="34.6749589406"><ele>162.39</ele><time>2026-08-15T01:13:17Z</time></trkpt><trkpt lat="59.3622556329" lon="34.6746048052"><ele>162.14</ele><time>2026-08-15T01:13:30Z</time></trkpt><trkpt lat="59.3622482568" lon="34.6745594591"><ele>162.00</ele><time>2026-08-15T01:13:32Z</time></trkpt><trkpt lat="59.3622194231" lon="34.6742924955"><ele>161.34</ele><time>2026-08-15T01:13:46Z</time></trkpt><trkpt lat="59.3621700536" lon="34.6740232687"><ele>158.93</ele><time>2026-08-15T01:14:00Z</time></trkpt><trkpt lat="59.3621269707" lon="34.6736680437"><ele>158.93</ele><time>2026-08-15T01:14:13Z</time></trkpt><trkpt lat="59.3621285632" lon="34.6736382879"><ele>158.92</ele><time>2026-08-15T01:14:14Z</time></trkpt><trkpt lat="59.3621261325" lon="34.6734147426"><ele>158.78</ele><time>2026-08-15T01:14:21Z</time></trkpt><trkpt lat="59.3622029107" lon="34.6730525605"><ele>158.57</ele><time>2026-08-15T01:14:34Z</time></trkpt><trkpt lat="59.3623210955" lon="34.6727622114"><ele>159.75</ele><time>2026-08-15T01:14:48Z</time></trkpt><trkpt lat="59.3624616601" lon="34.6724610496"><ele>159.79</ele><time>2026-08-15T01:15:01Z</time></trkpt><trkpt lat="59.3624909967" lon="34.6723030508"><ele>159.70</ele><time>2026-08-15T01:15:06Z</time></trkpt><trkpt lat="59.3625111133" lon="34.6720901504"><ele>158.18</ele><time>2026-08-15T01:15:13Z</time></trkpt><trkpt lat="59.3625633325" lon="34.6718107816"><ele>156.91</ele><time>2026-08-15T01:15:34Z</time></trkpt><trkpt lat="59.3627045676" lon="34.6715053450"><ele>158.72</ele><time>2026-08-15T01:15:47Z</time></trkpt><trkpt lat="59.3627232593" lon="34.6714511141"><ele>158.97</ele><time>2026-08-15T01:15:49Z</time></trkpt><trkpt lat="59.3627823517" lon="34.6713232063"><ele>159.34</ele><time>2026-08-15T01:15:55Z</time></trkpt><trkpt lat="59.3628421985" lon="34.6711921971"><ele>160.72</ele><time>2026-08-15T01:16:01Z</time></trkpt><trkpt lat="59.3630027957" lon="34.6709082182"><ele>162.36</ele><time>2026-08-15T01:16:14Z</time></trkpt><trkpt lat="59.3630467169" lon="34.6708258241"><ele>162.76</ele><time>2026-08-15T01:16:18Z</time></trkpt><trkpt lat="59.3631558493" lon="34.6707268339"><ele>163.60</ele><time>2026-08-15T01:16:27Z</time></trkpt><trkpt lat="59.3631887902" lon="34.6706781350"><ele>163.44</ele><time>2026-08-15T01:16:40Z</time></trkpt><trkpt lat="59.3632053863" lon="34.6706644725"><ele>163.61</ele><time>2026-08-15T01:17:07Z</time></trkpt><trkpt lat="59.3631971721" lon="34.6707115788"><ele>164.00</ele><time>2026-08-15T01:17:35Z</time></trkpt><trkpt lat="59.3632395007" lon="34.6706894506"><ele>164.65</ele><time>2026-08-15T01:18:05Z</time></trkpt><trkpt lat="59.3632572703" lon="34.6706947312"><ele>164.49</ele><time>2026-08-15T01:18:17Z</time></trkpt><trkpt lat="59.3632260896" lon="34.6707505547"><ele>164.10</ele><time>2026-08-15T01:18:42Z</time></trkpt><trkpt lat="59.3632008601" lon="34.6707080584"><ele>164.23</ele><time>2026-08-15T01:19:08Z</time></trkpt><trkpt lat="59.3632238265" lon="34.6707099024"><ele>163.09</ele><time>2026-08-15T01:19:36Z</time></trkpt><trkpt lat="59.3631481379" lon="34.6705942322"><ele>162.66</ele><time>2026-08-15T01:20:07Z</time></trkpt><trkpt lat="59.3631964177" lon="34.6706384886"><ele>163.57</ele><time>2026-08-15T01:20:40Z</time></trkpt><trkpt lat="59.3631975073" lon="34.6706754528"><ele>163.99</ele><time>2026-08-15T01:21:09Z</time></trkpt><trkpt lat="59.3632090744" lon="34.6706917137"><ele>164.26</ele><time>2026-08-15T01:21:43Z</time></trkpt><trkpt lat="59.3631953280" lon="34.6706679929"><ele>165.05</ele><time>2026-08-15T01:22:16Z</time></trkpt><trkpt lat="59.3632221501" lon="34.6706664842"><ele>165.08</ele><time>2026-08-15T01:22:43Z</time></trkpt><trkpt lat="59.3631744571" lon="34.6707039513"><ele>164.75</ele><time>2026-08-15T01:23:16Z</time></trkpt><trkpt lat="59.3632106669" lon="34.6706879418"><ele>167.55</ele><time>2026-08-15T01:23:49Z</time></trkpt><trkpt lat="59.3632477988" lon="34.6706170309"><ele>169.05</ele><time>2026-08-15T01:24:28Z</time></trkpt><trkpt lat="59.3631829228" lon="34.6706415061"><ele>169.77</ele><time>2026-08-15T01:25:03Z</time></trkpt><trkpt lat="59.3632557616" lon="34.6707302704"><ele>169.09</ele><time>2026-08-15T01:25:25Z</time></trkpt><trkpt lat="59.3633246608" lon="34.6707622055"><ele>169.34</ele><time>2026-08-15T01:25:52Z</time></trkpt><trkpt lat="59.3634294346" lon="34.6707781311"><ele>169.71</ele><time>2026-08-15T01:26:13Z</time></trkpt><trkpt lat="59.3635124993" lon="34.6707557514"><ele>169.71</ele><time>2026-08-15T01:26:45Z</time></trkpt><trkpt lat="59.3634696677" lon="34.6707909554"><ele>171.34</ele><time>2026-08-15T01:27:18Z</time></trkpt><trkpt lat="59.3634674884" lon="34.6708382294"><ele>172.48</ele><time>2026-08-15T01:27:41Z</time></trkpt><trkpt lat="59.3634983338" lon="34.6708901133"><ele>172.65</ele><time>2026-08-15T01:27:51Z</time></trkpt><trkpt lat="59.3634665664" lon="34.6709399018"><ele>174.97</ele><time>2026-08-15T01:28:17Z</time></trkpt><trkpt lat="59.3634971604" lon="34.6710230503"><ele>174.76</ele><time>2026-08-15T01:28:40Z</time></trkpt><trkpt lat="59.3635246530" lon="34.6710264869"><ele>175.05</ele><time>2026-08-15T01:29:04Z</time></trkpt><trkpt lat="59.3636107352" lon="34.6710974816"><ele>174.99</ele><time>2026-08-15T01:29:22Z</time></trkpt><trkpt lat="59.3636729289" lon="34.6711908560"><ele>174.89</ele><time>2026-08-15T01:29:43Z</time></trkpt><trkpt lat="59.3637191132" lon="34.6712445840"><ele>176.92</ele><time>2026-08-15T01:30:11Z</time></trkpt><trkpt lat="59.3636043649" lon="34.6711690631"><ele>176.27</ele><time>2026-08-15T01:30:40Z</time></trkpt><trkpt lat="59.3636264093" lon="34.6711698174"><ele>177.30</ele><time>2026-08-15T01:31:05Z</time></trkpt><trkpt lat="59.3636923749" lon="34.6712251380"><ele>176.45</ele><time>2026-08-15T01:31:31Z</time></trkpt><trkpt lat="59.3636903632" lon="34.6712419856"><ele>176.28</ele><time>2026-08-15T01:31:59Z</time></trkpt><trkpt lat="59.3636991642" lon="34.6712409798"><ele>177.07</ele><time>2026-08-15T01:32:26Z</time></trkpt><trkpt lat="59.3637252320" lon="34.6713401377"><ele>177.10</ele><time>2026-08-15T01:32:55Z</time></trkpt><trkpt lat="59.3636547402" lon="34.6713018324"><ele>181.59</ele><time>2026-08-15T01:33:24Z</time></trkpt><trkpt lat="59.3636878487" lon="34.6712831408"><ele>182.49</ele><time>2026-08-15T01:33:57Z</time></trkpt><trkpt lat="59.3637054507" lon="34.6713290736"><ele>183.04</ele><time>2026-08-15T01:34:36Z</time></trkpt><trkpt lat="59.3637177721" lon="34.6713211108"><ele>183.65</ele><time>2026-08-15T01:35:06Z</time></trkpt><trkpt lat="59.3637196161" lon="34.6714295726"><ele>184.54</ele><time>2026-08-15T01:35:23Z</time></trkpt><trkpt lat="59.3637538143" lon="34.6715962049"><ele>183.12</ele><time>2026-08-15T01:35:43Z</time></trkpt><trkpt lat="59.3638139125" lon="34.6717003919"><ele>181.99</ele><time>2026-08-15T01:36:02Z</time></trkpt><trkpt lat="59.3638827279" lon="34.6718063392"><ele>179.61</ele><time>2026-08-15T01:36:23Z</time></trkpt><trkpt lat="59.3638804648" lon="34.6719771624"><ele>178.27</ele><time>2026-08-15T01:36:46Z</time></trkpt><trkpt lat="59.3638788722" lon="34.6720914915"><ele>177.58</ele><time>2026-08-15T01:37:10Z</time></trkpt><trkpt lat="59.3639191892" lon="34.6722066589"><ele>176.78</ele><time>2026-08-15T01:37:36Z</time></trkpt><trkpt lat="59.3639682233" lon="34.6721540205"><ele>176.63</ele><time>2026-08-15T01:37:53Z</time></trkpt><trkpt lat="59.3639775272" lon="34.6721467283"><ele>175.34</ele><time>2026-08-15T01:38:16Z</time></trkpt><trkpt lat="59.3640258908" lon="34.6721718740"><ele>175.12</ele><time>2026-08-15T01:38:36Z</time></trkpt><trkpt lat="59.3640745059" lon="34.6721990313"><ele>175.13</ele><time>2026-08-15T01:38:58Z</time></trkpt><trkpt lat="59.3640532997" lon="34.6722726244"><ele>175.58</ele><time>2026-08-15T01:39:25Z</time></trkpt><trkpt lat="59.3641111348" lon="34.6722823475"><ele>176.52</ele><time>2026-08-15T01:39:58Z</time></trkpt><trkpt lat="59.3640910182" lon="34.6723120194"><ele>179.26</ele><time>2026-08-15T01:40:26Z</time></trkpt><trkpt lat="59.3640522938" lon="34.6722258534"><ele>182.01</ele><time>2026-08-15T01:40:56Z</time></trkpt><trkpt lat="59.3640808761" lon="34.6722870413"><ele>180.23</ele><time>2026-08-15T01:41:29Z</time></trkpt><trkpt lat="59.3641151581" lon="34.6723936591"><ele>179.24</ele><time>2026-08-15T01:41:50Z</time></trkpt><trkpt lat="59.3641700596" lon="34.6723359078"><ele>178.28</ele><time>2026-08-15T01:42:15Z</time></trkpt><trkpt lat="59.3642243743" lon="34.6723129414"><ele>176.37</ele><time>2026-08-15T01:42:37Z</time></trkpt><trkpt lat="59.3642326724" lon="34.6723316330"><ele>174.23</ele><time>2026-08-15T01:43:01Z</time></trkpt><trkpt lat="59.3643247895" lon="34.6724105068"><ele>174.04</ele><time>2026-08-15T01:43:23Z</time></trkpt><trkpt lat="59.3643417209" lon="34.6724371612"><ele>173.85</ele><time>2026-08-15T01:43:46Z</time></trkpt><trkpt lat="59.3642985541" lon="34.6725356486"><ele>172.99</ele><time>2026-08-15T01:44:09Z</time></trkpt><trkpt lat="59.3642904237" lon="34.6726244129"><ele>172.75</ele><time>2026-08-15T01:44:32Z</time></trkpt><trkpt lat="59.3642964587" lon="34.6726443619"><ele>173.41</ele><time>2026-08-15T01:44:58Z</time></trkpt><trkpt lat="59.3642997276" lon="34.6726549231"><ele>173.43</ele><time>2026-08-15T01:45:01Z</time></trkpt><trkpt lat="59.3642874900" lon="34.6726809908"><ele>171.40</ele><time>2026-08-15T01:45:33Z</time></trkpt><trkpt lat="59.3643247057" lon="34.6726810746"><ele>171.31</ele><time>2026-08-15T01:45:54Z</time></trkpt><trkpt lat="59.3642753363" lon="34.6727627143"><ele>172.08</ele><time>2026-08-15T01:46:17Z</time></trkpt><trkpt lat="59.3642862327" lon="34.6727769636"><ele>173.33</ele><time>2026-08-15T01:46:41Z</time></trkpt><trkpt lat="59.3642944470" lon="34.6727835014"><ele>172.23</ele><time>2026-08-15T01:47:08Z</time></trkpt><trkpt lat="59.3643052597" lon="34.6728358045"><ele>171.57</ele><time>2026-08-15T01:47:35Z</time></trkpt><trkpt lat="59.3643184192" lon="34.6729298495"><ele>171.41</ele><time>2026-08-15T01:47:54Z</time></trkpt><trkpt lat="59.3642843887" lon="34.6729754470"><ele>171.28</ele><time>2026-08-15T01:48:16Z</time></trkpt><trkpt lat="59.3642919324" lon="34.6730255708"><ele>171.61</ele><time>2026-08-15T01:48:40Z</time></trkpt><trkpt lat="59.3642939441" lon="34.6730499621"><ele>171.39</ele><time>2026-08-15T01:48:59Z</time></trkpt><trkpt lat="59.3643298186" lon="34.6729566716"><ele>170.83</ele><time>2026-08-15T01:49:16Z</time></trkpt><trkpt lat="59.3643755838" lon="34.6729869302"><ele>170.58</ele><time>2026-08-15T01:49:37Z</time></trkpt><trkpt lat="59.3643834628" lon="34.6730241459"><ele>170.73</ele><time>2026-08-15T01:50:09Z</time></trkpt><trkpt lat="59.3643542100" lon="34.6731096413"><ele>172.17</ele><time>2026-08-15T01:50:40Z</time></trkpt><trkpt lat="59.3643611670" lon="34.6731016785"><ele>172.27</ele><time>2026-08-15T01:51:03Z</time></trkpt><trkpt lat="59.3643689621" lon="34.6730937157"><ele>172.73</ele><time>2026-08-15T01:51:30Z</time></trkpt><trkpt lat="59.3643744104" lon="34.6730821487"><ele>173.22</ele><time>2026-08-15T01:52:01Z</time></trkpt><trkpt lat="59.3643951137" lon="34.6730166022"><ele>172.94</ele><time>2026-08-15T01:52:34Z</time></trkpt><trkpt lat="59.3643532041" lon="34.6730998345"><ele>173.70</ele><time>2026-08-15T01:53:03Z</time></trkpt><trkpt lat="59.3643696327" lon="34.6731063724"><ele>174.45</ele><time>2026-08-15T01:53:32Z</time></trkpt><trkpt lat="59.3643549643" lon="34.6730885189"><ele>174.62</ele><time>2026-08-15T01:54:00Z</time></trkpt><trkpt lat="59.3643436488" lon="34.6730818134"><ele>173.94</ele><time>2026-08-15T01:54:28Z</time></trkpt><trkpt lat="59.3643217720" lon="34.6729944739"><ele>173.58</ele><time>2026-08-15T01:55:01Z</time></trkpt><trkpt lat="59.3643065169" lon="34.6729877684"><ele>172.89</ele><time>2026-08-15T01:55:28Z</time></trkpt><trkpt lat="59.3643465824" lon="34.6730001736"><ele>172.80</ele><time>2026-08-15T01:55:59Z</time></trkpt><trkpt lat="59.3643372785" lon="34.6730108187"><ele>173.01</ele><time>2026-08-15T01:56:32Z</time></trkpt><trkpt lat="59.3643376976" lon="34.6730278339"><ele>170.99</ele><time>2026-08-15T01:56:59Z</time></trkpt><trkpt lat="59.3643349316" lon="34.6730596013"><ele>170.45</ele><time>2026-08-15T01:57:28Z</time></trkpt><trkpt lat="59.3643435650" lon="34.6730510518"><ele>169.91</ele><time>2026-08-15T01:58:00Z</time></trkpt><trkpt lat="59.3643557187" lon="34.6730464417"><ele>170.15</ele><time>2026-08-15T01:58:30Z</time></trkpt><trkpt lat="59.3643410504" lon="34.6730337013"><ele>171.79</ele><time>2026-08-15T01:59:00Z</time></trkpt><trkpt lat="59.3643865641" lon="34.6730787121"><ele>172.65</ele><time>2026-08-15T01:59:28Z</time></trkpt><trkpt lat="59.3644105364" lon="34.6731657162"><ele>172.96</ele><time>2026-08-15T01:59:50Z</time></trkpt><trkpt lat="59.3644383643" lon="34.6731569991"><ele>173.52</ele><time>2026-08-15T02:00:18Z</time></trkpt><trkpt lat="59.3644322455" lon="34.6731194481"><ele>174.05</ele><time>2026-08-15T02:00:43Z</time></trkpt><trkpt lat="59.3644434772" lon="34.6731471922"><ele>173.47</ele><time>2026-08-15T02:01:09Z</time></trkpt><trkpt lat="59.3644820340" lon="34.6731108148"><ele>173.22</ele><time>2026-08-15T02:01:29Z</time></trkpt><trkpt lat="59.3645045813" lon="34.6730700787"><ele>173.86</ele><time>2026-08-15T02:01:50Z</time></trkpt><trkpt lat="59.3645044975" lon="34.6731042769"><ele>174.37</ele><time>2026-08-15T02:02:15Z</time></trkpt><trkpt lat="59.3645502627" lon="34.6730782092"><ele>173.85</ele><time>2026-08-15T02:02:43Z</time></trkpt><trkpt lat="59.3645860534" lon="34.6730974037"><ele>174.03</ele><time>2026-08-15T02:03:07Z</time></trkpt><trkpt lat="59.3646427151" lon="34.6731055342"><ele>173.17</ele><time>2026-08-15T02:03:28Z</time></trkpt><trkpt lat="59.3646886479" lon="34.6730639599"><ele>172.52</ele><time>2026-08-15T02:03:51Z</time></trkpt><trkpt lat="59.3647086807" lon="34.6730888542"><ele>171.54</ele><time>2026-08-15T02:04:13Z</time></trkpt><trkpt lat="59.3647611514" lon="34.6731579211"><ele>170.83</ele><time>2026-08-15T02:04:33Z</time></trkpt><trkpt lat="59.3647990376" lon="34.6732147504"><ele>170.68</ele><time>2026-08-15T02:04:59Z</time></trkpt><trkpt lat="59.3648556992" lon="34.6732302569"><ele>170.66</ele><time>2026-08-15T02:05:19Z</time></trkpt><trkpt lat="59.3648777436" lon="34.6732627787"><ele>170.87</ele><time>2026-08-15T02:05:40Z</time></trkpt><trkpt lat="59.3648397736" lon="34.6733046882"><ele>172.18</ele><time>2026-08-15T02:06:12Z</time></trkpt><trkpt lat="59.3648091797" lon="34.6732823085"><ele>173.87</ele><time>2026-08-15T02:06:43Z</time></trkpt><trkpt lat="59.3648015521" lon="34.6731646266"><ele>175.29</ele><time>2026-08-15T02:07:11Z</time></trkpt><trkpt lat="59.3648774084" lon="34.6732634492"><ele>175.29</ele><time>2026-08-15T02:07:41Z</time></trkpt><trkpt lat="59.3649271131" lon="34.6732728370"><ele>174.41</ele><time>2026-08-15T02:08:12Z</time></trkpt><trkpt lat="59.3649216648" lon="34.6732864995"><ele>174.82</ele><time>2026-08-15T02:08:42Z</time></trkpt><trkpt lat="59.3649725430" lon="34.6732481942"><ele>176.81</ele><time>2026-08-15T02:09:10Z</time></trkpt><trkpt lat="59.3649891391" lon="34.6732113138"><ele>177.33</ele><time>2026-08-15T02:09:47Z</time></trkpt><trkpt lat="59.3649472296" lon="34.6732569952"><ele>178.66</ele><time>2026-08-15T02:10:21Z</time></trkpt><trkpt lat="59.3649823498" lon="34.6732323524"><ele>178.61</ele><time>2026-08-15T02:10:50Z</time></trkpt><trkpt lat="59.3650002871" lon="34.6733371262"><ele>177.89</ele><time>2026-08-15T02:11:15Z</time></trkpt><trkpt lat="59.3650235049" lon="34.6733118966"><ele>177.35</ele><time>2026-08-15T02:11:37Z</time></trkpt><trkpt lat="59.3650312163" lon="34.6733544767"><ele>178.09</ele><time>2026-08-15T02:12:04Z</time></trkpt><trkpt lat="59.3650725391" lon="34.6733090468"><ele>177.67</ele><time>2026-08-15T02:12:27Z</time></trkpt><trkpt lat="59.3651069887" lon="34.6733491123"><ele>176.88</ele><time>2026-08-15T02:12:52Z</time></trkpt><trkpt lat="59.3651387561" lon="34.6733376291"><ele>176.00</ele><time>2026-08-15T02:13:13Z</time></trkpt><trkpt lat="59.3651784025" lon="34.6734691411"><ele>175.13</ele><time>2026-08-15T02:13:37Z</time></trkpt><trkpt lat="59.3652149476" lon="34.6735654492"><ele>174.00</ele><time>2026-08-15T02:14:02Z</time></trkpt><trkpt lat="59.3652136065" lon="34.6736965422"><ele>174.00</ele><time>2026-08-15T02:14:26Z</time></trkpt><trkpt lat="59.3652280234" lon="34.6737750806"><ele>174.23</ele><time>2026-08-15T02:14:47Z</time></trkpt><trkpt lat="59.3652474694" lon="34.6738139726"><ele>173.87</ele><time>2026-08-15T02:15:10Z</time></trkpt><trkpt lat="59.3652697653" lon="34.6738594025"><ele>174.42</ele><time>2026-08-15T02:15:36Z</time></trkpt><trkpt lat="59.3653152790" lon="34.6739201713"><ele>174.35</ele><time>2026-08-15T02:15:57Z</time></trkpt><trkpt lat="59.3652960006" lon="34.6739992965"><ele>174.24</ele><time>2026-08-15T02:16:28Z</time></trkpt><trkpt lat="59.3652887922" lon="34.6740472410"><ele>173.72</ele><time>2026-08-15T02:16:57Z</time></trkpt><trkpt lat="59.3653244991" lon="34.6740343329"><ele>175.03</ele><time>2026-08-15T02:17:34Z</time></trkpt><trkpt lat="59.3653503153" lon="34.6739765815"><ele>175.22</ele><time>2026-08-15T02:18:07Z</time></trkpt><trkpt lat="59.3653902970" lon="34.6739665233"><ele>176.01</ele><time>2026-08-15T02:18:45Z</time></trkpt><trkpt lat="59.3654343858" lon="34.6740409546"><ele>175.28</ele><time>2026-08-15T02:19:08Z</time></trkpt><trkpt lat="59.3654565141" lon="34.6740720514"><ele>173.89</ele><time>2026-08-15T02:19:36Z</time></trkpt><trkpt lat="59.3654466234" lon="34.6741708741"><ele>175.41</ele><time>2026-08-15T02:19:59Z</time></trkpt><trkpt lat="59.3654683325" lon="34.6742573753"><ele>174.61</ele><time>2026-08-15T02:20:29Z</time></trkpt><trkpt lat="59.3655007705" lon="34.6743320581"><ele>173.64</ele><time>2026-08-15T02:20:52Z</time></trkpt><trkpt lat="59.3655449431" lon="34.6743923239"><ele>172.86</ele><time>2026-08-15T02:21:27Z</time></trkpt><trkpt lat="59.3655694183" lon="34.6743328962"><ele>174.79</ele><time>2026-08-15T02:21:58Z</time></trkpt><trkpt lat="59.3655691668" lon="34.6743737999"><ele>175.86</ele><time>2026-08-15T02:22:29Z</time></trkpt><trkpt lat="59.3655511457" lon="34.6743765660"><ele>175.45</ele><time>2026-08-15T02:23:01Z</time></trkpt><trkpt lat="59.3655404169" lon="34.6743406076"><ele>174.68</ele><time>2026-08-15T02:23:30Z</time></trkpt><trkpt lat="59.3655543309" lon="34.6743185632"><ele>175.04</ele><time>2026-08-15T02:24:02Z</time></trkpt><trkpt lat="59.3655512296" lon="34.6743142884"><ele>176.29</ele><time>2026-08-15T02:24:29Z</time></trkpt><trkpt lat="59.3654989265" lon="34.6742765699"><ele>176.53</ele><time>2026-08-15T02:25:01Z</time></trkpt><trkpt lat="59.3654713500" lon="34.6743136179"><ele>178.77</ele><time>2026-08-15T02:25:30Z</time></trkpt><trkpt lat="59.3654286023" lon="34.6743555274"><ele>180.80</ele><time>2026-08-15T02:26:03Z</time></trkpt><trkpt lat="59.3654223997" lon="34.6743121091"><ele>182.19</ele><time>2026-08-15T02:26:35Z</time></trkpt><trkpt lat="59.3654498924" lon="34.6742457245"><ele>180.50</ele><time>2026-08-15T02:27:08Z</time></trkpt><trkpt lat="59.3654222321" lon="34.6742699482"><ele>181.22</ele><time>2026-08-15T02:27:36Z</time></trkpt><trkpt lat="59.3654430192" lon="34.6742665954"><ele>183.23</ele><time>2026-08-15T02:28:10Z</time></trkpt><trkpt lat="59.3654450309" lon="34.6743094269"><ele>184.93</ele><time>2026-08-15T02:28:41Z</time></trkpt><trkpt lat="59.3654963281" lon="34.6742181480"><ele>186.04</ele><time>2026-08-15T02:29:13Z</time></trkpt><trkpt lat="59.3654562626" lon="34.6742410306"><ele>185.19</ele><time>2026-08-15T02:29:45Z</time></trkpt><trkpt lat="59.3654603697" lon="34.6742460597"><ele>186.78</ele><time>2026-08-15T02:30:17Z</time></trkpt><trkpt lat="59.3655061349" lon="34.6742556151"><ele>184.76</ele><time>2026-08-15T02:30:50Z</time></trkpt><trkpt lat="59.3654865213" lon="34.6742959321"><ele>183.53</ele><time>2026-08-15T02:31:23Z</time></trkpt><trkpt lat="59.3654861860" lon="34.6743192337"><ele>183.27</ele><time>2026-08-15T02:31:58Z</time></trkpt><trkpt lat="59.3654981721" lon="34.6742762346"><ele>183.33</ele><time>2026-08-15T02:32:30Z</time></trkpt><trkpt lat="59.3655126728" lon="34.6742432937"><ele>181.38</ele><time>2026-08-15T02:33:02Z</time></trkpt><trkpt lat="59.3655290175" lon="34.6742484067"><ele>179.76</ele><time>2026-08-15T02:33:32Z</time></trkpt><trkpt lat="59.3655123375" lon="34.6742519271"><ele>180.35</ele><time>2026-08-15T02:34:04Z</time></trkpt><trkpt lat="59.3655432668" lon="34.6743365843"><ele>179.84</ele><time>2026-08-15T02:34:29Z</time></trkpt><trkpt lat="59.3656116631" lon="34.6742971055"><ele>178.62</ele><time>2026-08-15T02:34:50Z</time></trkpt><trkpt lat="59.3656312767" lon="34.6742664278"><ele>179.42</ele><time>2026-08-15T02:35:31Z</time></trkpt><trkpt lat="59.3656270858" lon="34.6741983667"><ele>178.93</ele><time>2026-08-15T02:35:55Z</time></trkpt><trkpt lat="59.3655879423" lon="34.6740523539"><ele>179.04</ele><time>2026-08-15T02:36:20Z</time></trkpt><trkpt lat="59.3655679934" lon="34.6739126276"><ele>178.74</ele><time>2026-08-15T02:36:43Z</time></trkpt><trkpt lat="59.3655427638" lon="34.6737571433"><ele>179.02</ele><time>2026-08-15T02:37:05Z</time></trkpt><trkpt lat="59.3655332085" lon="34.6736304928"><ele>178.87</ele><time>2026-08-15T02:37:22Z</time></trkpt><trkpt lat="59.3655094039" lon="34.6734514553"><ele>178.62</ele><time>2026-08-15T02:37:46Z</time></trkpt><trkpt lat="59.3654814083" lon="34.6732713282"><ele>177.98</ele><time>2026-08-15T02:38:10Z</time></trkpt><trkpt lat="59.3654722720" lon="34.6731413249"><ele>177.72</ele><time>2026-08-15T02:38:32Z</time></trkpt><trkpt lat="59.3654610403" lon="34.6730071306"><ele>177.70</ele><time>2026-08-15T02:38:53Z</time></trkpt><trkpt lat="59.3654295243" lon="34.6728545800"><ele>177.43</ele><time>2026-08-15T02:39:15Z</time></trkpt><trkpt lat="59.3654004391" lon="34.6727078129"><ele>177.02</ele><time>2026-08-15T02:39:40Z</time></trkpt><trkpt lat="59.3654168677" lon="34.6726379078"><ele>176.92</ele><time>2026-08-15T02:40:04Z</time></trkpt><trkpt lat="59.3654063065" lon="34.6725173760"><ele>177.11</ele><time>2026-08-15T02:40:24Z</time></trkpt><trkpt lat="59.3653761316" lon="34.6724319644"><ele>176.21</ele><time>2026-08-15T02:40:41Z</time></trkpt><trkpt lat="59.3653486390" lon="34.6723261848"><ele>175.12</ele><time>2026-08-15T02:41:02Z</time></trkpt><trkpt lat="59.3652807456" lon="34.6722391807"><ele>174.73</ele><time>2026-08-15T02:41:24Z</time></trkpt><trkpt lat="59.3652513251" lon="34.6721206605"><ele>174.84</ele><time>2026-08-15T02:41:47Z</time></trkpt><trkpt lat="59.3652183842" lon="34.6720173117"><ele>174.84</ele><time>2026-08-15T02:42:09Z</time></trkpt><trkpt lat="59.3652076554" lon="34.6719224285"><ele>174.03</ele><time>2026-08-15T02:42:31Z</time></trkpt><trkpt lat="59.3651705235" lon="34.6719380189"><ele>173.43</ele><time>2026-08-15T02:42:55Z</time></trkpt><trkpt lat="59.3651609682" lon="34.6719362587"><ele>170.25</ele><time>2026-08-15T02:43:32Z</time></trkpt><trkpt lat="59.3651931547" lon="34.6719740611"><ele>171.52</ele><time>2026-08-15T02:44:00Z</time></trkpt><trkpt lat="59.3652028777" lon="34.6719606500"><ele>172.99</ele><time>2026-08-15T02:44:30Z</time></trkpt><trkpt lat="59.3652001116" lon="34.6718772501"><ele>173.59</ele><time>2026-08-15T02:44:55Z</time></trkpt><trkpt lat="59.3652075715" lon="34.6718764957"><ele>171.10</ele><time>2026-08-15T02:45:25Z</time></trkpt><trkpt lat="59.3651996925" lon="34.6719046589"><ele>171.58</ele><time>2026-08-15T02:45:55Z</time></trkpt><trkpt lat="59.3652167078" lon="34.6719162259"><ele>168.67</ele><time>2026-08-15T02:46:28Z</time></trkpt><trkpt lat="59.3652240001" lon="34.6719193272"><ele>168.42</ele><time>2026-08-15T02:46:52Z</time></trkpt><trkpt lat="59.3652149476" lon="34.6718899067"><ele>168.44</ele><time>2026-08-15T02:47:24Z</time></trkpt><trkpt lat="59.3652206473" lon="34.6719009709"><ele>169.15</ele><time>2026-08-15T02:47:48Z</time></trkpt><trkpt lat="59.3652106728" lon="34.6718933433"><ele>169.84</ele><time>2026-08-15T02:48:19Z</time></trkpt><trkpt lat="59.3652346451" lon="34.6718766633"><ele>169.50</ele><time>2026-08-15T02:48:45Z</time></trkpt><trkpt lat="59.3651865330" lon="34.6718242764"><ele>169.49</ele><time>2026-08-15T02:49:05Z</time></trkpt><trkpt lat="59.3651736248" lon="34.6716986317"><ele>169.35</ele><time>2026-08-15T02:49:28Z</time></trkpt><trkpt lat="59.3651509937" lon="34.6715536248"><ele>169.13</ele><time>2026-08-15T02:49:49Z</time></trkpt><trkpt lat="59.3651433662" lon="34.6714045946"><ele>170.09</ele><time>2026-08-15T02:50:16Z</time></trkpt><trkpt lat="59.3651285302" lon="34.6712915227"><ele>169.11</ele><time>2026-08-15T02:50:39Z</time></trkpt><trkpt lat="59.3651211541" lon="34.6711305063"><ele>168.94</ele><time>2026-08-15T02:51:02Z</time></trkpt><trkpt lat="59.3651307933" lon="34.6709460206"><ele>169.61</ele><time>2026-08-15T02:51:23Z</time></trkpt><trkpt lat="59.3651555199" lon="34.6708370559"><ele>170.11</ele><time>2026-08-15T02:51:48Z</time></trkpt><trkpt lat="59.3651807494" lon="34.6706864331"><ele>170.11</ele><time>2026-08-15T02:52:11Z</time></trkpt><trkpt lat="59.3651843537" lon="34.6705559269"><ele>171.07</ele><time>2026-08-15T02:52:37Z</time></trkpt><trkpt lat="59.3652019557" lon="34.6706089843"><ele>172.29</ele><time>2026-08-15T02:53:05Z</time></trkpt><trkpt lat="59.3651675060" lon="34.6706495527"><ele>173.20</ele><time>2026-08-15T02:53:34Z</time></trkpt><trkpt lat="59.3651710264" lon="34.6705703437"><ele>173.81</ele><time>2026-08-15T02:54:02Z</time></trkpt><trkpt lat="59.3651831802" lon="34.6706047095"><ele>174.34</ele><time>2026-08-15T02:54:35Z</time></trkpt><trkpt lat="59.3651126884" lon="34.6705208905"><ele>175.83</ele><time>2026-08-15T02:54:57Z</time></trkpt><trkpt lat="59.3651652429" lon="34.6703137737"><ele>175.70</ele><time>2026-08-15T02:55:28Z</time></trkpt><trkpt lat="59.3651897181" lon="34.6701759752"><ele>175.52</ele><time>2026-08-15T02:55:52Z</time></trkpt><trkpt lat="59.3652664963" lon="34.6700138692"><ele>175.14</ele><time>2026-08-15T02:56:16Z</time></trkpt><trkpt lat="59.3652540073" lon="34.6699611470"><ele>175.07</ele><time>2026-08-15T02:56:41Z</time></trkpt><trkpt lat="59.3651877902" lon="34.6698440518"><ele>174.95</ele><time>2026-08-15T02:57:01Z</time></trkpt><trkpt lat="59.3651896343" lon="34.6697158925"><ele>174.25</ele><time>2026-08-15T02:57:21Z</time></trkpt><trkpt lat="59.3651906401" lon="34.6697083488"><ele>170.87</ele><time>2026-08-15T02:57:54Z</time></trkpt><trkpt lat="59.3651559390" lon="34.6696134657"><ele>170.87</ele><time>2026-08-15T02:58:17Z</time></trkpt><trkpt lat="59.3650717009" lon="34.6695468295"><ele>170.25</ele><time>2026-08-15T02:58:31Z</time></trkpt><trkpt lat="59.3649883009" lon="34.6694650222"><ele>171.77</ele><time>2026-08-15T02:58:55Z</time></trkpt><trkpt lat="59.3650047295" lon="34.6693711448"><ele>171.52</ele><time>2026-08-15T02:59:24Z</time></trkpt><trkpt lat="59.3649923243" lon="34.6692886669"><ele>171.71</ele><time>2026-08-15T02:59:32Z</time></trkpt><trkpt lat="59.3649607245" lon="34.6691093780"><ele>171.51</ele><time>2026-08-15T02:59:57Z</time></trkpt><trkpt lat="59.3649453018" lon="34.6689736750"><ele>171.40</ele><time>2026-08-15T03:00:18Z</time></trkpt><trkpt lat="59.3649156298" lon="34.6687926259"><ele>171.56</ele><time>2026-08-15T03:00:37Z</time></trkpt><trkpt lat="59.3648867123" lon="34.6686756983"><ele>173.41</ele><time>2026-08-15T03:00:59Z</time></trkpt><trkpt lat="59.3648813479" lon="34.6685223095"><ele>173.14</ele><time>2026-08-15T03:01:19Z</time></trkpt><trkpt lat="59.3648699485" lon="34.6683244128"><ele>171.71</ele><time>2026-08-15T03:01:38Z</time></trkpt><trkpt lat="59.3648724630" lon="34.6681787353"><ele>172.99</ele><time>2026-08-15T03:02:08Z</time></trkpt><trkpt lat="59.3648610637" lon="34.6681533381"><ele>171.82</ele><time>2026-08-15T03:02:55Z</time></trkpt><trkpt lat="59.3648805097" lon="34.6681866981"><ele>170.88</ele><time>2026-08-15T03:03:28Z</time></trkpt><trkpt lat="59.3648821022" lon="34.6681814175"><ele>172.09</ele><time>2026-08-15T03:04:06Z</time></trkpt><trkpt lat="59.3648613989" lon="34.6681908052"><ele>170.96</ele><time>2026-08-15T03:04:43Z</time></trkpt><trkpt lat="59.3648303021" lon="34.6681995224"><ele>171.30</ele><time>2026-08-15T03:05:10Z</time></trkpt><trkpt lat="59.3648655899" lon="34.6680412721"><ele>171.18</ele><time>2026-08-15T03:05:34Z</time></trkpt><trkpt lat="59.3648731336" lon="34.6679264400"><ele>170.71</ele><time>2026-08-15T03:05:54Z</time></trkpt><trkpt lat="59.3648479879" lon="34.6677629091"><ele>170.12</ele><time>2026-08-15T03:06:18Z</time></trkpt><trkpt lat="59.3648469821" lon="34.6676220931"><ele>170.38</ele><time>2026-08-15T03:06:38Z</time></trkpt><trkpt lat="59.3648469821" lon="34.6674410440"><ele>170.44</ele><time>2026-08-15T03:07:01Z</time></trkpt><trkpt lat="59.3648066651" lon="34.6673567221"><ele>170.80</ele><time>2026-08-15T03:07:23Z</time></trkpt><trkpt lat="59.3648064137" lon="34.6672278084"><ele>170.21</ele><time>2026-08-15T03:07:44Z</time></trkpt><trkpt lat="59.3648014683" lon="34.6670732461"><ele>170.33</ele><time>2026-08-15T03:08:04Z</time></trkpt><trkpt lat="59.3647909071" lon="34.6669195220"><ele>169.97</ele><time>2026-08-15T03:08:23Z</time></trkpt><trkpt lat="59.3647770770" lon="34.6668491140"><ele>169.89</ele><time>2026-08-15T03:08:34Z</time></trkpt><trkpt lat="59.3647365924" lon="34.6666659694"><ele>170.25</ele><time>2026-08-15T03:08:57Z</time></trkpt><trkpt lat="59.3647194095" lon="34.6664782148"><ele>169.71</ele><time>2026-08-15T03:09:17Z</time></trkpt><trkpt lat="59.3646962754" lon="34.6663415898"><ele>170.28</ele><time>2026-08-15T03:09:38Z</time></trkpt><trkpt lat="59.3646697048" lon="34.6663614549"><ele>169.80</ele><time>2026-08-15T03:10:00Z</time></trkpt><trkpt lat="59.3646661844" lon="34.6663011890"><ele>169.79</ele><time>2026-08-15T03:10:22Z</time></trkpt><trkpt lat="59.3646712136" lon="34.6662720200"><ele>170.35</ele><time>2026-08-15T03:10:51Z</time></trkpt><trkpt lat="59.3646831997" lon="34.6662565134"><ele>171.86</ele><time>2026-08-15T03:11:31Z</time></trkpt><trkpt lat="59.3646808527" lon="34.6662663203"><ele>171.94</ele><time>2026-08-15T03:12:03Z</time></trkpt><trkpt lat="59.3646568805" lon="34.6662529930"><ele>169.98</ele><time>2026-08-15T03:12:34Z</time></trkpt><trkpt lat="59.3646330759" lon="34.6662215609"><ele>170.55</ele><time>2026-08-15T03:12:59Z</time></trkpt><trkpt lat="59.3646348361" lon="34.6662296075"><ele>170.61</ele><time>2026-08-15T03:13:32Z</time></trkpt><trkpt lat="59.3646143004" lon="34.6662344690"><ele>171.84</ele><time>2026-08-15T03:14:02Z</time></trkpt><trkpt lat="59.3646291364" lon="34.6662580222"><ele>172.17</ele><time>2026-08-15T03:14:38Z</time></trkpt><trkpt lat="59.3646543659" lon="34.6662030369"><ele>173.18</ele><time>2026-08-15T03:15:10Z</time></trkpt><trkpt lat="59.3646650109" lon="34.6662048809"><ele>174.38</ele><time>2026-08-15T03:15:40Z</time></trkpt><trkpt lat="59.3646143842" lon="34.6662077308"><ele>174.82</ele><time>2026-08-15T03:16:12Z</time></trkpt><trkpt lat="59.3646026496" lon="34.6662331279"><ele>173.56</ele><time>2026-08-15T03:16:44Z</time></trkpt><trkpt lat="59.3646212574" lon="34.6662679967"><ele>175.18</ele><time>2026-08-15T03:17:15Z</time></trkpt><trkpt lat="59.3645873945" lon="34.6662145201"><ele>176.07</ele><time>2026-08-15T03:17:49Z</time></trkpt><trkpt lat="59.3645926751" lon="34.6662717685"><ele>178.27</ele><time>2026-08-15T03:18:23Z</time></trkpt><trkpt lat="59.3646050803" lon="34.6662778035"><ele>179.43</ele><time>2026-08-15T03:18:54Z</time></trkpt><trkpt lat="59.3645739835" lon="34.6662363131"><ele>179.64</ele><time>2026-08-15T03:19:29Z</time></trkpt><trkpt lat="59.3645366002" lon="34.6662794799"><ele>178.90</ele><time>2026-08-15T03:19:50Z</time></trkpt><trkpt lat="59.3644933496" lon="34.6662037913"><ele>177.27</ele><time>2026-08-15T03:20:13Z</time></trkpt><trkpt lat="59.3644786812" lon="34.6663272567"><ele>176.27</ele><time>2026-08-15T03:20:31Z</time></trkpt><trkpt lat="59.3644498475" lon="34.6664225589"><ele>175.11</ele><time>2026-08-15T03:20:48Z</time></trkpt><trkpt lat="59.3644130509" lon="34.6664683241"><ele>174.18</ele><time>2026-08-15T03:21:15Z</time></trkpt><trkpt lat="59.3644306529" lon="34.6664742753"><ele>174.51</ele><time>2026-08-15T03:21:41Z</time></trkpt><trkpt lat="59.3644718081" lon="34.6664865967"><ele>175.14</ele><time>2026-08-15T03:22:39Z</time></trkpt><trkpt lat="59.3644510210" lon="34.6665263269"><ele>174.42</ele><time>2026-08-15T03:24:02Z</time></trkpt><trkpt lat="59.3644480873" lon="34.6665397380"><ele>176.18</ele><time>2026-08-15T03:25:23Z</time></trkpt><trkpt lat="59.3644358497" lon="34.6665212978"><ele>176.64</ele><time>2026-08-15T03:26:30Z</time></trkpt><trkpt lat="59.3644261267" lon="34.6665441804"><ele>175.92</ele><time>2026-08-15T03:27:02Z</time></trkpt><trkpt lat="59.3644445669" lon="34.6665641293"><ele>176.46</ele><time>2026-08-15T03:27:29Z</time></trkpt><trkpt lat="59.3644246180" lon="34.6665453538"><ele>176.40</ele><time>2026-08-15T03:27:59Z</time></trkpt><trkpt lat="59.3644110393" lon="34.6664959844"><ele>176.15</ele><time>2026-08-15T03:28:27Z</time></trkpt><trkpt lat="59.3644602410" lon="34.6664316114"><ele>175.65</ele><time>2026-08-15T03:28:47Z</time></trkpt><trkpt lat="59.3645100296" lon="34.6663482953"><ele>173.73</ele><time>2026-08-15T03:29:09Z</time></trkpt><trkpt lat="59.3645328283" lon="34.6663436014"><ele>174.67</ele><time>2026-08-15T03:29:33Z</time></trkpt><trkpt lat="59.3645589799" lon="34.6663000993"><ele>174.22</ele><time>2026-08-15T03:29:55Z</time></trkpt><trkpt lat="59.3646473251" lon="34.6663239039"><ele>173.50</ele><time>2026-08-15T03:30:14Z</time></trkpt><trkpt lat="59.3646438047" lon="34.6663114987"><ele>174.15</ele><time>2026-08-15T03:30:50Z</time></trkpt><trkpt lat="59.3646268733" lon="34.6662493050"><ele>174.06</ele><time>2026-08-15T03:31:13Z</time></trkpt><trkpt lat="59.3646122888" lon="34.6660384163"><ele>173.45</ele><time>2026-08-15T03:31:34Z</time></trkpt><trkpt lat="59.3646013923" lon="34.6658463031"><ele>172.48</ele><time>2026-08-15T03:31:57Z</time></trkpt><trkpt lat="59.3645909149" lon="34.6658980194"><ele>172.76</ele><time>2026-08-15T03:32:21Z</time></trkpt><trkpt lat="59.3645266257" lon="34.6658636536"><ele>171.82</ele><time>2026-08-15T03:32:37Z</time></trkpt><trkpt lat="59.3645526934" lon="34.6655928344"><ele>170.81</ele><time>2026-08-15T03:33:01Z</time></trkpt><trkpt lat="59.3645277992" lon="34.6654813550"><ele>170.23</ele><time>2026-08-15T03:33:25Z</time></trkpt><trkpt lat="59.3644608278" lon="34.6653902438"><ele>169.53</ele><time>2026-08-15T03:33:46Z</time></trkpt><trkpt lat="59.3644342571" lon="34.6652425546"><ele>168.90</ele><time>2026-08-15T03:34:04Z</time></trkpt><trkpt lat="59.3644236960" lon="34.6650873218"><ele>168.25</ele><time>2026-08-15T03:34:24Z</time></trkpt><trkpt lat="59.3644086085" lon="34.6648772713"><ele>168.29</ele><time>2026-08-15T03:34:44Z</time></trkpt><trkpt lat="59.3643858097" lon="34.6646246407"><ele>168.31</ele><time>2026-08-15T03:35:08Z</time></trkpt><trkpt lat="59.3643795233" lon="34.6645106468"><ele>167.59</ele><time>2026-08-15T03:35:23Z</time></trkpt><trkpt lat="59.3643327523" lon="34.6642663144"><ele>166.93</ele><time>2026-08-15T03:35:49Z</time></trkpt><trkpt lat="59.3643110432" lon="34.6641721856"><ele>166.84</ele><time>2026-08-15T03:36:08Z</time></trkpt><trkpt lat="59.3642913457" lon="34.6639770549"><ele>166.50</ele><time>2026-08-15T03:36:27Z</time></trkpt><trkpt lat="59.3642563932" lon="34.6639167052"><ele>167.13</ele><time>2026-08-15T03:36:53Z</time></trkpt><trkpt lat="59.3642464187" lon="34.6639274340"><ele>166.18</ele><time>2026-08-15T03:37:20Z</time></trkpt><trkpt lat="59.3642853945" lon="34.6638977621"><ele>166.61</ele><time>2026-08-15T03:37:48Z</time></trkpt><trkpt lat="59.3642408028" lon="34.6639394201"><ele>165.70</ele><time>2026-08-15T03:38:20Z</time></trkpt><trkpt lat="59.3642035034" lon="34.6639353968"><ele>165.98</ele><time>2026-08-15T03:38:50Z</time></trkpt><trkpt lat="59.3642414734" lon="34.6637507435"><ele>164.24</ele><time>2026-08-15T03:39:12Z</time></trkpt><trkpt lat="59.3642182555" lon="34.6635600552"><ele>162.67</ele><time>2026-08-15T03:39:38Z</time></trkpt><trkpt lat="59.3642138969" lon="34.6634202451"><ele>162.20</ele><time>2026-08-15T03:40:02Z</time></trkpt><trkpt lat="59.3642130587" lon="34.6632548701"><ele>162.40</ele><time>2026-08-15T03:40:30Z</time></trkpt><trkpt lat="59.3641854823" lon="34.6631081868"><ele>163.74</ele><time>2026-08-15T03:40:54Z</time></trkpt><trkpt lat="59.3641708978" lon="34.6628915146"><ele>165.10</ele><time>2026-08-15T03:41:14Z</time></trkpt><trkpt lat="59.3641211931" lon="34.6627681330"><ele>164.11</ele><time>2026-08-15T03:41:38Z</time></trkpt><trkpt lat="59.3640794512" lon="34.6625602618"><ele>165.06</ele><time>2026-08-15T03:42:00Z</time></trkpt><trkpt lat="59.3640897609" lon="34.6624284144"><ele>165.22</ele><time>2026-08-15T03:42:22Z</time></trkpt><trkpt lat="59.3640902638" lon="34.6624240559"><ele>165.10</ele><time>2026-08-15T03:42:23Z</time></trkpt><trkpt lat="59.3640581612" lon="34.6621928830"><ele>164.80</ele><time>2026-08-15T03:42:48Z</time></trkpt><trkpt lat="59.3640343565" lon="34.6620862652"><ele>164.56</ele><time>2026-08-15T03:43:14Z</time></trkpt><trkpt lat="59.3640426546" lon="34.6619331278"><ele>163.48</ele><time>2026-08-15T03:43:36Z</time></trkpt><trkpt lat="59.3640471809" lon="34.6618927270"><ele>164.67</ele><time>2026-08-15T03:44:07Z</time></trkpt><trkpt lat="59.3640403915" lon="34.6618471295"><ele>165.65</ele><time>2026-08-15T03:44:36Z</time></trkpt><trkpt lat="59.3640171736" lon="34.6617750451"><ele>168.42</ele><time>2026-08-15T03:45:04Z</time></trkpt><trkpt lat="59.3640181795" lon="34.6618022863"><ele>170.24</ele><time>2026-08-15T03:45:35Z</time></trkpt><trkpt lat="59.3640027568" lon="34.6617562696"><ele>169.67</ele><time>2026-08-15T03:46:03Z</time></trkpt><trkpt lat="59.3640051875" lon="34.6617951617"><ele>169.75</ele><time>2026-08-15T03:46:35Z</time></trkpt><trkpt lat="59.3639944587" lon="34.6618163679"><ele>169.04</ele><time>2026-08-15T03:47:07Z</time></trkpt><trkpt lat="59.3640192691" lon="34.6617320459"><ele>168.57</ele><time>2026-08-15T03:47:32Z</time></trkpt><trkpt lat="59.3639778625" lon="34.6616454609"><ele>168.02</ele><time>2026-08-15T03:47:57Z</time></trkpt><trkpt lat="59.3639621884" lon="34.6614665911"><ele>166.84</ele><time>2026-08-15T03:48:18Z</time></trkpt><trkpt lat="59.3639409821" lon="34.6613302175"><ele>165.65</ele><time>2026-08-15T03:48:36Z</time></trkpt><trkpt lat="59.3639291637" lon="34.6612204146"><ele>165.42</ele><time>2026-08-15T03:48:52Z</time></trkpt><trkpt lat="59.3639342766" lon="34.6610865556"><ele>164.23</ele><time>2026-08-15T03:49:05Z</time></trkpt><trkpt lat="59.3638927024" lon="34.6607516985"><ele>161.93</ele><time>2026-08-15T03:49:29Z</time></trkpt><trkpt lat="59.3638629466" lon="34.6605567355"><ele>160.46</ele><time>2026-08-15T03:49:54Z</time></trkpt><trkpt lat="59.3638932891" lon="34.6604793705"><ele>161.75</ele><time>2026-08-15T03:50:20Z</time></trkpt><trkpt lat="59.3638917804" lon="34.6605032589"><ele>162.42</ele><time>2026-08-15T03:50:53Z</time></trkpt><trkpt lat="59.3638434168" lon="34.6604836453"><ele>163.79</ele><time>2026-08-15T03:51:27Z</time></trkpt><trkpt lat="59.3638128228" lon="34.6604603436"><ele>162.51</ele><time>2026-08-15T03:51:58Z</time></trkpt><trkpt lat="59.3638150860" lon="34.6604469325"><ele>163.55</ele><time>2026-08-15T03:52:34Z</time></trkpt><trkpt lat="59.3638618570" lon="34.6604539733"><ele>163.37</ele><time>2026-08-15T03:53:19Z</time></trkpt><trkpt lat="59.3638064526" lon="34.6603992395"><ele>163.42</ele><time>2026-08-15T03:53:53Z</time></trkpt><trkpt lat="59.3638839014" lon="34.6604814660"><ele>164.98</ele><time>2026-08-15T03:54:24Z</time></trkpt><trkpt lat="59.3638662994" lon="34.6604852378"><ele>163.06</ele><time>2026-08-15T03:54:51Z</time></trkpt><trkpt lat="59.3638455961" lon="34.6603735909"><ele>161.08</ele><time>2026-08-15T03:55:15Z</time></trkpt><trkpt lat="59.3638508767" lon="34.6602120716"><ele>159.87</ele><time>2026-08-15T03:55:36Z</time></trkpt><trkpt lat="59.3638370465" lon="34.6600647178"><ele>159.38</ele><time>2026-08-15T03:55:59Z</time></trkpt><trkpt lat="59.3638305925" lon="34.6599176992"><ele>159.39</ele><time>2026-08-15T03:56:20Z</time></trkpt><trkpt lat="59.3637813069" lon="34.6597200539"><ele>159.60</ele><time>2026-08-15T03:56:41Z</time></trkpt><trkpt lat="59.3637221307" lon="34.6595574450"><ele>163.78</ele><time>2026-08-15T03:57:10Z</time></trkpt><trkpt lat="59.3637445103" lon="34.6594644897"><ele>165.12</ele><time>2026-08-15T03:57:38Z</time></trkpt><trkpt lat="59.3637003377" lon="34.6594665013"><ele>167.10</ele><time>2026-08-15T03:58:03Z</time></trkpt><trkpt lat="59.3637765292" lon="34.6593779884"><ele>167.14</ele><time>2026-08-15T03:58:28Z</time></trkpt><trkpt lat="59.3637544848" lon="34.6593022998"><ele>165.76</ele><time>2026-08-15T03:58:55Z</time></trkpt><trkpt lat="59.3637213763" lon="34.6592717059"><ele>164.92</ele><time>2026-08-15T03:59:17Z</time></trkpt><trkpt lat="59.3637300096" lon="34.6591486596"><ele>163.82</ele><time>2026-08-15T03:59:41Z</time></trkpt><trkpt lat="59.3637333624" lon="34.6589955222"><ele>163.27</ele><time>2026-08-15T04:00:05Z</time></trkpt><trkpt lat="59.3636984099" lon="34.6588307340"><ele>162.82</ele><time>2026-08-15T04:00:30Z</time></trkpt><trkpt lat="59.3637066241" lon="34.6586704720"><ele>162.83</ele><time>2026-08-15T04:00:53Z</time></trkpt><trkpt lat="59.3636914529" lon="34.6584656183"><ele>163.54</ele><time>2026-08-15T04:01:17Z</time></trkpt><trkpt lat="59.3636692408" lon="34.6582888439"><ele>163.53</ele><time>2026-08-15T04:01:42Z</time></trkpt><trkpt lat="59.3636695761" lon="34.6582631115"><ele>163.62</ele><time>2026-08-15T04:01:47Z</time></trkpt><trkpt lat="59.3636527285" lon="34.6580420807"><ele>163.76</ele><time>2026-08-15T04:02:09Z</time></trkpt><trkpt lat="59.3636316061" lon="34.6579280868"><ele>163.71</ele><time>2026-08-15T04:02:33Z</time></trkpt><trkpt lat="59.3636183627" lon="34.6577703394"><ele>163.42</ele><time>2026-08-15T04:02:57Z</time></trkpt><trkpt lat="59.3636088911" lon="34.6576748695"><ele>163.15</ele><time>2026-08-15T04:03:03Z</time></trkpt><trkpt lat="59.3635228090" lon="34.6574433614"><ele>162.37</ele><time>2026-08-15T04:03:28Z</time></trkpt><trkpt lat="59.3634783011" lon="34.6572882961"><ele>162.46</ele><time>2026-08-15T04:03:55Z</time></trkpt><trkpt lat="59.3634658959" lon="34.6572206542"><ele>161.86</ele><time>2026-08-15T04:04:26Z</time></trkpt><trkpt lat="59.3634055462" lon="34.6571773198"><ele>161.43</ele><time>2026-08-15T04:04:43Z</time></trkpt><trkpt lat="59.3633683305" lon="34.6569486614"><ele>162.76</ele><time>2026-08-15T04:05:05Z</time></trkpt><trkpt lat="59.3633731082" lon="34.6568510961"><ele>162.29</ele><time>2026-08-15T04:05:27Z</time></trkpt><trkpt lat="59.3633203022" lon="34.6567374375"><ele>162.06</ele><time>2026-08-15T04:05:55Z</time></trkpt><trkpt lat="59.3632431887" lon="34.6567268763"><ele>163.93</ele><time>2026-08-15T04:06:25Z</time></trkpt><trkpt lat="59.3632833380" lon="34.6566652693"><ele>164.63</ele><time>2026-08-15T04:06:55Z</time></trkpt><trkpt lat="59.3632744532" lon="34.6565848030"><ele>167.87</ele><time>2026-08-15T04:07:26Z</time></trkpt><trkpt lat="59.3632462062" lon="34.6565515269"><ele>167.66</ele><time>2026-08-15T04:07:50Z</time></trkpt><trkpt lat="59.3632279336" lon="34.6565583162"><ele>166.77</ele><time>2026-08-15T04:08:14Z</time></trkpt><trkpt lat="59.3632323761" lon="34.6564305760"><ele>164.38</ele><time>2026-08-15T04:08:35Z</time></trkpt><trkpt lat="59.3632374890" lon="34.6563572343"><ele>163.72</ele><time>2026-08-15T04:08:49Z</time></trkpt><trkpt lat="59.3631630577" lon="34.6560938749"><ele>165.33</ele><time>2026-08-15T04:09:19Z</time></trkpt><trkpt lat="59.3631605431" lon="34.6559974831"><ele>163.96</ele><time>2026-08-15T04:09:43Z</time></trkpt><trkpt lat="59.3631675001" lon="34.6559013426"><ele>163.13</ele><time>2026-08-15T04:10:04Z</time></trkpt><trkpt lat="59.3631257582" lon="34.6557532344"><ele>162.70</ele><time>2026-08-15T04:10:27Z</time></trkpt><trkpt lat="59.3631226569" lon="34.6557445172"><ele>162.77</ele><time>2026-08-15T04:10:29Z</time></trkpt><trkpt lat="59.3631057255" lon="34.6555886138"><ele>162.31</ele><time>2026-08-15T04:10:52Z</time></trkpt><trkpt lat="59.3630659953" lon="34.6554116718"><ele>160.62</ele><time>2026-08-15T04:11:16Z</time></trkpt><trkpt lat="59.3630593736" lon="34.6552208997"><ele>159.47</ele><time>2026-08-15T04:11:37Z</time></trkpt><trkpt lat="59.3630493991" lon="34.6552120987"><ele>159.40</ele><time>2026-08-15T04:11:45Z</time></trkpt><trkpt lat="59.3630540092" lon="34.6550035570"><ele>158.83</ele><time>2026-08-15T04:12:10Z</time></trkpt><trkpt lat="59.3630279414" lon="34.6548316441"><ele>157.82</ele><time>2026-08-15T04:12:37Z</time></trkpt><trkpt lat="59.3630055618" lon="34.6548003796"><ele>158.00</ele><time>2026-08-15T04:12:50Z</time></trkpt><trkpt lat="59.3629260175" lon="34.6545312367"><ele>160.80</ele><time>2026-08-15T04:13:15Z</time></trkpt><trkpt lat="59.3629020452" lon="34.6545132156"><ele>160.80</ele><time>2026-08-15T04:13:41Z</time></trkpt><trkpt lat="59.3628841918" lon="34.6544416342"><ele>160.90</ele><time>2026-08-15T04:14:13Z</time></trkpt><trkpt lat="59.3628376722" lon="34.6545008104"><ele>160.15</ele><time>2026-08-15T04:14:41Z</time></trkpt><trkpt lat="59.3628917355" lon="34.6545678657"><ele>160.03</ele><time>2026-08-15T04:15:19Z</time></trkpt><trkpt lat="59.3628519215" lon="34.6545038279"><ele>159.63</ele><time>2026-08-15T04:16:07Z</time></trkpt><trkpt lat="59.3628302123" lon="34.6544606611"><ele>161.57</ele><time>2026-08-15T04:16:40Z</time></trkpt><trkpt lat="59.3628550228" lon="34.6545124613"><ele>162.74</ele><time>2026-08-15T04:17:11Z</time></trkpt><trkpt lat="59.3628520053" lon="34.6545324940"><ele>162.86</ele><time>2026-08-15T04:17:41Z</time></trkpt><trkpt lat="59.3628486525" lon="34.6544989664"><ele>162.78</ele><time>2026-08-15T04:18:15Z</time></trkpt><trkpt lat="59.3628503289" lon="34.6544545423"><ele>163.13</ele><time>2026-08-15T04:18:44Z</time></trkpt><trkpt lat="59.3628862873" lon="34.6544866450"><ele>162.63</ele><time>2026-08-15T04:19:16Z</time></trkpt><trkpt lat="59.3628675118" lon="34.6544416342"><ele>161.96</ele><time>2026-08-15T04:19:46Z</time></trkpt><trkpt lat="59.3628365826" lon="34.6544298995"><ele>162.70</ele><time>2026-08-15T04:20:16Z</time></trkpt><trkpt lat="59.3628400192" lon="34.6543701366"><ele>162.74</ele><time>2026-08-15T04:20:44Z</time></trkpt><trkpt lat="59.3629162945" lon="34.6544153150"><ele>162.97</ele><time>2026-08-15T04:21:40Z</time></trkpt><trkpt lat="59.3628416117" lon="34.6544923447"><ele>163.37</ele><time>2026-08-15T04:23:01Z</time></trkpt><trkpt lat="59.3628837727" lon="34.6544201765"><ele>163.04</ele><time>2026-08-15T04:24:05Z</time></trkpt><trkpt lat="59.3627952598" lon="34.6544467472"><ele>163.10</ele><time>2026-08-15T04:24:49Z</time></trkpt><trkpt lat="59.3628584594" lon="34.6544614993"><ele>162.32</ele><time>2026-08-15T04:25:28Z</time></trkpt><trkpt lat="59.3628581241" lon="34.6544154827"><ele>162.10</ele><time>2026-08-15T04:25:57Z</time></trkpt><trkpt lat="59.3628739659" lon="34.6544364374"><ele>160.91</ele><time>2026-08-15T04:26:25Z</time></trkpt><trkpt lat="59.3628915679" lon="34.6543559711"><ele>160.89</ele><time>2026-08-15T04:26:48Z</time></trkpt><trkpt lat="59.3629198987" lon="34.6542355232"><ele>160.02</ele><time>2026-08-15T04:27:11Z</time></trkpt><trkpt lat="59.3628986087" lon="34.6540806256"><ele>160.26</ele><time>2026-08-15T04:27:33Z</time></trkpt><trkpt lat="59.3629368301" lon="34.6539900173"><ele>159.45</ele><time>2026-08-15T04:27:52Z</time></trkpt><trkpt lat="59.3629704416" lon="34.6538047772"><ele>158.49</ele><time>2026-08-15T04:28:16Z</time></trkpt><trkpt lat="59.3629515823" lon="34.6535440162"><ele>158.73</ele><time>2026-08-15T04:28:38Z</time></trkpt><trkpt lat="59.3628990278" lon="34.6532975882"><ele>159.14</ele><time>2026-08-15T04:28:57Z</time></trkpt><trkpt lat="59.3628949206" lon="34.6531478036"><ele>159.07</ele><time>2026-08-15T04:29:16Z</time></trkpt><trkpt lat="59.3628836889" lon="34.6529509965"><ele>157.55</ele><time>2026-08-15T04:29:39Z</time></trkpt><trkpt lat="59.3628386781" lon="34.6526766568"><ele>156.80</ele><time>2026-08-15T04:29:55Z</time></trkpt><trkpt lat="59.3627592176" lon="34.6525304765"><ele>158.48</ele><time>2026-08-15T04:30:17Z</time></trkpt><trkpt lat="59.3626481574" lon="34.6526701190"><ele>158.84</ele><time>2026-08-15T04:30:39Z</time></trkpt><trkpt lat="59.3626842834" lon="34.6527803410"><ele>157.33</ele><time>2026-08-15T04:31:12Z</time></trkpt><trkpt lat="59.3627816811" lon="34.6526902355"><ele>157.44</ele><time>2026-08-15T04:31:39Z</time></trkpt><trkpt lat="59.3627636600" lon="34.6527420357"><ele>156.34</ele><time>2026-08-15T04:32:09Z</time></trkpt><trkpt lat="59.3628187291" lon="34.6526384354"><ele>153.64</ele><time>2026-08-15T04:32:36Z</time></trkpt><trkpt lat="59.3627897277" lon="34.6524195839"><ele>152.37</ele><time>2026-08-15T04:32:57Z</time></trkpt><trkpt lat="59.3627748080" lon="34.6522225253"><ele>151.90</ele><time>2026-08-15T04:33:16Z</time></trkpt><trkpt lat="59.3627480697" lon="34.6520091221"><ele>151.68</ele><time>2026-08-15T04:33:33Z</time></trkpt><trkpt lat="59.3627177272" lon="34.6519217826"><ele>151.72</ele><time>2026-08-15T04:33:45Z</time></trkpt><trkpt lat="59.3626275379" lon="34.6516521368"><ele>153.69</ele><time>2026-08-15T04:34:11Z</time></trkpt><trkpt lat="59.3626381829" lon="34.6513972431"><ele>154.06</ele><time>2026-08-15T04:34:37Z</time></trkpt><trkpt lat="59.3626546115" lon="34.6512479614"><ele>153.26</ele><time>2026-08-15T04:35:00Z</time></trkpt><trkpt lat="59.3626584671" lon="34.6510102507"><ele>152.71</ele><time>2026-08-15T04:35:24Z</time></trkpt><trkpt lat="59.3625588901" lon="34.6509294491"><ele>152.60</ele><time>2026-08-15T04:35:45Z</time></trkpt><trkpt lat="59.3625163939" lon="34.6508064866"><ele>152.46</ele><time>2026-08-15T04:36:08Z</time></trkpt><trkpt lat="59.3625174835" lon="34.6506326459"><ele>153.16</ele><time>2026-08-15T04:36:27Z</time></trkpt><trkpt lat="59.3625084311" lon="34.6504961886"><ele>153.78</ele><time>2026-08-15T04:36:45Z</time></trkpt><trkpt lat="59.3625224289" lon="34.6503348369"><ele>154.07</ele><time>2026-08-15T04:37:12Z</time></trkpt><trkpt lat="59.3625187408" lon="34.6500981320"><ele>154.09</ele><time>2026-08-15T04:37:36Z</time></trkpt><trkpt lat="59.3624932598" lon="34.6499503590"><ele>153.71</ele><time>2026-08-15T04:37:56Z</time></trkpt><trkpt lat="59.3624869734" lon="34.6498238761"><ele>153.86</ele><time>2026-08-15T04:38:15Z</time></trkpt><trkpt lat="59.3624373525" lon="34.6497182641"><ele>153.72</ele><time>2026-08-15T04:38:34Z</time></trkpt><trkpt lat="59.3624243606" lon="34.6497514565"><ele>153.50</ele><time>2026-08-15T04:39:03Z</time></trkpt><trkpt lat="59.3623570539" lon="34.6498724911"><ele>154.49</ele><time>2026-08-15T04:39:35Z</time></trkpt><trkpt lat="59.3623640109" lon="34.6497747581"><ele>157.78</ele><time>2026-08-15T04:40:03Z</time></trkpt><trkpt lat="59.3622940220" lon="34.6497861575"><ele>157.58</ele><time>2026-08-15T04:40:26Z</time></trkpt><trkpt lat="59.3623669446" lon="34.6497735847"><ele>158.46</ele><time>2026-08-15T04:40:54Z</time></trkpt><trkpt lat="59.3624621630" lon="34.6497054398"><ele>157.97</ele><time>2026-08-15T04:41:14Z</time></trkpt><trkpt lat="59.3624834530" lon="34.6496968064"><ele>158.46</ele><time>2026-08-15T04:41:35Z</time></trkpt><trkpt lat="59.3624451477" lon="34.6497232933"><ele>158.69</ele><time>2026-08-15T04:42:03Z</time></trkpt><trkpt lat="59.3624536134" lon="34.6497957129"><ele>160.62</ele><time>2026-08-15T04:42:30Z</time></trkpt><trkpt lat="59.3624217622" lon="34.6498037595"><ele>161.45</ele><time>2026-08-15T04:42:59Z</time></trkpt><trkpt lat="59.3623807747" lon="34.6496832278"><ele>161.77</ele><time>2026-08-15T04:43:18Z</time></trkpt><trkpt lat="59.3623763323" lon="34.6494107321"><ele>162.31</ele><time>2026-08-15T04:43:39Z</time></trkpt><trkpt lat="59.3623580597" lon="34.6491700877"><ele>162.28</ele><time>2026-08-15T04:44:00Z</time></trkpt><trkpt lat="59.3623409607" lon="34.6489658207"><ele>161.68</ele><time>2026-08-15T04:44:17Z</time></trkpt><trkpt lat="59.3623674475" lon="34.6488213167"><ele>162.42</ele><time>2026-08-15T04:44:30Z</time></trkpt><trkpt lat="59.3623304833" lon="34.6486396808"><ele>162.11</ele><time>2026-08-15T04:44:56Z</time></trkpt><trkpt lat="59.3623459898" lon="34.6484609786"><ele>160.62</ele><time>2026-08-15T04:45:16Z</time></trkpt><trkpt lat="59.3623745721" lon="34.6482319850"><ele>160.07</ele><time>2026-08-15T04:45:38Z</time></trkpt><trkpt lat="59.3623943534" lon="34.6481876448"><ele>161.88</ele><time>2026-08-15T04:46:00Z</time></trkpt><trkpt lat="59.3623622507" lon="34.6480372734"><ele>161.19</ele><time>2026-08-15T04:46:24Z</time></trkpt><trkpt lat="59.3622258771" lon="34.6480662748"><ele>161.45</ele><time>2026-08-15T04:47:04Z</time></trkpt><trkpt lat="59.3623531144" lon="34.6480958629"><ele>162.82</ele><time>2026-08-15T04:47:52Z</time></trkpt><trkpt lat="59.3624449801" lon="34.6480606589"><ele>165.22</ele><time>2026-08-15T04:48:17Z</time></trkpt><trkpt lat="59.3624272943" lon="34.6481726412"><ele>171.97</ele><time>2026-08-15T04:48:47Z</time></trkpt><trkpt lat="59.3623665255" lon="34.6481019817"><ele>175.08</ele><time>2026-08-15T04:49:15Z</time></trkpt><trkpt lat="59.3623052537" lon="34.6479624230"><ele>174.85</ele><time>2026-08-15T04:49:41Z</time></trkpt><trkpt lat="59.3622858077" lon="34.6477614250"><ele>174.93</ele><time>2026-08-15T04:50:06Z</time></trkpt><trkpt lat="59.3623100314" lon="34.6476315893"><ele>177.79</ele><time>2026-08-15T04:50:28Z</time></trkpt><trkpt lat="59.3621971272" lon="34.6475902665"><ele>176.49</ele><time>2026-08-15T04:50:53Z</time></trkpt><trkpt lat="59.3622256257" lon="34.6475423221"><ele>176.50</ele><time>2026-08-15T04:51:21Z</time></trkpt><trkpt lat="59.3622069340" lon="34.6473943815"><ele>179.57</ele><time>2026-08-15T04:51:49Z</time></trkpt><trkpt lat="59.3621955346" lon="34.6474393923"><ele>179.58</ele><time>2026-08-15T04:52:18Z</time></trkpt><trkpt lat="59.3621299043" lon="34.6473203693"><ele>180.07</ele><time>2026-08-15T04:52:50Z</time></trkpt><trkpt lat="59.3621291500" lon="34.6472808905"><ele>179.67</ele><time>2026-08-15T04:53:23Z</time></trkpt><trkpt lat="59.3621442374" lon="34.6473963093"><ele>178.34</ele><time>2026-08-15T04:54:04Z</time></trkpt><trkpt lat="59.3621073570" lon="34.6473891847"><ele>177.53</ele><time>2026-08-15T04:54:37Z</time></trkpt><trkpt lat="59.3621426448" lon="34.6473672241"><ele>177.58</ele><time>2026-08-15T04:55:18Z</time></trkpt><trkpt lat="59.3621876556" lon="34.6473771986"><ele>180.28</ele><time>2026-08-15T04:55:55Z</time></trkpt><trkpt lat="59.3621887453" lon="34.6474377159"><ele>176.69</ele><time>2026-08-15T04:56:27Z</time></trkpt><trkpt lat="59.3621928524" lon="34.6474711597"><ele>176.35</ele><time>2026-08-15T04:56:58Z</time></trkpt><trkpt lat="59.3622328341" lon="34.6474258136"><ele>176.89</ele><time>2026-08-15T04:57:31Z</time></trkpt><trkpt lat="59.3621776812" lon="34.6472514700"><ele>177.12</ele><time>2026-08-15T04:58:03Z</time></trkpt><trkpt lat="59.3622227758" lon="34.6473905258"><ele>177.35</ele><time>2026-08-15T04:58:31Z</time></trkpt><trkpt lat="59.3622392882" lon="34.6474094689"><ele>179.37</ele><time>2026-08-15T04:59:01Z</time></trkpt><trkpt lat="59.3621854763" lon="34.6474739257"><ele>179.03</ele><time>2026-08-15T04:59:40Z</time></trkpt><trkpt lat="59.3621685449" lon="34.6473259851"><ele>178.33</ele><time>2026-08-15T05:00:09Z</time></trkpt><trkpt lat="59.3621950317" lon="34.6473954711"><ele>176.57</ele><time>2026-08-15T05:00:35Z</time></trkpt><trkpt lat="59.3621342629" lon="34.6472991630"><ele>173.52</ele><time>2026-08-15T05:01:10Z</time></trkpt><trkpt lat="59.3620646093" lon="34.6472425852"><ele>174.56</ele><time>2026-08-15T05:01:39Z</time></trkpt><trkpt lat="59.3620815407" lon="34.6473169327"><ele>175.02</ele><time>2026-08-15T05:02:07Z</time></trkpt><trkpt lat="59.3620959576" lon="34.6474208683"><ele>177.35</ele><time>2026-08-15T05:02:32Z</time></trkpt><trkpt lat="59.3621784355" lon="34.6473150048"><ele>176.43</ele><time>2026-08-15T05:02:57Z</time></trkpt><trkpt lat="59.3621459976" lon="34.6471798886"><ele>175.88</ele><time>2026-08-15T05:03:17Z</time></trkpt><trkpt lat="59.3621772621" lon="34.6469757892"><ele>174.62</ele><time>2026-08-15T05:03:36Z</time></trkpt><trkpt lat="59.3621941935" lon="34.6467284393"><ele>174.01</ele><time>2026-08-15T05:03:57Z</time></trkpt><trkpt lat="59.3621942773" lon="34.6466761362"><ele>173.88</ele><time>2026-08-15T05:04:04Z</time></trkpt><trkpt lat="59.3621522840" lon="34.6464813408"><ele>175.00</ele><time>2026-08-15T05:04:27Z</time></trkpt><trkpt lat="59.3622389529" lon="34.6464925725"><ele>175.20</ele><time>2026-08-15T05:04:57Z</time></trkpt><trkpt lat="59.3622159027" lon="34.6465930715"><ele>175.27</ele><time>2026-08-15T05:05:26Z</time></trkpt><trkpt lat="59.3621809501" lon="34.6464162972"><ele>175.32</ele><time>2026-08-15T05:05:49Z</time></trkpt><trkpt lat="59.3621411361" lon="34.6461761557"><ele>175.05</ele><time>2026-08-15T05:06:13Z</time></trkpt><trkpt lat="59.3620921019" lon="34.6459946875"><ele>174.39</ele><time>2026-08-15T05:06:33Z</time></trkpt><trkpt lat="59.3621034175" lon="34.6459498443"><ele>173.98</ele><time>2026-08-15T05:06:38Z</time></trkpt><trkpt lat="59.3620765954" lon="34.6459184121"><ele>173.71</ele><time>2026-08-15T05:06:46Z</time></trkpt><trkpt lat="59.3620869052" lon="34.6458410472"><ele>171.60</ele><time>2026-08-15T05:07:17Z</time></trkpt><trkpt lat="59.3620972149" lon="34.6459634230"><ele>171.18</ele><time>2026-08-15T05:07:45Z</time></trkpt><trkpt lat="59.3620744161" lon="34.6459323261"><ele>171.14</ele><time>2026-08-15T05:08:08Z</time></trkpt><trkpt lat="59.3620929401" lon="34.6458001435"><ele>173.15</ele><time>2026-08-15T05:08:37Z</time></trkpt><trkpt lat="59.3621055968" lon="34.6458176617"><ele>173.46</ele><time>2026-08-15T05:09:08Z</time></trkpt><trkpt lat="59.3620833848" lon="34.6455938648"><ele>173.05</ele><time>2026-08-15T05:09:33Z</time></trkpt><trkpt lat="59.3620677106" lon="34.6454627719"><ele>172.74</ele><time>2026-08-15T05:09:56Z</time></trkpt><trkpt lat="59.3619882502" lon="34.6452745982"><ele>171.84</ele><time>2026-08-15T05:10:22Z</time></trkpt><trkpt lat="59.3618999049" lon="34.6451958921"><ele>171.19</ele><time>2026-08-15T05:10:42Z</time></trkpt><trkpt lat="59.3617895991" lon="34.6451633703"><ele>170.91</ele><time>2026-08-15T05:11:02Z</time></trkpt><trkpt lat="59.3617036007" lon="34.6451353747"><ele>170.18</ele><time>2026-08-15T05:11:17Z</time></trkpt><trkpt lat="59.3616016768" lon="34.6450349595"><ele>170.12</ele><time>2026-08-15T05:11:40Z</time></trkpt><trkpt lat="59.3615766149" lon="34.6450233087"><ele>170.96</ele><time>2026-08-15T05:11:59Z</time></trkpt><trkpt lat="59.3616295047" lon="34.6450279187"><ele>171.85</ele><time>2026-08-15T05:12:23Z</time></trkpt><trkpt lat="59.3616074603" lon="34.6449001785"><ele>172.62</ele><time>2026-08-15T05:12:54Z</time></trkpt><trkpt lat="59.3616119027" lon="34.6450498793"><ele>175.53</ele><time>2026-08-15T05:13:23Z</time></trkpt><trkpt lat="59.3616001680" lon="34.6450932976"><ele>176.36</ele><time>2026-08-15T05:13:49Z</time></trkpt><trkpt lat="59.3615419976" lon="34.6451338660"><ele>177.56</ele><time>2026-08-15T05:14:22Z</time></trkpt><trkpt lat="59.3615622818" lon="34.6450282540"><ele>175.68</ele><time>2026-08-15T05:14:50Z</time></trkpt><trkpt lat="59.3615698256" lon="34.6449908707"><ele>174.95</ele><time>2026-08-15T05:14:58Z</time></trkpt><trkpt lat="59.3616091367" lon="34.6449115779"><ele>174.84</ele><time>2026-08-15T05:15:26Z</time></trkpt><trkpt lat="59.3615958095" lon="34.6447269246"><ele>174.14</ele><time>2026-08-15T05:15:49Z</time></trkpt><trkpt lat="59.3615946360" lon="34.6445473004"><ele>172.49</ele><time>2026-08-15T05:16:09Z</time></trkpt><trkpt lat="59.3616699893" lon="34.6442033071"><ele>170.80</ele><time>2026-08-15T05:16:44Z</time></trkpt><trkpt lat="59.3616293371" lon="34.6442271117"><ele>171.95</ele><time>2026-08-15T05:17:08Z</time></trkpt><trkpt lat="59.3614989985" lon="34.6441946737"><ele>172.51</ele><time>2026-08-15T05:17:42Z</time></trkpt><trkpt lat="59.3615790457" lon="34.6442549396"><ele>171.49</ele><time>2026-08-15T05:18:07Z</time></trkpt><trkpt lat="59.3616046943" lon="34.6442354936"><ele>170.42</ele><time>2026-08-15T05:18:33Z</time></trkpt><trkpt lat="59.3616670556" lon="34.6441812627"><ele>169.34</ele><time>2026-08-15T05:18:59Z</time></trkpt><trkpt lat="59.3616404012" lon="34.6440557856"><ele>168.89</ele><time>2026-08-15T05:19:23Z</time></trkpt><trkpt lat="59.3616381381" lon="34.6438532788"><ele>169.40</ele><time>2026-08-15T05:19:41Z</time></trkpt><trkpt lat="59.3616319355" lon="34.6436713077"><ele>167.80</ele><time>2026-08-15T05:20:00Z</time></trkpt><trkpt lat="59.3615937978" lon="34.6435112134"><ele>166.81</ele><time>2026-08-15T05:20:18Z</time></trkpt><trkpt lat="59.3615945522" lon="34.6434244607"><ele>165.85</ele><time>2026-08-15T05:20:36Z</time></trkpt><trkpt lat="59.3615762796" lon="34.6433793660"><ele>163.61</ele><time>2026-08-15T05:21:02Z</time></trkpt><trkpt lat="59.3615154270" lon="34.6434175037"><ele>164.02</ele><time>2026-08-15T05:21:31Z</time></trkpt><trkpt lat="59.3615564983" lon="34.6434330102"><ele>165.98</ele><time>2026-08-15T05:22:01Z</time></trkpt><trkpt lat="59.3615464401" lon="34.6433861554"><ele>166.78</ele><time>2026-08-15T05:22:33Z</time></trkpt><trkpt lat="59.3615168519" lon="34.6434315015"><ele>165.11</ele><time>2026-08-15T05:23:04Z</time></trkpt><trkpt lat="59.3615211267" lon="34.6434118878"><ele>165.22</ele><time>2026-08-15T05:23:07Z</time></trkpt><trkpt lat="59.3615458533" lon="34.6432416514"><ele>165.15</ele><time>2026-08-15T05:23:29Z</time></trkpt><trkpt lat="59.3615486193" lon="34.6432367060"><ele>165.17</ele><time>2026-08-15T05:23:30Z</time></trkpt><trkpt lat="59.3615333643" lon="34.6430424973"><ele>165.28</ele><time>2026-08-15T05:23:54Z</time></trkpt><trkpt lat="59.3615597673" lon="34.6430585906"><ele>166.21</ele><time>2026-08-15T05:24:22Z</time></trkpt><trkpt lat="59.3615685683" lon="34.6432011668"><ele>165.98</ele><time>2026-08-15T05:24:44Z</time></trkpt><trkpt lat="59.3615255691" lon="34.6433890890"><ele>165.25</ele><time>2026-08-15T05:25:08Z</time></trkpt><trkpt lat="59.3614159338" lon="34.6433902625"><ele>165.03</ele><time>2026-08-15T05:25:31Z</time></trkpt><trkpt lat="59.3613415863" lon="34.6434691362"><ele>165.37</ele><time>2026-08-15T05:25:53Z</time></trkpt><trkpt lat="59.3612778001" lon="34.6435588226"><ele>165.72</ele><time>2026-08-15T05:26:13Z</time></trkpt><trkpt lat="59.3612873554" lon="34.6437336691"><ele>165.01</ele><time>2026-08-15T05:26:36Z</time></trkpt><trkpt lat="59.3612575158" lon="34.6438535303"><ele>165.48</ele><time>2026-08-15T05:26:54Z</time></trkpt><trkpt lat="59.3611231539" lon="34.6439490002"><ele>166.98</ele><time>2026-08-15T05:27:18Z</time></trkpt><trkpt lat="59.3610083219" lon="34.6439116169"><ele>167.44</ele><time>2026-08-15T05:27:37Z</time></trkpt><trkpt lat="59.3610270973" lon="34.6440008003"><ele>168.22</ele><time>2026-08-15T05:28:01Z</time></trkpt><trkpt lat="59.3610265944" lon="34.6439687815"><ele>169.68</ele><time>2026-08-15T05:28:30Z</time></trkpt><trkpt lat="59.3610039633" lon="34.6439242736"><ele>170.29</ele><time>2026-08-15T05:28:59Z</time></trkpt><trkpt lat="59.3610283546" lon="34.6440230962"><ele>171.28</ele><time>2026-08-15T05:29:28Z</time></trkpt><trkpt lat="59.3610225711" lon="34.6440130379"><ele>171.29</ele><time>2026-08-15T05:29:29Z</time></trkpt><trkpt lat="59.3609708548" lon="34.6438981220"><ele>176.22</ele><time>2026-08-15T05:30:02Z</time></trkpt><trkpt lat="59.3609896302" lon="34.6439424623"><ele>178.50</ele><time>2026-08-15T05:30:32Z</time></trkpt><trkpt lat="59.3609785661" lon="34.6439505927"><ele>179.83</ele><time>2026-08-15T05:31:02Z</time></trkpt><trkpt lat="59.3610301148" lon="34.6442175563"><ele>177.73</ele><time>2026-08-15T05:31:25Z</time></trkpt><trkpt lat="59.3610646483" lon="34.6443325561"><ele>177.37</ele><time>2026-08-15T05:31:45Z</time></trkpt><trkpt lat="59.3610581942" lon="34.6443634853"><ele>177.54</ele><time>2026-08-15T05:31:50Z</time></trkpt><trkpt lat="59.3610323779" lon="34.6445116773"><ele>176.62</ele><time>2026-08-15T05:32:15Z</time></trkpt><trkpt lat="59.3610348087" lon="34.6446198039"><ele>176.76</ele><time>2026-08-15T05:32:28Z</time></trkpt><trkpt lat="59.3610713538" lon="34.6448622923"><ele>176.18</ele><time>2026-08-15T05:32:52Z</time></trkpt><trkpt lat="59.3610802386" lon="34.6448952332"><ele>177.17</ele><time>2026-08-15T05:33:21Z</time></trkpt><trkpt lat="59.3610897940" lon="34.6449268330"><ele>178.88</ele><time>2026-08-15T05:33:45Z</time></trkpt><trkpt lat="59.3611002713" lon="34.6450412460"><ele>182.58</ele><time>2026-08-15T05:34:15Z</time></trkpt><trkpt lat="59.3610859383" lon="34.6451205388"><ele>183.77</ele><time>2026-08-15T05:34:46Z</time></trkpt><trkpt lat="59.3610699289" lon="34.6450645477"><ele>183.83</ele><time>2026-08-15T05:35:00Z</time></trkpt><trkpt lat="59.3611431867" lon="34.6450513881"><ele>183.27</ele><time>2026-08-15T05:35:25Z</time></trkpt><trkpt lat="59.3611819949" lon="34.6452012565"><ele>182.86</ele><time>2026-08-15T05:35:46Z</time></trkpt><trkpt lat="59.3611866049" lon="34.6452100575"><ele>182.74</ele><time>2026-08-15T05:35:47Z</time></trkpt><trkpt lat="59.3611976691" lon="34.6452911943"><ele>181.63</ele><time>2026-08-15T05:36:01Z</time></trkpt><trkpt lat="59.3612578511" lon="34.6454989817"><ele>180.53</ele><time>2026-08-15T05:36:25Z</time></trkpt><trkpt lat="59.3612598628" lon="34.6455004904"><ele>180.46</ele><time>2026-08-15T05:36:26Z</time></trkpt><trkpt lat="59.3613503873" lon="34.6456468385"><ele>179.69</ele><time>2026-08-15T05:36:48Z</time></trkpt><trkpt lat="59.3613518123" lon="34.6456505265"><ele>179.76</ele><time>2026-08-15T05:36:49Z</time></trkpt><trkpt lat="59.3613540754" lon="34.6458148118"><ele>180.42</ele><time>2026-08-15T05:37:13Z</time></trkpt><trkpt lat="59.3613073044" lon="34.6458962839"><ele>180.73</ele><time>2026-08-15T05:37:44Z</time></trkpt><trkpt lat="59.3612151034" lon="34.6458428074"><ele>183.84</ele><time>2026-08-15T05:38:14Z</time></trkpt><trkpt lat="59.3612632155" lon="34.6458908357"><ele>183.82</ele><time>2026-08-15T05:38:48Z</time></trkpt><trkpt lat="59.3613251578" lon="34.6459164005"><ele>183.93</ele><time>2026-08-15T05:39:17Z</time></trkpt><trkpt lat="59.3613763712" lon="34.6460007224"><ele>184.60</ele><time>2026-08-15T05:39:48Z</time></trkpt><trkpt lat="59.3613000959" lon="34.6459104493"><ele>184.98</ele><time>2026-08-15T05:40:17Z</time></trkpt><trkpt lat="59.3613374792" lon="34.6459484193"><ele>184.46</ele><time>2026-08-15T05:40:42Z</time></trkpt><trkpt lat="59.3613893632" lon="34.6461440530"><ele>183.39</ele><time>2026-08-15T05:41:04Z</time></trkpt><trkpt lat="59.3614090607" lon="34.6463014651"><ele>181.70</ele><time>2026-08-15T05:41:28Z</time></trkpt><trkpt lat="59.3614170235" lon="34.6465173829"><ele>181.19</ele><time>2026-08-15T05:41:50Z</time></trkpt><trkpt lat="59.3614593521" lon="34.6466695983"><ele>180.43</ele><time>2026-08-15T05:42:13Z</time></trkpt><trkpt lat="59.3614979088" lon="34.6468894556"><ele>178.12</ele><time>2026-08-15T05:42:33Z</time></trkpt><trkpt lat="59.3615724239" lon="34.6471026074"><ele>176.35</ele><time>2026-08-15T05:42:58Z</time></trkpt><trkpt lat="59.3615727592" lon="34.6472241450"><ele>174.93</ele><time>2026-08-15T05:43:25Z</time></trkpt><trkpt lat="59.3616589252" lon="34.6470852569"><ele>171.93</ele><time>2026-08-15T05:43:56Z</time></trkpt><trkpt lat="59.3616497051" lon="34.6472507156"><ele>171.26</ele><time>2026-08-15T05:44:23Z</time></trkpt><trkpt lat="59.3617512938" lon="34.6472187806"><ele>170.82</ele><time>2026-08-15T05:44:56Z</time></trkpt><trkpt lat="59.3617259804" lon="34.6472580079"><ele>170.63</ele><time>2026-08-15T05:45:26Z</time></trkpt><trkpt lat="59.3616968114" lon="34.6474348661"><ele>171.05</ele><time>2026-08-15T05:45:51Z</time></trkpt><trkpt lat="59.3617178500" lon="34.6474778652"><ele>170.88</ele><time>2026-08-15T05:45:59Z</time></trkpt><trkpt lat="59.3617718294" lon="34.6477409732"><ele>172.46</ele><time>2026-08-15T05:46:28Z</time></trkpt><trkpt lat="59.3618515413" lon="34.6478972118"><ele>172.02</ele><time>2026-08-15T05:46:48Z</time></trkpt><trkpt lat="59.3619309179" lon="34.6480293944"><ele>172.18</ele><time>2026-08-15T05:47:11Z</time></trkpt><trkpt lat="59.3620058522" lon="34.6481473278"><ele>171.97</ele><time>2026-08-15T05:47:33Z</time></trkpt><trkpt lat="59.3620339315" lon="34.6482757386"><ele>172.56</ele><time>2026-08-15T05:48:01Z</time></trkpt><trkpt lat="59.3620194308" lon="34.6484350786"><ele>172.10</ele><time>2026-08-15T05:48:21Z</time></trkpt><trkpt lat="59.3620774336" lon="34.6484529320"><ele>172.05</ele><time>2026-08-15T05:48:55Z</time></trkpt><trkpt lat="59.3619978894" lon="34.6484083403"><ele>171.09</ele><time>2026-08-15T05:49:30Z</time></trkpt><trkpt lat="59.3618882541" lon="34.6483733878"><ele>169.17</ele><time>2026-08-15T05:50:01Z</time></trkpt><trkpt lat="59.3618957140" lon="34.6483978629"><ele>168.42</ele><time>2026-08-15T05:50:27Z</time></trkpt><trkpt lat="59.3619501963" lon="34.6484957635"><ele>170.84</ele><time>2026-08-15T05:50:58Z</time></trkpt><trkpt lat="59.3619525433" lon="34.6484034788"><ele>172.34</ele><time>2026-08-15T05:51:35Z</time></trkpt><trkpt lat="59.3619130645" lon="34.6484007128"><ele>171.41</ele><time>2026-08-15T05:52:06Z</time></trkpt><trkpt lat="59.3619305827" lon="34.6484919917"><ele>171.88</ele><time>2026-08-15T05:52:35Z</time></trkpt><trkpt lat="59.3619415630" lon="34.6485608909"><ele>170.33</ele><time>2026-08-15T05:53:17Z</time></trkpt><trkpt lat="59.3619740847" lon="34.6484735515"><ele>170.51</ele><time>2026-08-15T05:54:04Z</time></trkpt><trkpt lat="59.3618887570" lon="34.6485321410"><ele>170.77</ele><time>2026-08-15T05:54:30Z</time></trkpt><trkpt lat="59.3618736695" lon="34.6486289520"><ele>168.34</ele><time>2026-08-15T05:55:02Z</time></trkpt><trkpt lat="59.3619093765" lon="34.6486702748"><ele>168.22</ele><time>2026-08-15T05:55:40Z</time></trkpt><trkpt lat="59.3619289063" lon="34.6486845240"><ele>168.50</ele><time>2026-08-15T05:55:44Z</time></trkpt><trkpt lat="59.3620007392" lon="34.6487374138"><ele>169.33</ele><time>2026-08-15T05:56:04Z</time></trkpt><trkpt lat="59.3620522041" lon="34.6488441993"><ele>171.62</ele><time>2026-08-15T05:56:27Z</time></trkpt><trkpt lat="59.3621319998" lon="34.6490073111"><ele>173.29</ele><time>2026-08-15T05:56:51Z</time></trkpt><trkpt lat="59.3622015696" lon="34.6491604485"><ele>173.87</ele><time>2026-08-15T05:57:13Z</time></trkpt><trkpt lat="59.3622413836" lon="34.6493697446"><ele>172.22</ele><time>2026-08-15T05:57:35Z</time></trkpt><trkpt lat="59.3622847181" lon="34.6495193616"><ele>171.50</ele><time>2026-08-15T05:57:55Z</time></trkpt><trkpt lat="59.3623298127" lon="34.6496930346"><ele>171.58</ele><time>2026-08-15T05:58:13Z</time></trkpt><trkpt lat="59.3623770867" lon="34.6499517839"><ele>172.18</ele><time>2026-08-15T05:58:39Z</time></trkpt><trkpt lat="59.3623835407" lon="34.6499737445"><ele>173.13</ele><time>2026-08-15T05:59:06Z</time></trkpt><trkpt lat="59.3623340875" lon="34.6501617506"><ele>173.93</ele><time>2026-08-15T05:59:32Z</time></trkpt><trkpt lat="59.3623868935" lon="34.6502790973"><ele>174.20</ele><time>2026-08-15T05:59:58Z</time></trkpt><trkpt lat="59.3624059204" lon="34.6503898222"><ele>174.81</ele><time>2026-08-15T06:00:21Z</time></trkpt><trkpt lat="59.3624536134" lon="34.6504844539"><ele>175.40</ele><time>2026-08-15T06:00:48Z</time></trkpt><trkpt lat="59.3623128813" lon="34.6503443923"><ele>178.98</ele><time>2026-08-15T06:01:14Z</time></trkpt><trkpt lat="59.3623334169" lon="34.6504389402"><ele>179.18</ele><time>2026-08-15T06:01:42Z</time></trkpt><trkpt lat="59.3624143023" lon="34.6504839510"><ele>177.27</ele><time>2026-08-15T06:02:09Z</time></trkpt><trkpt lat="59.3624293897" lon="34.6506422851"><ele>176.68</ele><time>2026-08-15T06:02:42Z</time></trkpt><trkpt lat="59.3624627497" lon="34.6507822629"><ele>176.92</ele><time>2026-08-15T06:02:59Z</time></trkpt><trkpt lat="59.3625048269" lon="34.6508705243"><ele>177.02</ele><time>2026-08-15T06:03:18Z</time></trkpt><trkpt lat="59.3625534419" lon="34.6510457061"><ele>175.88</ele><time>2026-08-15T06:03:42Z</time></trkpt><trkpt lat="59.3625792582" lon="34.6510944888"><ele>175.30</ele><time>2026-08-15T06:03:47Z</time></trkpt><trkpt lat="59.3626484927" lon="34.6511927247"><ele>174.88</ele><time>2026-08-15T06:04:05Z</time></trkpt><trkpt lat="59.3627071660" lon="34.6514073014"><ele>173.65</ele><time>2026-08-15T06:04:25Z</time></trkpt><trkpt lat="59.3627163861" lon="34.6515906975"><ele>172.50</ele><time>2026-08-15T06:04:46Z</time></trkpt><trkpt lat="59.3627599720" lon="34.6516227163"><ele>174.42</ele><time>2026-08-15T06:05:23Z</time></trkpt><trkpt lat="59.3626898993" lon="34.6516702417"><ele>178.58</ele><time>2026-08-15T06:05:56Z</time></trkpt><trkpt lat="59.3628033902" lon="34.6515754424"><ele>182.86</ele><time>2026-08-15T06:06:54Z</time></trkpt><trkpt lat="59.3628188130" lon="34.6516304277"><ele>180.63</ele><time>2026-08-15T06:07:19Z</time></trkpt><trkpt lat="59.3627823517" lon="34.6519217826"><ele>179.81</ele><time>2026-08-15T06:07:44Z</time></trkpt><trkpt lat="59.3627867941" lon="34.6521998104"><ele>179.01</ele><time>2026-08-15T06:08:07Z</time></trkpt><trkpt lat="59.3628230039" lon="34.6523637604"><ele>179.36</ele><time>2026-08-15T06:08:30Z</time></trkpt><trkpt lat="59.3628625665" lon="34.6525089350"><ele>178.20</ele><time>2026-08-15T06:08:50Z</time></trkpt><trkpt lat="59.3628707808" lon="34.6525680274"><ele>177.65</ele><time>2026-08-15T06:08:55Z</time></trkpt><trkpt lat="59.3629442062" lon="34.6527930815"><ele>176.35</ele><time>2026-08-15T06:09:18Z</time></trkpt><trkpt lat="59.3629819248" lon="34.6530022938"><ele>175.59</ele><time>2026-08-15T06:09:36Z</time></trkpt><trkpt lat="59.3629672565" lon="34.6532545052"><ele>176.70</ele><time>2026-08-15T06:09:57Z</time></trkpt><trkpt lat="59.3629520014" lon="34.6532792319"><ele>176.04</ele><time>2026-08-15T06:10:29Z</time></trkpt><trkpt lat="59.3629075773" lon="34.6533334628"><ele>177.63</ele><time>2026-08-15T06:11:03Z</time></trkpt><trkpt lat="59.3628977705" lon="34.6533836704"><ele>178.16</ele><time>2026-08-15T06:11:32Z</time></trkpt><trkpt lat="59.3628810067" lon="34.6534052119"><ele>178.49</ele><time>2026-08-15T06:12:05Z</time></trkpt><trkpt lat="59.3629125226" lon="34.6533943992"><ele>178.01</ele><time>2026-08-15T06:12:26Z</time></trkpt><trkpt lat="59.3629144505" lon="34.6534011886"><ele>176.47</ele><time>2026-08-15T06:12:57Z</time></trkpt><trkpt lat="59.3629660830" lon="34.6535513923"><ele>174.81</ele><time>2026-08-15T06:13:21Z</time></trkpt><trkpt lat="59.3630517460" lon="34.6537501272"><ele>174.49</ele><time>2026-08-15T06:13:42Z</time></trkpt><trkpt lat="59.3630872853" lon="34.6539290808"><ele>174.45</ele><time>2026-08-15T06:14:03Z</time></trkpt><trkpt lat="59.3630926497" lon="34.6541855671"><ele>173.04</ele><time>2026-08-15T06:14:28Z</time></trkpt><trkpt lat="59.3631159514" lon="34.6543159895"><ele>172.16</ele><time>2026-08-15T06:14:43Z</time></trkpt><trkpt lat="59.3631410971" lon="34.6546398662"><ele>170.02</ele><time>2026-08-15T06:15:07Z</time></trkpt><trkpt lat="59.3631654885" lon="34.6546552051"><ele>170.16</ele><time>2026-08-15T06:15:31Z</time></trkpt><trkpt lat="59.3632381596" lon="34.6547365934"><ele>171.90</ele><time>2026-08-15T06:15:53Z</time></trkpt><trkpt lat="59.3631732836" lon="34.6546323225"><ele>171.09</ele><time>2026-08-15T06:16:25Z</time></trkpt><trkpt lat="59.3631696794" lon="34.6547595598"><ele>169.96</ele><time>2026-08-15T06:16:55Z</time></trkpt><trkpt lat="59.3631530832" lon="34.6548533533"><ele>171.31</ele><time>2026-08-15T06:17:30Z</time></trkpt><trkpt lat="59.3631542567" lon="34.6546977013"><ele>170.79</ele><time>2026-08-15T06:17:55Z</time></trkpt><trkpt lat="59.3631512392" lon="34.6546135470"><ele>171.20</ele><time>2026-08-15T06:18:21Z</time></trkpt><trkpt lat="59.3631088268" lon="34.6546521876"><ele>171.49</ele><time>2026-08-15T06:18:53Z</time></trkpt><trkpt lat="59.3630913924" lon="34.6545619145"><ele>170.65</ele><time>2026-08-15T06:19:25Z</time></trkpt><trkpt lat="59.3632130977" lon="34.6545857191"><ele>171.86</ele><time>2026-08-15T06:19:55Z</time></trkpt><trkpt lat="59.3631353136" lon="34.6545734815"><ele>172.34</ele><time>2026-08-15T06:20:26Z</time></trkpt><trkpt lat="59.3631019536" lon="34.6546071768"><ele>175.68</ele><time>2026-08-15T06:20:55Z</time></trkpt><trkpt lat="59.3630965054" lon="34.6546127927"><ele>175.42</ele><time>2026-08-15T06:21:35Z</time></trkpt><trkpt lat="59.3631033786" lon="34.6546692867"><ele>174.39</ele><time>2026-08-15T06:22:05Z</time></trkpt><trkpt lat="59.3631192204" lon="34.6546802670"><ele>173.09</ele><time>2026-08-15T06:22:28Z</time></trkpt><trkpt lat="59.3631717749" lon="34.6546895709"><ele>171.42</ele><time>2026-08-15T06:22:56Z</time></trkpt><trkpt lat="59.3631866947" lon="34.6548529342"><ele>170.38</ele><time>2026-08-15T06:23:15Z</time></trkpt><trkpt lat="59.3631887902" lon="34.6550301276"><ele>168.71</ele><time>2026-08-15T06:23:30Z</time></trkpt><trkpt lat="59.3631710205" lon="34.6552736219"><ele>166.46</ele><time>2026-08-15T06:23:48Z</time></trkpt><trkpt lat="59.3632156122" lon="34.6555130929"><ele>164.24</ele><time>2026-08-15T06:24:12Z</time></trkpt><trkpt lat="59.3632501457" lon="34.6557303518"><ele>162.89</ele><time>2026-08-15T06:24:31Z</time></trkpt><trkpt lat="59.3632670771" lon="34.6558786277"><ele>162.44</ele><time>2026-08-15T06:24:43Z</time></trkpt><trkpt lat="59.3633006047" lon="34.6561025921"><ele>162.36</ele><time>2026-08-15T06:25:07Z</time></trkpt><trkpt lat="59.3632913008" lon="34.6563097928"><ele>162.72</ele><time>2026-08-15T06:25:31Z</time></trkpt><trkpt lat="59.3633227330" lon="34.6561941225"><ele>164.86</ele><time>2026-08-15T06:26:04Z</time></trkpt><trkpt lat="59.3633189611" lon="34.6562539693"><ele>166.26</ele><time>2026-08-15T06:26:33Z</time></trkpt><trkpt lat="59.3633523211" lon="34.6562826354"><ele>166.13</ele><time>2026-08-15T06:27:04Z</time></trkpt><trkpt lat="59.3633085676" lon="34.6562165860"><ele>166.24</ele><time>2026-08-15T06:27:34Z</time></trkpt><trkpt lat="59.3633034546" lon="34.6562222857"><ele>167.77</ele><time>2026-08-15T06:28:14Z</time></trkpt><trkpt lat="59.3632899597" lon="34.6561751794"><ele>167.46</ele><time>2026-08-15T06:28:41Z</time></trkpt><trkpt lat="59.3631694280" lon="34.6561726648"><ele>167.86</ele><time>2026-08-15T06:29:03Z</time></trkpt><trkpt lat="59.3630827591" lon="34.6562220342"><ele>168.09</ele><time>2026-08-15T06:29:19Z</time></trkpt><trkpt lat="59.3629659154" lon="34.6562776901"><ele>166.70</ele><time>2026-08-15T06:29:40Z</time></trkpt><trkpt lat="59.3628806714" lon="34.6563115530"><ele>165.92</ele><time>2026-08-15T06:30:02Z</time></trkpt><trkpt lat="59.3627962656" lon="34.6563394647"><ele>165.46</ele><time>2026-08-15T06:30:24Z</time></trkpt><trkpt lat="59.3627345748" lon="34.6563357767"><ele>165.81</ele><time>2026-08-15T06:30:43Z</time></trkpt><trkpt lat="59.3626993708" lon="34.6563422307"><ele>166.30</ele><time>2026-08-15T06:31:00Z</time></trkpt><trkpt lat="59.3626354169" lon="34.6563498583"><ele>167.62</ele><time>2026-08-15T06:31:22Z</time></trkpt><trkpt lat="59.3626061641" lon="34.6563589945"><ele>168.64</ele><time>2026-08-15T06:31:52Z</time></trkpt><trkpt lat="59.3626101036" lon="34.6563930251"><ele>168.55</ele><time>2026-08-15T06:32:25Z</time></trkpt><trkpt lat="59.3626453914" lon="34.6565137245"><ele>168.75</ele><time>2026-08-15T06:32:41Z</time></trkpt><trkpt lat="59.3626746442" lon="34.6566402912"><ele>168.94</ele><time>2026-08-15T06:32:56Z</time></trkpt><trkpt lat="59.3626521807" lon="34.6568356734"><ele>170.27</ele><time>2026-08-15T06:33:20Z</time></trkpt><trkpt lat="59.3626214191" lon="34.6569566242"><ele>171.22</ele><time>2026-08-15T06:33:40Z</time></trkpt><trkpt lat="59.3626338243" lon="34.6570676006"><ele>171.76</ele><time>2026-08-15T06:34:03Z</time></trkpt><trkpt lat="59.3625918310" lon="34.6571293753"><ele>172.44</ele><time>2026-08-15T06:34:23Z</time></trkpt><trkpt lat="59.3625809345" lon="34.6572411060"><ele>172.45</ele><time>2026-08-15T06:34:40Z</time></trkpt><trkpt lat="59.3625500891" lon="34.6573324688"><ele>172.84</ele><time>2026-08-15T06:35:09Z</time></trkpt><trkpt lat="59.3625262007" lon="34.6573721152"><ele>173.21</ele><time>2026-08-15T06:35:34Z</time></trkpt><trkpt lat="59.3625613209" lon="34.6574773919"><ele>173.52</ele><time>2026-08-15T06:35:47Z</time></trkpt><trkpt lat="59.3626116961" lon="34.6575978398"><ele>173.40</ele><time>2026-08-15T06:36:00Z</time></trkpt><trkpt lat="59.3626196589" lon="34.6576539148"><ele>173.19</ele><time>2026-08-15T06:36:06Z</time></trkpt><trkpt lat="59.3626324832" lon="34.6577897016"><ele>172.93</ele><time>2026-08-15T06:36:25Z</time></trkpt><trkpt lat="59.3626558688" lon="34.6579363849"><ele>173.36</ele><time>2026-08-15T06:36:42Z</time></trkpt><trkpt lat="59.3627266120" lon="34.6581204515"><ele>172.82</ele><time>2026-08-15T06:37:03Z</time></trkpt><trkpt lat="59.3627665937" lon="34.6582223754"><ele>172.71</ele><time>2026-08-15T06:37:27Z</time></trkpt><trkpt lat="59.3628093414" lon="34.6583346091"><ele>174.29</ele><time>2026-08-15T06:37:58Z</time></trkpt><trkpt lat="59.3627714552" lon="34.6582914423"><ele>175.06</ele><time>2026-08-15T06:38:25Z</time></trkpt><trkpt lat="59.3627338205" lon="34.6584113035"><ele>175.10</ele><time>2026-08-15T06:39:24Z</time></trkpt><trkpt lat="59.3628116045" lon="34.6585249621"><ele>176.76</ele><time>2026-08-15T06:39:54Z</time></trkpt><trkpt lat="59.3628277816" lon="34.6585494373"><ele>180.02</ele><time>2026-08-15T06:40:25Z</time></trkpt><trkpt lat="59.3628172204" lon="34.6585967951"><ele>181.36</ele><time>2026-08-15T06:41:00Z</time></trkpt><trkpt lat="59.3629323877" lon="34.6587280557"><ele>182.31</ele><time>2026-08-15T06:42:04Z</time></trkpt><trkpt lat="59.3629651610" lon="34.6587039996"><ele>182.13</ele><time>2026-08-15T06:42:51Z</time></trkpt><trkpt lat="59.3628734630" lon="34.6586149838"><ele>186.19</ele><time>2026-08-15T06:43:25Z</time></trkpt><trkpt lat="59.3628505804" lon="34.6586751658"><ele>186.70</ele><time>2026-08-15T06:43:57Z</time></trkpt><trkpt lat="59.3628905620" lon="34.6588435583"><ele>186.79</ele><time>2026-08-15T06:44:18Z</time></trkpt><trkpt lat="59.3628427014" lon="34.6590717137"><ele>186.05</ele><time>2026-08-15T06:44:36Z</time></trkpt><trkpt lat="59.3628872093" lon="34.6591851208"><ele>185.99</ele><time>2026-08-15T06:44:53Z</time></trkpt><trkpt lat="59.3628937472" lon="34.6593035571"><ele>185.28</ele><time>2026-08-15T06:45:16Z</time></trkpt><trkpt lat="59.3629280291" lon="34.6594924852"><ele>184.48</ele><time>2026-08-15T06:45:36Z</time></trkpt><trkpt lat="59.3629743811" lon="34.6597277652"><ele>184.01</ele><time>2026-08-15T06:45:54Z</time></trkpt><trkpt lat="59.3630131893" lon="34.6598813217"><ele>186.05</ele><time>2026-08-15T06:46:30Z</time></trkpt><trkpt lat="59.3629607186" lon="34.6600072179"><ele>185.28</ele><time>2026-08-15T06:47:00Z</time></trkpt><trkpt lat="59.3629886303" lon="34.6599621233"><ele>185.67</ele><time>2026-08-15T06:47:33Z</time></trkpt><trkpt lat="59.3629965931" lon="34.6599289309"><ele>185.29</ele><time>2026-08-15T06:48:07Z</time></trkpt><trkpt lat="59.3629498221" lon="34.6598754544"><ele>185.43</ele><time>2026-08-15T06:48:34Z</time></trkpt><trkpt lat="59.3629986048" lon="34.6600433439"><ele>185.40</ele><time>2026-08-15T06:48:56Z</time></trkpt><trkpt lat="59.3630700186" lon="34.6602694876"><ele>185.25</ele><time>2026-08-15T06:49:17Z</time></trkpt><trkpt lat="59.3631405942" lon="34.6603974793"><ele>184.36</ele><time>2026-08-15T06:49:32Z</time></trkpt><trkpt lat="59.3631587829" lon="34.6604834776"><ele>183.89</ele><time>2026-08-15T06:49:36Z</time></trkpt><trkpt lat="59.3631724454" lon="34.6608161554"><ele>181.89</ele><time>2026-08-15T06:49:57Z</time></trkpt><trkpt lat="59.3632073980" lon="34.6610483341"><ele>180.46</ele><time>2026-08-15T06:50:21Z</time></trkpt><trkpt lat="59.3632037938" lon="34.6611491684"><ele>180.70</ele><time>2026-08-15T06:50:39Z</time></trkpt><trkpt lat="59.3632084038" lon="34.6613385156"><ele>180.23</ele><time>2026-08-15T06:51:00Z</time></trkpt><trkpt lat="59.3632099126" lon="34.6614991128"><ele>180.14</ele><time>2026-08-15T06:51:20Z</time></trkpt><trkpt lat="59.3631798215" lon="34.6616327204"><ele>179.55</ele><time>2026-08-15T06:51:46Z</time></trkpt><trkpt lat="59.3631288595" lon="34.6615295392"><ele>180.26</ele><time>2026-08-15T06:52:14Z</time></trkpt><trkpt lat="59.3631614652" lon="34.6616911422"><ele>180.61</ele><time>2026-08-15T06:52:50Z</time></trkpt><trkpt lat="59.3631431926" lon="34.6615945827"><ele>179.81</ele><time>2026-08-15T06:53:25Z</time></trkpt><trkpt lat="59.3631923106" lon="34.6617365722"><ele>181.28</ele><time>2026-08-15T06:53:58Z</time></trkpt><trkpt lat="59.3631391693" lon="34.6615556069"><ele>182.13</ele><time>2026-08-15T06:54:39Z</time></trkpt><trkpt lat="59.3631115928" lon="34.6615953371"><ele>182.90</ele><time>2026-08-15T06:55:07Z</time></trkpt><trkpt lat="59.3631191365" lon="34.6617188025"><ele>182.73</ele><time>2026-08-15T06:55:42Z</time></trkpt><trkpt lat="59.3631853536" lon="34.6617980953"><ele>182.78</ele><time>2026-08-15T06:56:13Z</time></trkpt><trkpt lat="59.3631920591" lon="34.6616929024"><ele>183.59</ele><time>2026-08-15T06:56:40Z</time></trkpt><trkpt lat="59.3632332981" lon="34.6616606321"><ele>184.97</ele><time>2026-08-15T06:57:09Z</time></trkpt><trkpt lat="59.3632238265" lon="34.6616783179"><ele>188.67</ele><time>2026-08-15T06:57:40Z</time></trkpt><trkpt lat="59.3631260097" lon="34.6616448741"><ele>188.06</ele><time>2026-08-15T06:58:13Z</time></trkpt><trkpt lat="59.3630394246" lon="34.6616941597"><ele>187.33</ele><time>2026-08-15T06:58:47Z</time></trkpt><trkpt lat="59.3631297816" lon="34.6617189702"><ele>185.92</ele><time>2026-08-15T06:59:19Z</time></trkpt><trkpt lat="59.3630961701" lon="34.6616380848"><ele>185.20</ele><time>2026-08-15T06:59:52Z</time></trkpt><trkpt lat="59.3630209006" lon="34.6615261864"><ele>185.28</ele><time>2026-08-15T07:00:15Z</time></trkpt><trkpt lat="59.3629587069" lon="34.6616179682"><ele>185.77</ele><time>2026-08-15T07:00:34Z</time></trkpt><trkpt lat="59.3628509156" lon="34.6617565211"><ele>185.20</ele><time>2026-08-15T07:00:54Z</time></trkpt><trkpt lat="59.3628369179" lon="34.6617854387"><ele>184.92</ele><time>2026-08-15T07:01:00Z</time></trkpt><trkpt lat="59.3627492432" lon="34.6618187986"><ele>183.45</ele><time>2026-08-15T07:01:17Z</time></trkpt><trkpt lat="59.3626383506" lon="34.6618622169"><ele>182.66</ele><time>2026-08-15T07:01:38Z</time></trkpt><trkpt lat="59.3626255263" lon="34.6618182957"><ele>182.71</ele><time>2026-08-15T07:01:55Z</time></trkpt><trkpt lat="59.3625147175" lon="34.6619837545"><ele>182.63</ele><time>2026-08-15T07:02:25Z</time></trkpt><trkpt lat="59.3624868896" lon="34.6619577706"><ele>182.87</ele><time>2026-08-15T07:02:47Z</time></trkpt><trkpt lat="59.3624992948" lon="34.6620057151"><ele>182.40</ele><time>2026-08-15T07:03:49Z</time></trkpt><trkpt lat="59.3624140508" lon="34.6621137578"><ele>180.67</ele><time>2026-08-15T07:04:12Z</time></trkpt><trkpt lat="59.3623184133" lon="34.6622717567"><ele>179.23</ele><time>2026-08-15T07:04:28Z</time></trkpt><trkpt lat="59.3622290622" lon="34.6623257361"><ele>178.76</ele><time>2026-08-15T07:04:50Z</time></trkpt><trkpt lat="59.3621936906" lon="34.6623224672"><ele>177.16</ele><time>2026-08-15T07:05:20Z</time></trkpt><trkpt lat="59.3622103706" lon="34.6623362135"><ele>176.56</ele><time>2026-08-15T07:05:46Z</time></trkpt><trkpt lat="59.3621156551" lon="34.6624298394"><ele>175.37</ele><time>2026-08-15T07:06:07Z</time></trkpt><trkpt lat="59.3620794453" lon="34.6624898538"><ele>174.38</ele><time>2026-08-15T07:06:27Z</time></trkpt><trkpt lat="59.3620397151" lon="34.6625652909"><ele>174.37</ele><time>2026-08-15T07:06:58Z</time></trkpt><trkpt lat="59.3620586582" lon="34.6625662968"><ele>174.13</ele><time>2026-08-15T07:07:10Z</time></trkpt><trkpt lat="59.3621393759" lon="34.6626781113"><ele>173.57</ele><time>2026-08-15T07:07:25Z</time></trkpt><trkpt lat="59.3621435668" lon="34.6627491899"><ele>172.59</ele><time>2026-08-15T07:07:36Z</time></trkpt><trkpt lat="59.3621116318" lon="34.6629541274"><ele>172.75</ele><time>2026-08-15T07:07:59Z</time></trkpt><trkpt lat="59.3621922657" lon="34.6629832126"><ele>174.42</ele><time>2026-08-15T07:08:23Z</time></trkpt><trkpt lat="59.3622472510" lon="34.6631366853"><ele>173.40</ele><time>2026-08-15T07:08:41Z</time></trkpt><trkpt lat="59.3623279687" lon="34.6632820275"><ele>173.11</ele><time>2026-08-15T07:08:58Z</time></trkpt><trkpt lat="59.3623179942" lon="34.6633582190"><ele>172.78</ele><time>2026-08-15T07:09:02Z</time></trkpt><trkpt lat="59.3623342551" lon="34.6635888889"><ele>173.03</ele><time>2026-08-15T07:09:37Z</time></trkpt><trkpt lat="59.3622259609" lon="34.6635848656"><ele>175.60</ele><time>2026-08-15T07:10:03Z</time></trkpt><trkpt lat="59.3620910961" lon="34.6636893880"><ele>177.88</ele><time>2026-08-15T07:10:33Z</time></trkpt><trkpt lat="59.3621489312" lon="34.6636533458"><ele>180.14</ele><time>2026-08-15T07:10:53Z</time></trkpt><trkpt lat="59.3621726520" lon="34.6636212431"><ele>180.44</ele><time>2026-08-15T07:11:23Z</time></trkpt><trkpt lat="59.3620969635" lon="34.6637810022"><ele>179.43</ele><time>2026-08-15T07:11:48Z</time></trkpt><trkpt lat="59.3619896751" lon="34.6639819164"><ele>178.57</ele><time>2026-08-15T07:12:07Z</time></trkpt><trkpt lat="59.3619334325" lon="34.6642001811"><ele>177.56</ele><time>2026-08-15T07:12:30Z</time></trkpt><trkpt lat="59.3618672155" lon="34.6644054540"><ele>176.56</ele><time>2026-08-15T07:12:49Z</time></trkpt><trkpt lat="59.3617662136" lon="34.6646355372"><ele>178.03</ele><time>2026-08-15T07:13:17Z</time></trkpt><trkpt lat="59.3618757650" lon="34.6644855849"><ele>179.98</ele><time>2026-08-15T07:13:54Z</time></trkpt><trkpt lat="59.3619381264" lon="34.6644295938"><ele>182.10</ele><time>2026-08-15T07:14:24Z</time></trkpt><trkpt lat="59.3619212788" lon="34.6643974911"><ele>183.41</ele><time>2026-08-15T07:14:55Z</time></trkpt><trkpt lat="59.3619374558" lon="34.6644387301"><ele>184.24</ele><time>2026-08-15T07:15:27Z</time></trkpt><trkpt lat="59.3619320076" lon="34.6643680707"><ele>183.92</ele><time>2026-08-15T07:15:59Z</time></trkpt><trkpt lat="59.3619098794" lon="34.6644343715"><ele>181.76</ele><time>2026-08-15T07:16:19Z</time></trkpt><trkpt lat="59.3618691433" lon="34.6645871736"><ele>180.17</ele><time>2026-08-15T07:16:29Z</time></trkpt><trkpt lat="59.3618129008" lon="34.6648456715"><ele>179.21</ele><time>2026-08-15T07:16:50Z</time></trkpt><trkpt lat="59.3618110567" lon="34.6648554783"><ele>179.20</ele><time>2026-08-15T07:16:51Z</time></trkpt><trkpt lat="59.3617314287" lon="34.6651058458"><ele>179.33</ele><time>2026-08-15T07:17:16Z</time></trkpt><trkpt lat="59.3616994098" lon="34.6652368549"><ele>179.34</ele><time>2026-08-15T07:17:30Z</time></trkpt><trkpt lat="59.3615766149" lon="34.6655110270"><ele>179.50</ele><time>2026-08-15T07:17:52Z</time></trkpt><trkpt lat="59.3615373876" lon="34.6657423675"><ele>178.52</ele><time>2026-08-15T07:18:12Z</time></trkpt><trkpt lat="59.3615410756" lon="34.6659041382"><ele>177.75</ele><time>2026-08-15T07:18:28Z</time></trkpt><trkpt lat="59.3615271617" lon="34.6660620533"><ele>177.44</ele><time>2026-08-15T07:18:41Z</time></trkpt><trkpt lat="59.3615143374" lon="34.6662318707"><ele>176.19</ele><time>2026-08-15T07:18:54Z</time></trkpt><trkpt lat="59.3615101464" lon="34.6664428432"><ele>174.84</ele><time>2026-08-15T07:19:09Z</time></trkpt><trkpt lat="59.3615161814" lon="34.6666245628"><ele>173.67</ele><time>2026-08-15T07:19:23Z</time></trkpt><trkpt lat="59.3614631239" lon="34.6667128243"><ele>174.26</ele><time>2026-08-15T07:19:51Z</time></trkpt><trkpt lat="59.3613995891" lon="34.6667607687"><ele>176.07</ele><time>2026-08-15T07:20:18Z</time></trkpt><trkpt lat="59.3615211267" lon="34.6667922847"><ele>176.21</ele><time>2026-08-15T07:20:43Z</time></trkpt><trkpt lat="59.3614731822" lon="34.6667336952"><ele>175.50</ele><time>2026-08-15T07:21:08Z</time></trkpt><trkpt lat="59.3614626210" lon="34.6667624451"><ele>176.22</ele><time>2026-08-15T07:21:33Z</time></trkpt><trkpt lat="59.3614500482" lon="34.6667180210"><ele>173.23</ele><time>2026-08-15T07:21:59Z</time></trkpt><trkpt lat="59.3615128286" lon="34.6668191068"><ele>172.96</ele><time>2026-08-15T07:22:32Z</time></trkpt><trkpt lat="59.3615523912" lon="34.6669065300"><ele>172.21</ele><time>2026-08-15T07:22:49Z</time></trkpt><trkpt lat="59.3616381381" lon="34.6669816319"><ele>171.59</ele><time>2026-08-15T07:23:10Z</time></trkpt><trkpt lat="59.3616922852" lon="34.6671366133"><ele>172.04</ele><time>2026-08-15T07:23:28Z</time></trkpt><trkpt lat="59.3617132399" lon="34.6672171634"><ele>171.69</ele><time>2026-08-15T07:23:40Z</time></trkpt><trkpt lat="59.3617377989" lon="34.6674205083"><ele>170.19</ele><time>2026-08-15T07:23:56Z</time></trkpt><trkpt lat="59.3617686443" lon="34.6675018128"><ele>169.50</ele><time>2026-08-15T07:24:07Z</time></trkpt><trkpt lat="59.3618020881" lon="34.6677139588"><ele>169.61</ele><time>2026-08-15T07:24:31Z</time></trkpt><trkpt lat="59.3617610168" lon="34.6677015536"><ele>169.76</ele><time>2026-08-15T07:24:53Z</time></trkpt><trkpt lat="59.3618307542" lon="34.6676561236"><ele>169.46</ele><time>2026-08-15T07:25:10Z</time></trkpt><trkpt lat="59.3618560676" lon="34.6676474065"><ele>169.38</ele><time>2026-08-15T07:25:13Z</time></trkpt><trkpt lat="59.3619968835" lon="34.6677705366"><ele>167.98</ele><time>2026-08-15T07:25:32Z</time></trkpt><trkpt lat="59.3620281480" lon="34.6678384300"><ele>166.57</ele><time>2026-08-15T07:25:48Z</time></trkpt><trkpt lat="59.3620634358" lon="34.6678674314"><ele>166.95</ele><time>2026-08-15T07:26:15Z</time></trkpt><trkpt lat="59.3620774336" lon="34.6679271944"><ele>166.60</ele><time>2026-08-15T07:26:42Z</time></trkpt><trkpt lat="59.3620397151" lon="34.6678900626"><ele>167.41</ele><time>2026-08-15T07:27:14Z</time></trkpt><trkpt lat="59.3620713986" lon="34.6678853687"><ele>168.79</ele><time>2026-08-15T07:27:46Z</time></trkpt><trkpt lat="59.3621714786" lon="34.6679478139"><ele>169.30</ele><time>2026-08-15T07:28:15Z</time></trkpt><trkpt lat="59.3622537050" lon="34.6680621430"><ele>168.68</ele><time>2026-08-15T07:28:29Z</time></trkpt><trkpt lat="59.3623072654" lon="34.6681384183"><ele>168.20</ele><time>2026-08-15T07:28:45Z</time></trkpt><trkpt lat="59.3623882346" lon="34.6682768874"><ele>167.05</ele><time>2026-08-15T07:29:05Z</time></trkpt><trkpt lat="59.3624698743" lon="34.6684138477"><ele>166.04</ele><time>2026-08-15T07:29:27Z</time></trkpt><trkpt lat="59.3625414558" lon="34.6685365587"><ele>165.07</ele><time>2026-08-15T07:29:49Z</time></trkpt><trkpt lat="59.3625854608" lon="34.6686222218"><ele>165.05</ele><time>2026-08-15T07:30:00Z</time></trkpt><trkpt lat="59.3626689445" lon="34.6687542368"><ele>165.22</ele><time>2026-08-15T07:30:22Z</time></trkpt><trkpt lat="59.3627155479" lon="34.6688520536"><ele>165.31</ele><time>2026-08-15T07:30:36Z</time></trkpt><trkpt lat="59.3627726287" lon="34.6690023411"><ele>164.70</ele><time>2026-08-15T07:30:53Z</time></trkpt><trkpt lat="59.3628043961" lon="34.6692673769"><ele>165.76</ele><time>2026-08-15T07:31:12Z</time></trkpt><trkpt lat="59.3629196472" lon="34.6693579014"><ele>164.73</ele><time>2026-08-15T07:31:58Z</time></trkpt><trkpt lat="59.3629564438" lon="34.6694174130"><ele>166.21</ele><time>2026-08-15T07:32:17Z</time></trkpt><trkpt lat="59.3629754707" lon="34.6694800258"><ele>166.22</ele><time>2026-08-15T07:32:24Z</time></trkpt><trkpt lat="59.3629654124" lon="34.6695935167"><ele>165.66</ele><time>2026-08-15T07:32:35Z</time></trkpt><trkpt lat="59.3629043922" lon="34.6697293036"><ele>166.45</ele><time>2026-08-15T07:32:57Z</time></trkpt><trkpt lat="59.3629034702" lon="34.6697909944"><ele>166.27</ele><time>2026-08-15T07:33:04Z</time></trkpt><trkpt lat="59.3628880475" lon="34.6698356699"><ele>166.17</ele><time>2026-08-15T07:33:08Z</time></trkpt><trkpt lat="59.3628904782" lon="34.6700099297"><ele>166.55</ele><time>2026-08-15T07:33:24Z</time></trkpt><trkpt lat="59.3628635723" lon="34.6701525059"><ele>168.58</ele><time>2026-08-15T07:33:55Z</time></trkpt><trkpt lat="59.3629065715" lon="34.6703815833"><ele>169.13</ele><time>2026-08-15T07:34:20Z</time></trkpt><trkpt lat="59.3628963456" lon="34.6705317032"><ele>169.49</ele><time>2026-08-15T07:34:36Z</time></trkpt><trkpt lat="59.3628927413" lon="34.6705373190"><ele>169.49</ele><time>2026-08-15T07:34:37Z</time></trkpt><trkpt lat="59.3629349861" lon="34.6706814039"><ele>169.98</ele><time>2026-08-15T07:34:57Z</time></trkpt><trkpt lat="59.3629497383" lon="34.6708366368"><ele>168.47</ele><time>2026-08-15T07:35:11Z</time></trkpt><trkpt lat="59.3628227524" lon="34.6710292529"><ele>167.55</ele><time>2026-08-15T07:35:30Z</time></trkpt><trkpt lat="59.3628156278" lon="34.6710619424"><ele>167.41</ele><time>2026-08-15T07:35:33Z</time></trkpt><trkpt lat="59.3627397716" lon="34.6712023392"><ele>166.61</ele><time>2026-08-15T07:35:48Z</time></trkpt><trkpt lat="59.3626147974" lon="34.6714836359"><ele>166.58</ele><time>2026-08-15T07:36:09Z</time></trkpt><trkpt lat="59.3625001330" lon="34.6717156470"><ele>165.12</ele><time>2026-08-15T07:36:28Z</time></trkpt><trkpt lat="59.3624634203" lon="34.6719857957"><ele>163.02</ele><time>2026-08-15T07:36:49Z</time></trkpt><trkpt lat="59.3624112848" lon="34.6722328942"><ele>162.32</ele><time>2026-08-15T07:37:07Z</time></trkpt><trkpt lat="59.3623511866" lon="34.6724056453"><ele>161.86</ele><time>2026-08-15T07:37:21Z</time></trkpt><trkpt lat="59.3623055052" lon="34.6726017818"><ele>161.32</ele><time>2026-08-15T07:37:36Z</time></trkpt><trkpt lat="59.3621775974" lon="34.6729531512"><ele>159.85</ele><time>2026-08-15T07:38:01Z</time></trkpt><trkpt lat="59.3620936107" lon="34.6731809713"><ele>159.63</ele><time>2026-08-15T07:38:21Z</time></trkpt><trkpt lat="59.3620905094" lon="34.6731881797"><ele>159.55</ele><time>2026-08-15T07:38:22Z</time></trkpt><trkpt lat="59.3620812055" lon="34.6732709929"><ele>159.18</ele><time>2026-08-15T07:38:29Z</time></trkpt><trkpt lat="59.3620690517" lon="34.6735362802"><ele>159.40</ele><time>2026-08-15T07:38:48Z</time></trkpt><trkpt lat="59.3621019926" lon="34.6736372821"><ele>158.92</ele><time>2026-08-15T07:38:56Z</time></trkpt><trkpt lat="59.3621714786" lon="34.6738429740"><ele>158.05</ele><time>2026-08-15T07:39:10Z</time></trkpt><trkpt lat="59.3622308224" lon="34.6739868913"><ele>157.69</ele><time>2026-08-15T07:39:23Z</time></trkpt><trkpt lat="59.3622478377" lon="34.6742448024"><ele>158.48</ele><time>2026-08-15T07:39:36Z</time></trkpt><trkpt lat="59.3622401264" lon="34.6743433736"><ele>159.16</ele><time>2026-08-15T07:39:40Z</time></trkpt><trkpt lat="59.3622863106" lon="34.6745421924"><ele>159.28</ele><time>2026-08-15T07:39:54Z</time></trkpt><trkpt lat="59.3622742407" lon="34.6748026181"><ele>159.76</ele><time>2026-08-15T07:40:10Z</time></trkpt><trkpt lat="59.3623222690" lon="34.6750561707"><ele>160.56</ele><time>2026-08-15T07:40:29Z</time></trkpt><trkpt lat="59.3623620830" lon="34.6752287541"><ele>160.89</ele><time>2026-08-15T07:40:43Z</time></trkpt><trkpt lat="59.3623639271" lon="34.6754933707"><ele>161.53</ele><time>2026-08-15T07:40:59Z</time></trkpt><trkpt lat="59.3623730633" lon="34.6756528784"><ele>162.07</ele><time>2026-08-15T07:41:14Z</time></trkpt><trkpt lat="59.3624319043" lon="34.6758842189"><ele>161.86</ele><time>2026-08-15T07:41:29Z</time></trkpt><trkpt lat="59.3624628335" lon="34.6760596521"><ele>161.29</ele><time>2026-08-15T07:41:39Z</time></trkpt><trkpt lat="59.3624687847" lon="34.6763023082"><ele>159.82</ele><time>2026-08-15T07:41:55Z</time></trkpt><trkpt lat="59.3624856323" lon="34.6764804237"><ele>159.22</ele><time>2026-08-15T07:42:09Z</time></trkpt><trkpt lat="59.3625392765" lon="34.6766358241"><ele>159.24</ele><time>2026-08-15T07:42:24Z</time></trkpt><trkpt lat="59.3626112770" lon="34.6768327150"><ele>159.76</ele><time>2026-08-15T07:42:40Z</time></trkpt><trkpt lat="59.3626285437" lon="34.6768972557"><ele>159.27</ele><time>2026-08-15T07:42:47Z</time></trkpt><trkpt lat="59.3626347464" lon="34.6769732796"><ele>158.69</ele><time>2026-08-15T07:42:51Z</time></trkpt><trkpt lat="59.3626608979" lon="34.6772255749"><ele>157.72</ele><time>2026-08-15T07:43:09Z</time></trkpt><trkpt lat="59.3627280369" lon="34.6776639484"><ele>158.28</ele><time>2026-08-15T07:43:36Z</time></trkpt><trkpt lat="59.3627500813" lon="34.6777864918"><ele>157.47</ele><time>2026-08-15T07:43:51Z</time></trkpt><trkpt lat="59.3626627419" lon="34.6780117974"><ele>160.58</ele><time>2026-08-15T07:44:19Z</time></trkpt><trkpt lat="59.3626227602" lon="34.6780543774"><ele>165.51</ele><time>2026-08-15T07:44:47Z</time></trkpt><trkpt lat="59.3626954313" lon="34.6781455725"><ele>167.16</ele><time>2026-08-15T07:45:20Z</time></trkpt><trkpt lat="59.3627022207" lon="34.6780612506"><ele>166.85</ele><time>2026-08-15T07:45:51Z</time></trkpt><trkpt lat="59.3627012987" lon="34.6781802736"><ele>168.58</ele><time>2026-08-15T07:46:23Z</time></trkpt><trkpt lat="59.3626721296" lon="34.6780414693"><ele>166.65</ele><time>2026-08-15T07:46:51Z</time></trkpt><trkpt lat="59.3626507558" lon="34.6780152339"><ele>165.58</ele><time>2026-08-15T07:47:20Z</time></trkpt><trkpt lat="59.3625731394" lon="34.6779502742"><ele>162.96</ele><time>2026-08-15T07:47:54Z</time></trkpt><trkpt lat="59.3625759054" lon="34.6780421399"><ele>164.80</ele><time>2026-08-15T07:48:20Z</time></trkpt><trkpt lat="59.3625598960" lon="34.6780988853"><ele>166.69</ele><time>2026-08-15T07:49:10Z</time></trkpt><trkpt lat="59.3624878954" lon="34.6780481748"><ele>168.61</ele><time>2026-08-15T07:49:45Z</time></trkpt><trkpt lat="59.3625293858" lon="34.6781164873"><ele>168.35</ele><time>2026-08-15T07:50:17Z</time></trkpt><trkpt lat="59.3626200780" lon="34.6780541260"><ele>169.67</ele><time>2026-08-15T07:50:47Z</time></trkpt><trkpt lat="59.3625901546" lon="34.6780051757"><ele>169.80</ele><time>2026-08-15T07:51:17Z</time></trkpt><trkpt lat="59.3625394441" lon="34.6779615898"><ele>170.44</ele><time>2026-08-15T07:51:54Z</time></trkpt><trkpt lat="59.3624996301" lon="34.6780608315"><ele>171.92</ele><time>2026-08-15T07:52:25Z</time></trkpt><trkpt lat="59.3624581397" lon="34.6780808643"><ele>174.27</ele><time>2026-08-15T07:52:55Z</time></trkpt><trkpt lat="59.3625121191" lon="34.6780735720"><ele>175.97</ele><time>2026-08-15T07:53:19Z</time></trkpt><trkpt lat="59.3625287991" lon="34.6780913416"><ele>174.44</ele><time>2026-08-15T07:53:53Z</time></trkpt><trkpt lat="59.3625655957" lon="34.6780179162"><ele>172.30</ele><time>2026-08-15T07:54:28Z</time></trkpt><trkpt lat="59.3625201657" lon="34.6779659484"><ele>168.46</ele><time>2026-08-15T07:55:06Z</time></trkpt><trkpt lat="59.3625775818" lon="34.6780154854"><ele>168.94</ele><time>2026-08-15T07:55:32Z</time></trkpt><trkpt lat="59.3625824433" lon="34.6780651901"><ele>169.27</ele><time>2026-08-15T07:56:07Z</time></trkpt><trkpt lat="59.3626018893" lon="34.6780233644"><ele>168.72</ele><time>2026-08-15T07:56:43Z</time></trkpt><trkpt lat="59.3626992870" lon="34.6779421438"><ele>169.37</ele><time>2026-08-15T07:57:08Z</time></trkpt><trkpt lat="59.3627284560" lon="34.6778738312"><ele>170.41</ele><time>2026-08-15T07:57:30Z</time></trkpt><trkpt lat="59.3627096806" lon="34.6778948698"><ele>171.34</ele><time>2026-08-15T07:57:49Z</time></trkpt><trkpt lat="59.3627283722" lon="34.6780583169"><ele>171.48</ele><time>2026-08-15T07:58:11Z</time></trkpt><trkpt lat="59.3627317250" lon="34.6783287171"><ele>171.42</ele><time>2026-08-15T07:58:23Z</time></trkpt><trkpt lat="59.3627416156" lon="34.6786329802"><ele>171.26</ele><time>2026-08-15T07:58:35Z</time></trkpt><trkpt lat="59.3627312221" lon="34.6789405122"><ele>170.53</ele><time>2026-08-15T07:58:45Z</time></trkpt><trkpt lat="59.3627193198" lon="34.6791393310"><ele>170.24</ele><time>2026-08-15T07:58:56Z</time></trkpt><trkpt lat="59.3626892287" lon="34.6792146843"><ele>170.05</ele><time>2026-08-15T07:59:02Z</time></trkpt><trkpt lat="59.3626531865" lon="34.6794379782"><ele>169.33</ele><time>2026-08-15T07:59:12Z</time></trkpt><trkpt lat="59.3625521846" lon="34.6799113881"><ele>167.83</ele><time>2026-08-15T07:59:29Z</time></trkpt><trkpt lat="59.3625031505" lon="34.6801317483"><ele>166.36</ele><time>2026-08-15T07:59:37Z</time></trkpt><trkpt lat="59.3624728080" lon="34.6803508513"><ele>164.95</ele><time>2026-08-15T07:59:47Z</time></trkpt><trkpt lat="59.3623847142" lon="34.6806177311"><ele>163.77</ele><time>2026-08-15T07:59:59Z</time></trkpt><trkpt lat="59.3622775096" lon="34.6809100918"><ele>162.74</ele><time>2026-08-15T08:00:08Z</time></trkpt><trkpt lat="59.3621890806" lon="34.6811901312"><ele>161.30</ele><time>2026-08-15T08:00:19Z</time></trkpt><trkpt lat="59.3621326704" lon="34.6816326957"><ele>158.40</ele><time>2026-08-15T08:00:33Z</time></trkpt><trkpt lat="59.3621275574" lon="34.6816954762"><ele>158.01</ele><time>2026-08-15T08:00:35Z</time></trkpt><trkpt lat="59.3620815407" lon="34.6819764376"><ele>155.85</ele><time>2026-08-15T08:00:45Z</time></trkpt><trkpt lat="59.3620778527" lon="34.6819923632"><ele>155.67</ele><time>2026-08-15T08:00:46Z</time></trkpt><trkpt lat="59.3619819637" lon="34.6821271442"><ele>153.95</ele><time>2026-08-15T08:00:54Z</time></trkpt><trkpt lat="59.3618666288" lon="34.6823953651"><ele>151.11</ele><time>2026-08-15T08:01:06Z</time></trkpt><trkpt lat="59.3618303351" lon="34.6825484186"><ele>149.55</ele><time>2026-08-15T08:01:17Z</time></trkpt><trkpt lat="59.3617458455" lon="34.6829609759"><ele>144.92</ele><time>2026-08-15T08:01:36Z</time></trkpt><trkpt lat="59.3617150839" lon="34.6831710264"><ele>142.65</ele><time>2026-08-15T08:01:49Z</time></trkpt><trkpt lat="59.3616000842" lon="34.6834474616"><ele>143.28</ele><time>2026-08-15T08:02:04Z</time></trkpt><trkpt lat="59.3615819793" lon="34.6836335398"><ele>143.34</ele><time>2026-08-15T08:02:11Z</time></trkpt><trkpt lat="59.3614873476" lon="34.6840934549"><ele>143.65</ele><time>2026-08-15T08:02:25Z</time></trkpt><trkpt lat="59.3613705877" lon="34.6844018251"><ele>142.54</ele><time>2026-08-15T08:02:38Z</time></trkpt><trkpt lat="59.3610404246" lon="34.6849929169"><ele>140.65</ele><time>2026-08-15T08:03:03Z</time></trkpt><trkpt lat="59.3608835153" lon="34.6852612216"><ele>141.13</ele><time>2026-08-15T08:03:15Z</time></trkpt><trkpt lat="59.3607829325" lon="34.6856454480"><ele>140.14</ele><time>2026-08-15T08:03:27Z</time></trkpt><trkpt lat="59.3607076630" lon="34.6861210372"><ele>139.76</ele><time>2026-08-15T08:03:40Z</time></trkpt><trkpt lat="59.3606276996" lon="34.6865634341"><ele>140.69</ele><time>2026-08-15T08:03:54Z</time></trkpt><trkpt lat="59.3605953455" lon="34.6866837144"><ele>140.13</ele><time>2026-08-15T08:03:58Z</time></trkpt><trkpt lat="59.3605331518" lon="34.6867788490"><ele>139.46</ele><time>2026-08-15T08:04:03Z</time></trkpt><trkpt lat="59.3602876458" lon="34.6869228501"><ele>138.36</ele><time>2026-08-15T08:04:18Z</time></trkpt><trkpt lat="59.3600836303" lon="34.6869976167"><ele>137.54</ele><time>2026-08-15T08:04:30Z</time></trkpt><trkpt lat="59.3599807005" lon="34.6870524343"><ele>136.58</ele><time>2026-08-15T08:04:37Z</time></trkpt><trkpt lat="59.3597528804" lon="34.6871663444"><ele>135.20</ele><time>2026-08-15T08:04:50Z</time></trkpt><trkpt lat="59.3595318496" lon="34.6871475689"><ele>136.34</ele><time>2026-08-15T08:05:02Z</time></trkpt><trkpt lat="59.3593328632" lon="34.6871041507"><ele>140.09</ele><time>2026-08-15T08:05:14Z</time></trkpt></trkseg></trk></gpx>